[[{"header":{"parameterUnit":"m.s-1","parameterCategory":1,"la1":30.6,"la2":28.766,"lo1":-90.7593,"lo2":-88.6598,"dy":0.0162,"dx":0.0183,"nx":116,"ny":114,"refTime":"2023-10-04T12:00:00:Z","depth":0,"parameterNumber":2,"parameterNumberName":"U-component_of_WINDS"},"data":[0.0,0.0,0.0,0.0,0.0,0.0,0.0,0.0,0.0,0.0,0.0,0.0,0.0,0.0,0.0,0.0,0.0,0.0,0.0,0.0,0.0,0.0,0.0,0.0,0.0,0.0,0.0,0.0,0.0,0.0,0.0,0.0,0.0,0.0,0.0,0.0,0.0,0.0,0.0,0.0,0.0,0.0,0.0,0.0,0.0,0.0,0.0,0.0,0.0,0.0,0.0,0.0,0.0,0.0,0.0,0.0,0.0,0.0,0.0,0.0,0.0,0.0,0.0,0.0,0.0,0.0,0.0,0.0,0.0,0.0,0.0,0.0,0.0,0.0,0.0,0.0,0.0,0.0,0.0,0.0,0.0,0.0,0.0,0.0,0.0,0.0,0.0,0.0,0.0,0.0,0.0,0.0,0.0,0.0,0.0,0.0,0.0,0.0,0.0,0.0,0.0,0.0,0.0,0.0,0.0,0.0,0.0,0.0,0.0,0.0,0.0,0.0,0.0,0.0,0.0,0.0,0.0,0.0,0.0,0.0,0.0,0.0,0.0,0.0,0.0,0.0,0.0,0.0,0.0,0.0,0.0,0.0,0.0,0.0,0.0,0.0,0.0,0.0,0.0,0.0,0.0,0.0,0.0,0.0,0.0,0.0,0.0,0.0,0.0,0.0,0.0,0.0,0.0,0.0,0.0,0.0,0.0,0.0,0.0,0.0,0.0,0.0,0.0,0.0,0.0,0.0,0.0,0.0,0.0,0.0,0.0,0.0,0.0,0.0,0.0,0.0,0.0,0.0,0.0,0.0,0.0,0.0,0.0,0.0,0.0,0.0,0.0,0.0,0.0,0.0,0.0,0.0,0.0,0.0,0.0,0.0,0.0,0.0,0.0,0.0,0.0,0.0,0.0,0.0,0.0,0.0,0.0,0.0,0.0,0.0,0.0,0.0,0.0,0.0,0.0,0.0,0.0,0.0,0.0,0.0,0.0,0.0,0.0,0.0,0.0,0.0,0.0,0.0,0.0,0.0,0.0,0.0,0.0,0.0,0.0,0.0,0.0,0.0,0.0,0.0,0.0,0.0,0.0,0.0,0.0,0.0,0.0,0.0,0.0,0.0,0.0,0.0,0.0,0.0,0.0,0.0,0.0,0.0,0.0,0.0,0.0,0.0,0.0,0.0,0.0,0.0,0.0,0.0,0.0,0.0,0.0,0.0,0.0,0.0,0.0,0.0,0.0,0.0,0.0,0.0,0.0,0.0,0.0,0.0,0.0,0.0,0.0,0.0,0.0,0.0,0.0,0.0,0.0,0.0,0.0,0.0,0.0,0.0,0.0,0.0,0.0,0.0,0.0,0.0,0.0,0.0,0.0,0.0,0.0,0.0,0.0,0.0,0.0,0.0,0.0,0.0,0.0,0.0,0.0,0.0,0.0,0.0,0.0,0.0,0.0,0.0,0.0,0.0,0.0,0.0,0.0,0.0,0.0,0.0,0.0,0.0,0.0,0.0,0.0,0.0,0.0,0.0,0.0,0.0,0.0,0.0,0.0,0.0,0.0,0.0,0.0,0.0,0.0,0.0,0.0,0.0,0.0,0.0,0.0,0.0,0.0,0.0,0.0,0.0,0.0,0.0,0.0,0.0,0.0,0.0,0.0,0.0,0.0,0.0,0.0,0.0,0.0,0.0,0.0,0.0,0.0,0.0,0.0,0.0,0.0,0.0,0.0,0.0,0.0,0.0,0.0,0.0,0.0,0.0,0.0,0.0,0.0,0.0,0.0,0.0,0.0,0.0,0.0,0.0,0.0,0.0,0.0,0.0,0.0,0.0,0.0,0.0,0.0,0.0,0.0,0.0,0.0,0.0,0.0,0.0,0.0,0.0,0.0,0.0,0.0,0.0,0.0,0.0,0.0,0.0,0.0,0.0,0.0,0.0,0.0,0.0,0.0,0.0,0.0,0.0,0.0,0.0,0.0,0.0,0.0,0.0,0.0,0.0,0.0,0.0,0.0,0.0,0.0,0.0,0.0,0.0,0.0,0.0,0.0,0.0,0.0,0.0,0.0,0.0,0.0,0.0,0.0,0.0,0.0,0.0,0.0,0.0,0.0,0.0,0.0,0.0,0.0,0.0,0.0,0.0,0.0,0.0,0.0,0.0,0.0,0.0,0.0,0.0,0.0,0.0,0.0,0.0,0.0,0.0,0.0,0.0,0.0,0.0,0.0,0.0,0.0,0.0,0.0,0.0,0.0,0.0,0.0,0.0,0.0,0.0,0.0,0.0,0.0,0.0,0.0,0.0,0.0,0.0,0.0,0.0,0.0,0.0,0.0,0.0,0.0,0.0,0.0,0.0,0.0,0.0,0.0,0.0,0.0,0.0,0.0,0.0,0.0,0.0,0.0,0.0,0.0,0.0,0.0,0.0,0.0,0.0,0.0,0.0,0.0,0.0,0.0,0.0,0.0,0.0,0.0,0.0,0.0,0.0,0.0,0.0,0.0,0.0,0.0,0.0,0.0,0.0,0.0,0.0,0.0,0.0,0.0,0.0,0.0,0.0,0.0,0.0,0.0,0.0,0.0,0.0,0.0,0.0,0.0,0.0,0.0,0.0,0.0,0.0,0.0,0.0,0.0,0.0,0.0,0.0,0.0,0.0,0.0,0.0,0.0,0.0,0.0,0.0,0.0,0.0,0.0,0.0,0.0,0.0,0.0,0.0,0.0,0.0,0.0,0.0,0.0,0.0,0.0,0.0,0.0,0.0,0.0,0.0,0.0,0.0,0.0,0.0,0.0,0.0,0.0,0.0,0.0,0.0,0.0,0.0,0.0,0.0,0.0,0.0,0.0,0.0,0.0,0.0,0.0,0.0,0.0,0.0,0.0,0.0,0.0,0.0,0.0,0.0,0.0,0.0,0.0,0.0,0.0,0.0,0.0,0.0,0.0,0.0,0.0,0.0,0.0,0.0,0.0,0.0,0.0,0.0,0.0,0.0,0.0,0.0,0.0,0.0,0.0,0.0,0.0,0.0,0.0,0.0,0.0,0.0,0.0,0.0,0.0,0.0,0.0,0.0,0.0,0.0,0.0,0.0,0.0,0.0,0.0,0.0,0.0,0.0,0.0,0.0,0.0,0.0,0.0,0.0,0.0,0.0,0.0,0.0,0.0,0.0,0.0,0.0,0.0,0.0,0.0,0.0,0.0,0.0,0.0,0.0,0.0,0.0,0.0,0.0,0.0,0.0,0.0,0.0,0.0,0.0,0.0,0.0,0.0,0.0,0.0,0.0,0.0,0.0,0.0,0.0,0.0,0.0,0.0,0.0,0.0,0.0,0.0,0.0,0.0,0.0,0.0,0.0,0.0,0.0,0.0,0.0,0.0,0.0,0.0,0.0,0.0,0.0,0.0,0.0,0.0,0.0,0.0,0.0,0.0,0.0,0.0,0.0,0.0,0.0,0.0,0.0,0.0,0.0,0.0,0.0,0.0,0.0,0.0,0.0,0.0,0.0,0.0,0.0,0.0,0.0,0.0,0.0,0.0,0.0,0.0,0.0,0.0,0.0,0.0,0.0,0.0,0.0,0.0,0.0,0.0,0.0,0.0,0.0,0.0,0.0,0.0,0.0,0.0,0.0,0.0,0.0,0.0,0.0,0.0,0.0,0.0,0.0,0.0,0.0,0.0,0.0,0.0,0.0,0.0,0.0,0.0,0.0,0.0,0.0,0.0,0.0,0.0,0.0,0.0,0.0,0.0,0.0,0.0,0.0,0.0,0.0,0.0,0.0,0.0,0.0,0.0,0.0,0.0,0.0,0.0,0.0,0.0,0.0,0.0,0.0,0.0,0.0,0.0,0.0,0.0,0.0,0.0,0.0,0.0,0.0,0.0,0.0,0.0,0.0,0.0,0.0,0.0,0.0,0.0,0.0,0.0,0.0,0.0,0.0,0.0,0.0,0.0,0.0,0.0,0.0,0.0,0.0,0.0,0.0,0.0,0.0,0.0,0.0,0.0,0.0,0.0,0.0,0.0,0.0,0.0,0.0,0.0,0.0,0.0,0.0,0.0,0.0,0.0,0.0,0.0,0.0,0.0,0.0,0.0,0.0,0.0,0.0,0.0,0.0,0.0,0.0,0.0,0.0,0.0,0.0,0.0,0.0,0.0,0.0,0.0,0.0,0.0,0.0,0.0,0.0,0.0,0.0,0.0,0.0,0.0,0.0,0.0,0.0,0.0,0.0,0.0,0.0,0.0,0.0,0.0,0.0,0.0,0.0,0.0,0.0,0.0,0.0,0.0,0.0,0.0,0.0,0.0,0.0,0.0,0.0,0.0,0.0,0.0,0.0,0.0,0.0,0.0,0.0,0.0,0.0,0.0,0.0,0.0,0.0,0.0,0.0,0.0,0.0,0.0,0.0,0.0,0.0,0.0,0.0,0.0,0.0,0.0,0.0,0.0,0.0,0.0,0.0,0.0,0.0,0.0,0.0,0.0,0.0,0.0,0.0,0.0,0.0,0.0,0.0,0.0,0.0,0.0,0.0,0.0,0.0,0.0,0.0,0.0,0.0,0.0,0.0,0.0,0.0,0.0,0.0,0.0,0.0,0.0,0.0,0.0,0.0,0.0,0.0,0.0,0.0,0.0,0.0,0.0,0.0,0.0,0.0,0.0,0.0,0.0,0.0,0.0,0.0,0.0,0.0,0.0,0.0,0.0,0.0,0.0,0.0,0.0,0.0,0.0,0.0,0.0,0.0,0.0,0.0,0.0,0.0,0.0,0.0,0.0,0.0,0.0,0.0,0.0,0.0,0.0,0.0,0.0,0.0,0.0,0.0,0.0,0.0,0.0,0.0,0.0,0.0,0.0,0.0,0.0,0.0,0.0,0.0,0.0,0.0,0.0,0.0,0.0,0.0,0.0,0.0,0.0,0.0,0.0,0.0,0.0,0.0,0.0,0.0,0.0,0.0,0.0,0.0,0.0,0.0,0.0,0.0,0.0,0.0,0.0,0.0,0.0,0.0,0.0,0.0,0.0,0.0,0.0,0.0,0.0,0.0,0.0,0.0,0.0,0.0,0.0,0.0,0.0,0.0,0.0,0.0,0.0,0.0,0.0,0.0,0.0,0.0,0.0,0.0,0.0,0.0,0.0,0.0,0.0,0.0,0.0,0.0,0.0,0.0,0.0,0.0,0.0,0.0,0.0,0.0,0.0,0.0,0.0,0.0,0.0,0.0,0.0,0.0,0.0,0.0,0.0,0.0,0.0,0.0,0.0,0.0,0.0,0.0,0.0,0.0,0.0,0.0,0.0,0.0,0.0,0.0,0.0,0.0,0.0,0.0,0.0,0.0,0.0,0.0,0.0,0.0,0.0,0.0,0.0,0.0,0.0,0.0,0.0,0.0,0.0,0.0,0.0,0.0,0.0,0.0,0.0,0.0,0.0,0.0,0.0,0.0,0.0,0.0,0.0,0.0,0.0,0.0,0.0,0.0,0.0,0.0,0.0,0.0,0.0,0.0,0.0,0.0,0.0,0.0,0.0,0.0,0.0,0.0,0.0,0.0,0.0,0.0,0.0,0.0,0.0,0.0,0.0,0.0,0.0,0.0,0.0,0.0,0.0,0.0,0.0,0.0,0.0,0.0,0.0,0.0,0.0,0.0,0.0,0.0,0.0,0.0,0.0,0.0,0.0,0.0,0.0,0.0,0.0,0.0,0.0,0.0,0.0,0.0,0.0,0.0,0.0,0.0,0.0,0.0,0.0,0.0,0.0,0.0,0.0,0.0,0.0,0.0,0.0,0.0,0.0,0.0,0.0,0.0,0.0,0.0,0.0,0.0,0.0,0.0,0.0,0.0,0.0,0.0,0.0,0.0,0.0,0.0,0.0,0.0,0.0,0.0,0.0,0.0,0.0,0.0,0.0,0.0,0.0,0.0,0.0,0.0,0.0,0.0,0.0,0.0,0.0,0.0,0.0,0.0,0.0,0.0,0.0,0.0,0.0,0.0,0.0,0.0,0.0,0.0,0.0,0.0,0.0,0.0,0.0,0.0,0.0,0.0,0.0,0.0,0.0,0.0,0.0,0.0,0.0,0.0,0.0,0.0,0.0,0.0,0.0,0.0,0.0,0.0,0.0,0.0,0.8325,0.8235,0.0,0.0,0.0,0.0,0.0,0.0,0.0,0.0,0.0,0.0,0.0,0.0,0.0,0.0,0.0,0.0,0.0,0.0,0.0,0.0,0.0,0.0,0.0,0.0,0.0,0.0,0.0,0.0,0.0,0.0,0.0,0.0,0.0,0.0,0.0,0.0,0.0,0.6583,0.6665,0.6665,0.6615,0.7357,0.806,0.8716,0.0,0.0,0.0,0.0,0.0,0.0,0.0,0.0,0.0,0.0,0.0,0.0,0.0,0.0,0.0,0.0,0.0,0.0,0.0,0.0,0.0,0.0,0.0,0.0,0.0,0.0,0.0,0.0,0.0,0.0,0.0,0.0,0.0,0.0,0.0,0.0,0.0,0.0,0.0,0.0,0.0,0.0,0.0,0.0,0.0,0.0,0.0,0.0,0.0,0.0,0.0,0.0,0.0,0.0,0.0,0.0,0.0,0.0,0.0,0.0,0.0,0.0,0.0,0.0,0.0,0.0,0.0,0.0,0.0,0.0,0.8425,0.8121,0.0,0.0,0.0,0.0,0.0,0.0,0.0,0.0,0.0,0.0,0.0,0.0,0.0,0.0,0.0,0.0,0.0,0.0,0.0,0.0,0.0,0.0,0.0,0.3559,0.3851,0.395,0.3985,0.4071,0.0,0.0,0.0,0.0,0.0,0.0,0.6206,0.6725,0.6851,0.6542,0.6225,0.6179,0.6335,0.6464,0.6937,0.764,0.7174,0.0,0.0,0.0,0.0,0.0,0.0,0.0,0.0,0.0,0.0,0.0,0.0,0.0,0.0,0.0,0.0,0.0,0.0,0.0,0.0,0.0,0.0,0.0,0.0,0.0,0.0,0.0,0.0,0.0,0.0,0.0,0.0,0.0,0.0,0.0,0.0,0.0,0.0,0.0,0.0,0.0,0.0,0.0,0.0,0.0,0.0,0.0,0.0,0.0,0.0,0.0,0.0,0.0,0.0,0.0,0.0,0.0,0.0,0.0,0.0,0.0,0.0,0.0,1.2104,1.1883,1.1186,1.1026,1.0269,0.9081,0.8813,0.808,0.7182,0.7771,0.0,0.0,0.0,0.0,0.0,0.0,0.0,0.0,0.0,0.0,0.0,0.0,0.0,0.0,0.0,0.0,0.0,0.0,0.0,0.2779,0.2779,0.2936,0.3263,0.3778,0.3935,0.4374,0.5248,0.0,0.0,0.0,0.0,0.0,0.6206,0.6725,0.6255,0.4742,0.4804,0.5005,0.5322,0.5955,0.645,0.6768,0.6823,0.7413,0.8388,0.0,0.0,0.0,0.0,0.0,0.0,0.0,0.0,0.0,0.0,0.0,0.0,0.0,0.0,0.0,0.0,0.0,0.0,0.0,0.0,0.0,0.0,0.0,0.0,0.0,0.0,0.0,0.0,0.0,0.0,0.0,0.0,0.0,0.0,0.0,0.0,0.0,0.0,0.0,0.0,0.0,0.6449,0.5989,0.0,0.0,0.0,0.0,0.0,0.0,0.0,0.0,0.0,0.0,0.0,0.0,0.0,1.2116,1.2941,1.2425,1.2391,1.2954,1.24,1.2339,1.2669,1.0826,0.9916,0.9846,0.9295,0.0,0.731,0.794,0.0,0.0,0.0,0.0,0.0,0.0,0.0,0.0,0.0,0.0,0.0,0.0,0.0,0.0,0.0,0.0,0.0,0.0,0.0,0.0,0.0,0.1792,0.1901,0.3178,0.317,0.3473,0.4325,0.5376,0.0,0.0,0.6039,0.6082,0.5696,0.5932,0.5394,0.4058,0.3772,0.3591,0.3492,0.3808,0.4392,0.5143,0.5636,0.6361,0.7218,0.7347,0.0,0.0,0.0,0.0,0.0,0.0,0.0,0.0,0.0,0.0,0.0,0.0,0.0,0.0,0.0,0.0,0.0,0.0,0.0,0.0,0.0,0.0,0.0,0.0,0.0,0.0,0.0,0.0,0.0,0.0,0.0,0.0,0.0,0.0,0.0,0.0,0.0,0.0,0.0,0.6602,0.6127,0.5483,0.6209,0.6628,0.0,0.0,0.0,0.0,0.0,0.0,0.0,0.0,0.0,1.1738,1.2463,1.3123,1.3738,1.4102,1.4501,1.4943,1.4779,1.4129,1.3149,1.2024,1.0725,0.9357,0.9046,0.8532,0.8004,0.8355,0.8507,0.8618,0.0,0.0,0.0,0.0,1.2213,1.1382,0.0,0.0,0.0,0.0,0.0,0.0,0.0,0.0,0.0,0.0,0.0,0.0,0.1131,0.0201,0.015,0.1579,0.1742,0.2179,0.3107,0.4519,0.5157,0.4833,0.5177,0.5194,0.4839,0.4398,0.3882,0.3301,0.2812,0.2406,0.204,0.2312,0.2904,0.3807,0.436,0.5321,0.6565,0.701,0.7004,0.6756,0.0,0.0,0.0,0.0,0.0,0.0,0.0,0.0,0.0,0.0,0.0,0.0,0.0,0.0,0.0,0.0,0.0,0.0,0.0,0.0,0.0,0.0,0.0,0.0,0.0,0.0,0.0,0.0,0.0,0.0,0.0,0.0,0.0,0.0,0.0,0.0,0.0,0.6056,0.5145,0.4636,0.4658,0.4617,0.0,0.0,0.0,0.0,0.0,0.0,0.6555,0.863,1.0107,1.0865,1.2372,1.3349,1.3665,1.4607,1.5233,1.5438,1.5774,1.503,1.3372,1.2778,1.1383,0.9541,0.9096,0.8794,0.869,0.9181,0.962,1.0059,1.0498,1.1716,1.3292,1.3725,1.34,1.2682,0.0,0.0,0.0,0.0,0.0,0.0,0.0,0.0,0.0,0.0,0.0,-0.1446,-0.176,-0.1955,-0.1949,-0.1602,-0.0541,0.0728,0.2177,0.3006,0.3792,0.4581,0.4525,0.4188,0.361,0.1969,0.1384,0.189,0.1758,0.1654,0.1654,0.2595,0.3077,0.316,0.3202,0.4777,0.7411,0.7079,0.712,0.7386,0.674,0.0,0.0,0.0,0.0,0.0,0.0,0.0,0.0,0.0,0.0,0.0,0.0,0.0,0.0,0.0,0.0,0.0,0.0,0.0,0.0,0.0,0.0,0.0,0.0,0.0,0.0,0.0,0.0,0.0,0.0,0.0,0.0,0.0,0.0,0.0,0.0,0.0,0.0,0.3184,0.1703,0.0,0.0,0.0,0.0,0.2766,0.3618,0.4982,0.6972,0.7731,0.9022,1.1036,1.1653,1.2129,1.2501,1.2918,1.3155,1.317,1.3649,1.381,1.3603,1.2236,1.1502,1.1282,0.9975,0.9316,0.9273,1.0626,1.1249,1.1574,1.3231,1.4103,1.4223,1.2612,1.1685,1.1024,0.0,0.0,0.0,0.0,0.0,0.0,0.0,0.0,0.0456,-0.0244,-0.1422,-0.2398,-0.2897,-0.448,-0.5172,-0.4366,-0.3748,-0.2807,-0.1426,0.051,0.1638,0.1648,0.213,0.1867,0.0689,-0.0485,-0.1088,-0.1094,-0.1522,-0.1775,-0.1856,-0.0618,0.0314,0.0998,0.1884,0.321,0.485,0.558,0.6111,0.6573,0.6944,0.7087,0.0,0.0,0.0,0.0,0.0,0.0,0.0,0.0,0.0,0.0,0.0,0.0,0.0,0.0,0.0,0.0,0.0,0.0,0.0,0.0,0.0,0.0,0.0,0.0,0.0,0.0,0.0,0.0,0.0,0.0,0.0,0.0,0.0,0.0,0.0,0.0,0.0,0.0068,-0.026,0.0,-0.1464,-0.0114,0.0743,0.061,0.1897,0.3034,0.3784,0.5651,0.7134,0.8059,1.0095,1.1333,1.1685,1.3058,1.3732,1.3727,1.3944,1.3572,1.2709,1.2008,1.1204,1.0361,0.9801,0.9496,0.9586,1.0906,1.1292,1.1304,1.2915,1.3524,1.3434,1.3862,1.3227,1.1969,0.0,0.0,0.0,0.0,0.0,0.0,0.0,0.0083,-0.0582,-0.1644,-0.3047,-0.4318,-0.5239,-0.7042,-0.7967,-0.7479,-0.6676,-0.5506,-0.386,-0.1754,-0.0379,0.0042,-0.0131,-0.0817,-0.2058,-0.2879,-0.3238,-0.3072,-0.3537,-0.3782,-0.3832,-0.2962,-0.2156,-0.142,-0.0561,0.0418,0.152,0.2812,0.3947,0.4974,0.5988,0.6662,0.7091,0.0,0.0,0.0,0.0,0.0,0.0,0.0,0.0,0.0,0.0,0.0,0.0,0.0,0.0,0.0,0.0,0.0,0.0,0.0,0.0,0.0,0.0,0.0,0.0,0.0,0.0,0.0,0.0,0.0,0.0,0.0,0.0,0.0,0.0,0.1921,-0.0146,-0.2225,-0.2956,-0.3526,-0.4212,-0.2631,-0.1625,-0.1728,0.0151,0.1537,0.2036,0.3771,0.5055,0.5737,0.7664,0.8783,0.8992,1.0321,1.0942,1.0942,1.1,1.0867,1.0571,1.0408,1.0102,0.9747,0.97,0.9652,0.9664,1.0535,1.0782,1.0787,1.3267,1.3761,1.3262,1.4369,1.3761,1.2128,0.0,0.0,0.0,0.0,0.0,0.0,-0.0033,-0.1154,-0.2364,-0.3377,-0.5316,-0.7214,-0.8821,-0.9583,-1.0207,-1.0828,-0.9171,-0.7135,-0.4866,-0.3753,-0.2216,-0.0073,-0.2185,-0.3772,-0.4565,-0.5287,-0.5123,-0.4022,-0.4142,-0.4178,-0.418,-0.4085,-0.404,-0.4042,-0.404,-0.3367,-0.2171,-0.1019,0.0651,0.2571,0.3687,0.5016,0.6365,0.0,0.0,0.0,0.0,0.0,0.0,0.0,0.0,0.0,0.0,0.0,0.0,0.0,0.0,0.0,0.0,0.0,0.0,0.0,0.0,0.0,0.0,0.0,0.0,0.0,0.0,0.0,0.0,0.0,0.0,0.0,0.0,0.0,0.3028,-0.1176,-0.4119,-0.3628,-0.6378,-0.817,-0.7882,-0.5565,-0.4123,-0.4307,-0.1749,0.0518,0.1952,0.2096,0.2816,0.4396,0.4396,0.4394,0.4394,0.4527,0.4564,0.4626,0.4759,0.571,0.7299,0.7299,0.8095,0.9443,0.958,0.956,0.9447,0.958,0.9636,1.0087,1.4343,1.4966,1.3596,1.3776,1.2803,1.1204,0.0,0.0,0.0,0.0,0.0,0.0,-0.0903,-0.154,-0.2387,-0.3432,-0.5543,-0.7437,-0.8712,-1.0522,-1.1795,-1.2201,-1.0982,-0.9427,-0.763,-0.5917,-0.4633,-0.3814,-0.5324,-0.6833,-0.8208,-0.8864,-0.9246,-0.9382,-0.8432,-0.8077,-0.8149,-0.6237,-0.5368,-0.5391,-0.444,-0.3808,-0.3497,-0.3147,-0.2685,-0.1832,0.1679,0.3477,0.4149,0.0,0.0,0.0,0.0,0.0,0.0,0.0,0.0,0.0,0.0,0.0,0.0,0.0,0.0,0.0,0.0,0.0,0.0,0.0,0.0,0.0,0.0,0.0,0.0,0.0,0.0,0.0,0.0,0.0,0.0,0.0,0.0072,-0.1802,-0.1735,-0.327,-0.5113,-0.6899,-0.7969,-0.8642,-0.8825,-0.7169,-0.6149,-0.631,-0.4569,-0.2847,-0.1305,-0.0235,0.1054,0.264,0.269,0.2684,0.2684,0.1734,0.1879,0.3098,0.3172,0.4041,0.559,0.559,0.5823,0.6165,0.6252,0.625,0.6168,0.6252,0.6263,0.6743,1.1419,1.2294,1.0994,1.2239,1.1544,0.9921,0.0,0.0,0.0,0.0,0.0,0.0,-0.1238,-0.1692,-0.2465,-0.3759,-0.579,-0.7579,-0.8876,-1.0652,-1.187,-1.2201,-1.1156,-0.9773,-0.8151,-0.6967,-0.6822,-0.7934,-0.885,-0.9898,-1.1086,-1.143,-1.1552,-1.141,-1.0805,-1.0577,-1.0649,-0.856,-0.7586,-0.7614,-0.6254,-0.5669,-0.5663,-0.5054,-0.4814,-0.4544,-0.1401,0.0932,0.2497,0.3247,0.4819,0.6668,0.6978,0.7492,0.8048,0.8118,0.0,0.0,0.0,0.0,0.0,0.0,0.0,0.0,0.0,0.0,0.0,0.0,0.0,0.0,0.0,0.0,0.0,0.0,0.0,0.0,0.0,0.0,0.0,0.0,-0.2097,-0.4768,-0.5686,-0.6088,-0.6901,-0.8575,-0.8954,-0.9178,-0.9408,-0.8011,-0.7195,-0.7362,-0.5831,-0.4501,-0.3611,-0.2771,-0.1544,0.0059,-0.0533,-0.0592,0.0117,-0.1323,-0.1587,-0.0611,-0.0611,0.0244,0.1774,0.1774,0.2134,0.2788,0.2805,0.317,0.3766,0.3851,0.4294,0.0,0.0,0.0,0.0,0.0,0.8408,0.7431,0.0,0.0,0.0,0.0,0.0,0.0,-0.1238,-0.1692,-0.2583,-0.4238,-0.5968,-0.76,-0.9087,-1.0256,-1.1062,-1.1315,-1.0281,-0.9023,-0.7604,-0.7472,-0.8813,-1.184,-1.2354,-1.2899,-1.3567,-1.3454,-1.2927,-1.1951,-1.2072,-1.2139,-1.2091,-1.0828,-1.0194,-1.0145,-0.897,-0.8382,-0.8134,-0.6977,-0.6376,-0.6121,-0.4935,-0.2332,0.0858,0.0738,0.3285,0.6805,0.5832,0.6217,0.7251,0.7563,0.0,0.0,0.0,0.0,0.0,0.0,0.0,0.0,0.0,0.0,0.0,0.0,0.0,0.0,0.0,0.0,0.0,0.0,0.0,0.0,0.0,0.0,0.0,0.0,-0.4152,-0.6878,-0.8708,-0.9075,-0.9158,-0.9279,-0.9462,-0.9673,-0.9832,-0.8549,-0.7776,-0.8052,-0.6449,-0.5461,-0.5395,-0.513,0.0,0.0,0.0,-0.4286,-0.2883,-0.4781,-0.5651,-0.5477,-0.5649,-0.4894,-0.329,-0.3109,-0.2298,-0.0954,-0.0665,0.0181,0.1438,0.1579,0.2508,0.3989,0.6165,0.6176,0.4916,0.4908,0.4812,0.4688,0.0,0.0,0.0,0.0,0.0,0.0,-0.1247,-0.1692,-0.267,-0.4551,-0.5908,-0.7253,-0.8729,-0.9977,-1.0794,-1.1049,-0.9793,-0.8949,-0.8919,-0.9012,-1.0391,-1.3405,-1.4455,-1.5434,-1.6477,-1.6085,-1.5906,-1.592,-1.4276,-1.3488,-1.3488,-1.2134,-1.1512,-1.1507,-1.1263,-1.0583,-0.9608,-0.9353,-0.8616,-0.7584,-0.7356,-0.5509,-0.2857,-0.2075,-0.0654,0.1013,0.1547,0.2706,0.3981,0.3959,0.4638,0.5408,0.4999,0.551,0.0,0.0,0.0,0.0,0.0,0.0,0.0,0.0,0.0,0.0,0.0,0.0,0.0,0.0,0.0,0.0,0.0,0.0,0.0,-0.6244,-0.8432,-1.0047,-0.9511,-1.0773,-1.1201,-0.9974,-0.972,-0.9713,-0.9916,-0.9692,-0.9526,-0.958,-0.939,-0.8623,-0.7221,-0.604,-0.4641,-0.2863,-0.4459,-0.5197,-0.4995,-0.8834,-1.02,-0.9014,0.0,0.0,-0.8236,-0.6989,-0.6198,-0.5877,-0.452,-0.3795,-0.3543,-0.3492,-0.3311,-0.2454,0.3186,0.5158,0.4909,0.4788,0.4707,0.4681,0.0,0.0,0.0,0.0,0.0,0.0,-0.0927,-0.1365,-0.2099,-0.3389,-0.4746,-0.6103,-0.7441,-0.815,-0.8868,-0.983,-0.9134,-0.9175,-1.0434,-1.1352,-1.3083,-1.5886,-1.6617,-1.7325,-1.8132,-1.7705,-1.7285,-1.6788,-1.6116,-1.546,-1.4806,-1.3494,-1.2909,-1.2861,-1.2188,-1.1556,-1.0974,-1.0974,-1.0583,-0.9948,-0.9948,-0.9137,-0.7705,-0.52,-0.3063,-0.1375,-0.0906,0.009,0.1296,0.1801,0.2456,0.3034,0.3359,0.3839,0.4449,0.0,0.0,0.0,0.0,0.0,0.0,0.0,0.0,0.0,0.0,0.0,0.0,0.0,0.0,-0.3887,-0.4874,0.0,-0.812,-0.8642,-1.0123,-1.1389,-1.2035,-1.3011,-1.2808,-1.0284,-1.0718,-1.1009,-1.0313,-1.0209,-1.0226,-1.0311,-1.0321,-0.9926,-0.9019,-0.8313,-0.712,-0.5206,-0.7574,-0.8497,-0.7713,-1.1502,-1.3024,-1.2314,-1.3152,-1.308,-1.2132,-1.1446,-1.108,-1.088,-0.9281,-0.8074,-0.7218,-0.5584,-0.4916,-0.4547,-0.1288,0.0,0.0,-0.0061,-0.012,-0.0118,0.0,0.0,0.0,0.0,0.0,0.0,0.0,-0.0977,-0.1488,-0.2345,-0.3586,-0.4857,-0.6135,-0.6276,-0.6804,-0.8111,-0.8402,-0.9431,-1.1643,-1.3469,-1.5592,-1.813,-1.8648,-1.8946,-1.9065,-1.8912,-1.8124,-1.6684,-1.7339,-1.7037,-1.5784,-1.4752,-1.4262,-1.422,-1.3156,-1.2528,-1.2285,-1.2285,-1.2139,-1.1896,-1.1896,-1.1896,-1.1551,-0.835,-0.5694,-0.3652,-0.34,-0.2551,-0.1411,-0.0226,0.0219,0.042,0.1305,0.1597,0.1889,0.3286,0.3036,0.0,0.0,0.0,0.0,0.0,0.0,0.0,0.0,-0.3837,-0.5431,-0.6499,-0.7253,-0.7963,-0.8619,-0.9519,-1.0557,-1.1763,-1.2346,-1.3226,-1.4805,-1.5262,-1.4319,-1.1271,-1.2412,-1.2897,-1.1581,-1.1066,-1.0916,-1.1137,-1.0657,-1.0529,-1.0785,-1.081,-1.0243,-0.8905,-1.1558,-1.2314,-1.0891,-1.371,-1.5163,-1.521,-1.567,-1.5736,-1.5558,-1.5447,-1.5251,-1.4955,-1.3347,-1.1947,-1.0538,-0.7886,-0.6799,-0.6799,-0.6799,-0.6799,-0.6616,-0.5341,-0.4929,-0.4915,0.0,0.0,0.0,0.0,0.0,0.0,0.0,0.0,-0.1394,-0.3134,-0.3506,-0.4169,-0.5609,-0.5777,-0.5906,-0.6201,-0.762,-0.9507,-1.1896,-1.4142,-1.6491,-1.9053,-2.0275,-2.0394,-1.9389,-2.0077,-1.9318,-1.6973,-1.7451,-1.7037,-1.5784,-1.5635,-1.5588,-1.5588,-1.5439,-1.4758,-1.3686,-1.3686,-1.3006,-1.1896,-1.1896,-1.1896,-1.1848,-1.1404,-1.032,-0.8874,-0.7646,-0.6139,-0.4621,-0.3458,-0.2288,-0.1371,-0.1616,-0.1165,-0.0401,0.0289,0.03,0.043,0.2091,0.2676,0.2307,0.0232,-0.2091,-0.437,0.0,-0.9581,-1.2571,-1.3354,-1.569,-1.7856,-1.8688,-2.0106,-2.0752,-1.9573,-1.878,-1.7867,-1.671,-1.6895,-1.6436,-1.4492,-1.4817,-1.508,-1.4788,-1.3554,-1.2774,-1.2661,-1.1438,-1.12,-1.2544,-1.2736,-1.3195,-1.4101,-1.4772,-1.4995,-1.4664,-1.6288,-1.7179,-1.7282,-1.8373,-1.892,-1.8829,-1.742,-1.6756,-1.6668,-1.5015,-1.4242,-1.4054,-1.3691,-1.3508,-1.3508,-1.3508,-1.3508,-1.2842,-0.704,-0.4929,-0.4924,0.0,0.0,0.0,0.0,0.0,0.0,0.0,0.0,-0.098,-0.1769,-0.2319,-0.3092,-0.4278,-0.505,-0.529,-0.4836,-0.627,-0.8497,-1.1488,-1.3343,-1.5545,-1.8229,-1.9688,-2.0164,-1.9525,-2.0741,-2.0318,-1.8105,-1.8551,-1.7762,-1.5784,-1.5784,-1.5784,-1.5784,-1.5784,-1.5486,-1.4997,-1.4997,-1.4663,-1.4178,-1.4178,-1.4178,-1.4142,-1.3842,-1.3141,-1.1986,-0.9248,-0.7776,0.0,-0.516,-0.438,-0.4162,-0.4205,-0.3291,-0.2195,-0.2314,-0.1582,-0.0841,-0.1196,-0.2485,-0.4065,-0.5503,-0.8823,-1.1921,-1.2813,-1.5361,-1.7712,-1.822,-1.9838,-2.1235,-2.1611,-2.1489,-2.1558,-2.2137,-2.1023,-2.0314,-2.0819,-2.1212,-2.0598,-1.8465,-1.796,-1.6654,-1.3761,-1.412,-1.3947,-1.2602,-1.3246,-1.3867,-1.4284,-1.4572,-1.4876,-1.5263,-1.6204,-1.668,-1.6531,-1.7863,-1.8578,-1.8633,-1.9292,-1.9619,-1.9619,-1.8945,-1.8013,-1.6973,-1.6467,-1.5612,-1.4604,-1.4604,-1.4604,-1.4604,-1.4604,-1.4604,-1.4297,-1.1571,-0.9968,-0.9134,0.0,0.0,0.0,0.0,0.0,0.0,0.0,0.0,0.0,0.0,-0.1341,-0.219,-0.318,-0.4055,-0.4418,-0.3982,-0.5319,-0.7495,-1.0547,-1.2274,-1.4294,-1.681,-1.8239,-1.8832,-1.8529,-2.0076,-1.9931,-1.7942,-1.8539,-1.7796,-1.5784,-1.5784,-1.5784,-1.5784,-1.5784,-1.5784,-1.5784,-1.5784,-1.5784,-1.5784,-1.5784,-1.5732,-1.5524,-1.4943,-1.4159,-1.2924,-0.9916,-0.8624,-0.8018,-0.5959,-0.5593,-0.6016,-0.5763,-0.4974,-0.4236,-0.4665,-0.365,-0.2779,-0.4696,-0.6773,-0.8899,-1.0919,-1.4238,-1.7348,-1.8578,-2.013,-2.1509,-2.2342,-2.3076,-2.3563,-2.3563,-2.2878,-2.2806,-2.4347,-2.33,-2.2753,-2.4061,-2.398,-2.2854,-2.0193,-1.9205,-1.7047,-1.2663,-1.4086,-1.4824,-1.369,-1.49,-1.578,-1.6011,-1.6313,-1.6636,-1.6925,-1.7981,-1.8416,-1.819,-1.9161,-1.9606,-1.9606,-1.9659,-1.9766,-1.992,-1.992,-1.9147,-1.7805,-1.7995,-1.7309,-1.6007,-1.5935,-1.5908,-1.5908,-1.5908,-1.5908,-1.5908,-1.5908,-1.4599,-1.2851,0.0,0.0,0.0,0.0,0.0,0.0,0.0,0.0,0.0,0.0,0.0,-0.1676,-0.2623,-0.2763,-0.3056,-0.3752,-0.5104,-0.6831,-0.9036,-1.1161,-1.3128,-1.49,-1.6077,-1.6427,-1.582,-1.7456,-1.7392,-1.5529,-1.6684,-1.6759,-1.5784,-1.5784,-1.5784,-1.5784,-1.5784,-1.5784,-1.5784,-1.5784,-1.5784,-1.5784,-1.5784,-1.5491,-1.4975,-1.4342,-1.2962,-1.1128,-0.991,-0.8911,-0.7876,-0.582,-0.5601,-0.6109,-0.5726,-0.6159,-0.6797,-0.6816,-0.6207,-0.6016,-0.8157,-0.848,-0.9402,-1.4297,-1.618,-1.7933,-2.2321,-2.3283,-2.3791,-2.5836,-2.6258,-2.6277,-2.6277,-2.6948,-2.7503,-2.7552,-2.6644,-2.5811,-2.5406,-2.3755,-2.137,-1.817,-1.7351,-1.586,-1.2688,-1.3723,-1.5349,-1.7117,-1.5873,-1.5825,-1.7737,-1.7989,-1.8769,-2.0476,-2.0873,-2.0739,-2.0099,-2.0153,-2.0207,-2.0201,-1.9646,-1.9673,-2.0221,-2.0221,-2.0,-1.9727,-1.9734,-1.9674,-1.9641,-1.9362,-1.9249,-1.9249,-1.9249,-1.9249,-1.9249,-1.9249,-1.7279,-1.454,0.0,0.0,0.0,0.0,0.0,0.0,0.0,0.0,0.0,0.0,0.0,0.0,0.0,0.0,0.0,0.0,-0.3035,-0.4461,-0.7205,-0.8673,-1.027,-1.215,-1.4139,-1.5225,-1.526,-1.67,-1.7093,-1.632,-1.6751,-1.6378,-1.5257,-1.5257,-1.5357,-1.5538,-1.5538,-1.5651,-1.5784,-1.5784,-1.5718,-1.5504,-1.5117,-1.4843,-1.4432,-1.2356,-1.1067,-0.9996,0.0,-0.6589,-0.6449,-0.5348,-0.5454,-0.618,-0.6892,-0.6808,-0.6351,-0.585,-0.7407,-0.9419,-1.0076,-1.2714,-1.5818,-1.7878,-2.0563,-2.3017,-2.4269,-2.5186,-2.5772,-2.5917,-2.5044,-2.4212,-2.3947,-2.3672,-2.4114,-2.6157,-2.5655,-2.5727,-2.794,-2.5339,-2.2737,-2.1534,-1.9491,-1.816,-1.8096,-1.7667,-1.7569,-1.8095,-2.0423,-2.2202,-2.2954,-2.3209,-2.358,-2.417,-2.3044,-2.2252,-2.1833,-2.0573,-1.9853,-1.9659,-1.9659,-1.9659,-1.9673,-2.0054,-2.0074,-1.98,-1.98,-1.98,-1.978,-1.9486,-1.9424,-1.9424,-1.9424,-1.9424,-1.9424,-1.9424,-1.8713,-1.7636,0.0,0.0,0.0,0.0,0.0,0.0,0.0,0.0,0.0,0.0,0.0,0.0,0.0,0.0,0.0,0.0,0.0,-0.2792,-0.5267,-0.6155,-0.7416,-0.9274,-1.0975,-1.2035,-1.2437,-1.3744,-1.4411,-1.45,-1.4851,-1.4766,-1.4211,-1.4211,-1.4372,-1.4623,-1.4723,-1.4825,-1.5005,-1.5005,-1.4883,-1.4556,-1.3682,-1.3139,-1.2615,-1.0205,-0.8836,0.0,-0.5608,-0.4905,-0.5033,-0.4696,-0.5124,-0.5962,-0.6726,-0.6987,-0.713,-0.7722,-1.0019,-1.2641,-1.3774,-1.6948,-2.0196,-2.1401,-2.3726,-2.5703,-2.5576,-2.5947,-2.6162,-2.5615,-2.4247,-2.2902,-2.2061,-2.1444,-2.1934,-2.4656,-2.468,-2.5441,-2.864,-2.6662,-2.4401,-2.3021,-2.103,-1.9972,-2.0476,-2.0331,-1.9897,-1.9138,-2.2298,-2.4301,-2.4271,-2.4791,-2.5388,-2.596,-2.4614,-2.3511,-2.2714,-2.1272,-2.0161,-1.943,-1.9873,-1.9853,-1.945,-2.008,-2.012,-1.9653,-1.976,-1.974,-1.9633,-1.9446,-1.9424,-1.9424,-1.9424,-1.9424,-1.9424,-1.9424,-1.9424,-1.9249,0.0,0.0,0.0,0.0,0.0,0.0,0.0,0.0,0.0,0.0,0.0,0.0,0.0,0.0,0.0,0.0,0.0,0.0,-0.3286,-0.3759,-0.4705,-0.6369,-0.6833,-0.7315,-0.784,-0.8859,-0.9675,-1.0186,-1.1235,-1.2001,-1.2585,-1.2585,-1.2766,-1.3047,-1.332,-1.346,-1.3493,-1.3446,-1.3273,-1.2921,-1.1589,-1.0553,-0.9625,-0.7989,-0.6423,-0.5021,-0.4392,-0.4026,-0.3845,-0.3981,-0.4778,-0.5743,-0.5727,-0.7153,-0.9364,-1.2172,-1.3944,-1.5692,-1.8955,-2.0853,-2.2435,-2.4604,-2.543,-2.5791,-2.623,-2.5654,-2.4953,-2.4863,-2.3664,-2.2169,-2.0477,-2.0163,-2.0917,-2.3143,-2.3854,-2.5032,-2.7696,-2.7629,-2.6042,-2.2686,-2.1909,-2.1232,-2.02,-2.1948,-2.235,-2.0514,-2.1943,-2.2681,-2.2263,-2.3368,-2.4679,-2.6177,-2.5766,-2.4646,-2.2974,-2.2309,-2.1169,-1.9546,-2.0268,-2.0174,-1.9457,-2.0227,-2.016,-1.9406,-1.9666,-1.9692,-1.956,-1.943,-1.9424,-1.954,-1.9424,-1.9424,-1.9424,-1.9424,-1.9424,-1.9424,0.0,0.0,0.0,0.0,0.0,0.0,0.0,0.0,0.0,0.0,0.0,0.0,0.0,0.0,0.0,0.0,0.0,0.0,-0.1821,-0.2974,-0.3822,-0.4265,-0.5662,-0.6704,-0.7298,-0.7759,-0.8286,-0.8896,-0.9156,-0.9382,-0.9516,-0.9813,-1.0244,-1.0757,-1.1174,-1.1583,-1.1919,-1.1529,-1.1134,-1.0625,-0.9438,-0.8739,-0.8171,-0.6126,-0.5237,-0.5002,-0.4196,-0.4055,-0.4248,-0.429,-0.6397,-0.9281,-1.083,-1.2175,-1.3293,-1.4139,-1.6544,-1.9119,-1.9878,-2.2355,-2.483,-2.5411,-2.5606,-2.5625,-2.5459,-2.4393,-2.2953,-2.1461,-1.8887,-1.643,-1.4805,-1.4499,-1.6262,-2.1665,-2.2756,-2.4405,-2.8611,-2.7331,-2.567,-2.4889,-2.4227,-2.4327,-2.5521,-2.6693,-2.6533,-2.4482,-2.6518,-2.8024,-2.8568,-2.8855,-2.9226,-2.9648,-2.8327,-2.7298,-2.6629,-2.3628,-2.1792,-2.1031,-2.0158,-1.9645,-1.943,-1.9658,-1.97,-1.9679,-1.9539,-2.0175,-2.1249,-1.9962,-2.004,-2.0923,-1.9815,-1.9424,-1.9424,-1.9424,-1.9424,-1.9424,0.0,0.0,0.0,0.0,0.0,0.0,0.0,0.0,0.0,0.0,0.0,0.0,0.0,0.0,0.0,0.0,0.0,0.0,0.0,-0.182,-0.2348,-0.2528,-0.3714,-0.4507,-0.4859,-0.5631,-0.6208,-0.6544,-0.6991,-0.7283,-0.745,-0.7732,-0.825,-0.8951,-0.9432,-0.994,-1.0398,-1.0122,-0.9771,0.0,0.0,-0.7052,-0.6549,-0.4596,-0.4037,-0.4237,-0.3752,-0.4388,-0.5769,-0.7819,-0.9646,-1.1565,-1.472,-1.5867,-1.6477,-1.848,-2.041,-2.2064,-2.2723,-2.4562,-2.621,-2.6064,-2.5732,-2.5079,-2.3644,-2.2397,-2.0791,-1.8267,-1.6034,-1.3995,-1.2231,-1.2166,-1.4173,-1.9605,-2.1059,-2.31,-2.7666,-2.7169,-2.6393,-2.6575,-2.626,-2.6693,-2.8398,-2.8926,-2.8797,-2.7812,-2.8568,-2.9075,-2.9232,-2.9726,-3.0293,-3.0869,-2.9772,-2.8686,-2.7694,-2.4912,-2.3268,-2.2873,-2.2125,-2.1654,-2.1331,-2.1471,-2.1486,-2.1382,-2.1338,-2.1843,-2.2539,-2.1672,-2.143,-2.1529,-2.0702,-1.9982,-1.9379,-1.9512,-1.9472,-1.9406,0.0,0.0,0.0,0.0,0.0,0.0,0.0,0.0,0.0,0.0,0.0,0.0,0.0,0.0,0.0,0.0,0.0,0.0,0.0,0.0,-0.0856,-0.1206,-0.1659,-0.1911,-0.1911,-0.3227,-0.3912,-0.3912,-0.4838,-0.5445,-0.5733,-0.5927,-0.6446,-0.723,-0.7707,-0.8222,-0.867,-0.8589,-0.8428,-0.8057,-0.637,-0.546,-0.4927,0.0,-0.3132,-0.3413,-0.3501,-0.4958,-0.753,-1.211,-1.3252,-1.352,-1.7831,-1.8995,-1.9515,-2.3304,-2.4326,-2.4521,-2.5928,-2.665,-2.6904,-2.6416,-2.5596,-2.4263,-2.1797,-2.0226,-1.8451,-1.5366,-1.4096,-1.3025,-1.1346,-1.1707,-1.3599,-1.7663,-1.9393,-2.1607,-2.5708,-2.6926,-2.7431,-2.7597,-2.7571,-2.8111,-2.9619,-2.9468,-2.9529,-3.0244,-2.9258,-2.8343,-2.7623,-2.8617,-2.9707,-3.0859,-3.0498,-2.9432,-2.7726,-2.6198,-2.5234,-2.4773,-2.4853,-2.4474,-2.383,-2.4095,-2.3979,-2.356,-2.3714,-2.3784,-2.3842,-2.3825,-2.3151,-2.2145,-2.1801,-2.0845,-1.9689,-1.9792,-1.9673,-1.9499,0.0,0.0,0.0,0.0,0.0,0.0,0.0,0.0,0.0,0.0,0.0,0.0,0.0,0.0,0.0,0.0,0.0,0.0,0.0,0.0,0.0,-0.0807,-0.1206,-0.1423,-0.1423,-0.2047,-0.2375,-0.2375,-0.2944,-0.3246,-0.3316,-0.3841,-0.4278,-0.4657,-0.5244,-0.5689,-0.5937,-0.5449,-0.5152,-0.4947,-0.4403,-0.406,-0.3845,-0.339,0.0,0.0,-0.4565,-0.5731,-0.7571,-1.1631,-1.4446,-1.6874,-2.0647,-2.2785,-2.3913,-2.428,-2.5391,-2.6367,-2.5908,-2.6416,-2.6826,-2.5996,-2.4922,-2.3633,-2.2123,-1.9199,-1.6059,-1.3347,-1.133,-1.0009,-0.9758,-1.0791,-1.3153,-1.7724,-1.942,-2.1094,-2.3604,-2.5946,-2.7342,-2.7131,-2.6892,-2.7768,-3.044,-2.8748,-2.8418,-3.0626,-3.0566,-3.0411,-3.0248,-3.0431,-3.0654,-3.0889,-3.081,-3.0431,-2.9679,-2.8254,-2.7084,-2.6314,-2.5125,-2.4291,-2.3822,-2.3888,-2.4012,-2.4281,-2.3929,0.0,-2.598,-2.4432,-2.4378,-2.5067,-2.2837,-2.1652,-2.1153,-2.0424,-1.9973,-1.9773,0.0,0.0,0.0,0.0,0.0,0.0,0.0,0.0,0.0,0.0,0.0,0.0098,0.0335,0.0553,0.067,0.0,0.0,0.0,0.0,0.0,0.0,-0.0336,-0.0755,-0.099,-0.099,-0.1408,-0.1759,-0.1997,0.0,-0.2464,-0.2703,-0.314,-0.3576,-0.4013,-0.4443,-0.5058,-0.5717,-0.513,-0.5007,-0.5199,-0.4613,-0.4265,-0.4095,-0.3851,0.0,0.0,-0.5149,-0.6012,-0.7272,-1.0391,-1.2913,-1.5683,-2.0891,-2.3704,-2.5077,-2.4814,-2.583,-2.6875,-2.625,-2.6699,-2.7148,-2.6289,-2.4922,-2.2906,-1.9448,-1.6756,-1.3901,-1.0298,-0.8877,-0.829,-0.8179,-0.9217,-1.1495,-1.574,-1.7252,-1.9247,-2.3071,-2.4891,-2.6291,-2.751,-2.7741,-2.8322,-2.9729,-2.8778,-2.8552,-2.9758,-2.9863,-3.0166,-3.0859,-3.0889,-3.0889,-3.0889,-3.0889,-3.0781,-3.0566,-2.9842,-2.9172,-2.8484,-2.7785,-2.7225,-2.6826,-2.6562,-2.6689,-2.7107,-2.6644,-2.6857,-2.7478,-2.6747,-2.6163,-2.5622,-2.4763,-2.3348,-2.1799,-2.1706,-2.0988,-2.0087,0.0,0.0,0.0,0.0,0.0,0.0,0.0,0.0,0.0,0.0,0.0161,0.0416,0.0785,0.103,0.1206,0.0,0.0,0.0,0.0,0.0,0.0,0.0,0.0,0.0,-0.0555,0.0,0.0,-0.1728,-0.1914,0.0,0.0,0.0,0.0,0.0,-0.4089,-0.4716,-0.5507,-0.5068,-0.5148,0.0,0.0,-0.4597,-0.4502,0.0,0.0,0.0,0.0,-0.5959,-0.6744,-0.8952,-1.0756,-1.3075,-1.8652,-2.1931,-2.3825,-2.4161,-2.5295,-2.6437,-2.6512,-2.7012,-2.7324,-2.6465,-2.4722,-2.1964,-1.7132,-1.464,-1.2202,-0.8121,-0.7332,-0.7399,-0.7411,-0.828,-1.0198,-1.3867,-1.4946,-1.714,-2.2284,-2.357,-2.4996,-2.7842,-2.8222,-2.8536,-2.9241,-2.8687,-2.8555,-2.9251,-2.9346,-2.9795,-3.083,-3.0889,-3.0889,-3.0889,-3.0889,-3.0889,-3.0889,-3.0889,-3.0654,-3.0195,-3.0195,-2.9971,-2.9616,-2.9219,-2.9297,-2.9678,-2.915,-2.873,-2.8447,-2.8682,-2.7657,-2.5923,-2.6553,-2.5003,-2.2561,-2.3029,-2.1958,-2.0401,0.0,0.0,0.0,0.0,0.0,0.0,0.0,0.0,0.0,0.0,0.0686,0.1192,0.1249,0.0951,0.0906,0.0,0.0,0.0,0.0,0.0,0.0,0.0,0.0,0.0,0.0,0.0,0.0,-0.0823,-0.1611,0.0,0.0,0.0,0.0,0.0,0.0,-0.357,-0.3383,-0.3515,0.0,0.0,0.0,0.0,0.0,0.0,0.0,0.0,0.0,-0.5524,-0.6019,-0.7587,-0.9137,-1.0751,-1.2736,-1.6133,-1.9638,-2.1072,-2.295,-2.4911,-2.6485,-2.7012,-2.6875,-2.5966,-2.3518,-2.0588,-1.771,-1.436,-1.1177,-0.87,-0.7572,-0.7397,-0.8526,-0.9261,-1.0706,-1.3827,-1.4036,-1.5377,-1.9911,-2.1621,-2.3738,-2.7308,-2.6748,-2.7285,-3.0392,-2.7935,-2.7377,-3.0499,-3.0713,-3.0762,-3.0889,-3.0889,-3.0889,-3.0889,-3.0889,-3.0889,-3.0889,-3.0889,-3.0654,-3.0195,-3.0195,-2.9971,-2.9626,-2.9587,-2.9736,-3.0098,-2.9277,-2.8896,0.0,-2.8496,-2.8023,-2.7458,-2.7196,-2.5812,-2.4039,-2.3711,-2.2348,-2.0681,0.0,0.0,0.0,0.0,0.0,0.0,0.0132,0.0,0.0,0.0,0.0306,0.0724,0.124,0.1154,0.1356,0.2075,0.0,0.0,0.0,0.0,0.0,0.0,0.0,0.0,0.0,0.0,-0.042,-0.0706,-0.1041,0.0,0.0,0.0,0.0,0.0,0.0,-0.3432,-0.3625,-0.3342,0.0,0.0,0.0,0.0,0.0,0.0,0.0,0.0,0.0,0.0,-0.5544,-0.6139,-0.699,-0.7868,-0.8239,-1.0155,-1.2964,-1.6554,-2.0039,-2.2934,-2.3966,-2.5562,-2.6594,-2.5022,-2.2852,-1.9993,-1.5806,-1.3024,-1.0614,-0.8056,-0.7239,-0.7142,-0.7663,-0.8253,-0.9494,-1.2032,-1.256,-1.4378,-1.9306,-2.0948,-2.3289,-2.7933,-2.8006,-2.8441,-3.036,-2.8775,-2.825,-2.9583,-2.9707,-3.0049,-3.085,-3.0889,-3.0889,-3.0889,-3.0889,-3.0889,-3.0889,-3.0889,-3.0801,-3.0615,-3.0615,-3.0527,-3.0342,-2.9814,-2.9951,-3.0566,-2.9687,-2.8877,0.0,-2.8818,-2.8203,-2.7019,-2.8182,-2.6966,-2.4563,-2.4948,-2.3291,-2.0955,0.0,0.0,0.0,0.0,0.0,0.1048,0.0322,0.0092,0.0,0.0,0.0223,0.0625,0.1236,0.1555,0.1973,0.2646,0.2397,0.0,0.0,0.0,0.0,0.0,0.0,0.0,0.0,0.0,0.0051,-0.0293,-0.0568,-0.0843,0.0,0.0,-0.2063,-0.2167,0.0,0.0,0.0,0.0,0.0,0.0,0.0,0.0,0.0,0.0,0.0,0.0,0.0,0.0,0.0,0.0,0.0,-0.5894,-0.5651,-0.6347,-0.8119,-1.2596,-1.6991,-2.0588,-2.1556,-2.4069,-2.5952,-2.4012,-2.1717,-1.8749,-1.4201,-1.1615,-0.9533,-0.733,-0.6873,-0.69,-0.6986,-0.7489,-0.8623,-1.0845,-1.1879,-1.4054,-1.8874,-2.041,-2.2651,-2.7123,-2.7915,-2.8475,-2.9609,-2.9355,-2.9111,-2.9111,-2.9228,-2.9707,-3.0635,-3.081,-3.0889,-3.0889,-3.0889,-3.0889,-3.0889,-3.0889,-3.0889,-3.0889,-3.0889,-3.0752,-3.0488,-2.998,-3.0029,-3.0469,-2.99,-2.9117,0.0,-2.9062,-2.8418,-2.7129,-2.8887,-2.7871,-2.5461,-2.5832,-2.4217,-2.179,0.0,0.0,0.0,0.0,0.0,0.0,0.0753,0.0293,0.0,0.0,0.0751,0.1286,0.1298,0.2125,0.2696,0.2696,0.2696,0.0,0.0,0.0,0.0,0.0,0.0,0.0,0.0,0.0,0.0691,0.0692,-0.0237,-0.071,-0.0711,-0.132,-0.1745,-0.201,0.0,0.0,0.0,0.0,0.0,0.0,0.0,0.0,-0.3213,0.0,0.0,0.0,0.0,0.0,0.0,0.0,0.0,0.0,0.0,-0.5491,-0.6378,-0.9684,-1.3814,-1.7807,-1.9857,-2.2711,-2.4734,-2.3006,-1.9851,-1.6368,-1.3482,-1.0267,-0.7689,-0.678,-0.6613,-0.668,-0.6946,-0.7489,-0.8623,-1.0845,-1.236,-1.456,-1.8208,-1.9803,-2.1574,-2.4131,-2.5442,-2.6736,-2.8196,-2.9117,-2.956,-2.956,-2.9941,-3.0185,-3.0205,-3.0644,-3.0889,-3.0889,-3.0889,-3.0889,-3.0889,-3.0889,-3.0889,-3.0889,-3.0889,-3.043,-2.9655,-3.0,-2.9971,-2.9636,-2.957,-2.956,0.0,-2.9092,-2.8672,-2.8359,-2.9228,-2.8578,-2.6991,-2.626,-2.4955,-2.3333,0.0,0.0,0.0,0.0,0.0,0.0,0.0,0.0979,0.0894,0.0895,0.1124,0.1427,0.174,0.2045,0.2347,0.2679,0.2696,0.0,0.0,0.0,0.0,0.0,0.0,0.0,0.0,0.0906,0.0699,0.0693,0.0076,-0.023,-0.023,-0.0738,-0.1038,-0.1139,-0.1946,-0.2321,0.0,0.0,0.0,0.0,0.0,-0.3378,-0.3276,0.0,0.0,0.0,0.0,0.0,0.0,0.0,0.0,0.0,0.0,0.0,0.0,-0.6886,-0.9915,-1.3195,-1.4775,-1.6965,-1.8504,-1.7111,-1.5413,-1.334,-1.0675,-0.8797,-0.7444,-0.6754,-0.6606,-0.668,-0.6946,-0.7793,-0.9254,-1.1705,-1.3341,-1.5802,-2.0102,-2.1139,-2.2955,-2.6945,-2.8851,-2.9692,-2.9247,-2.9141,-2.9365,-2.9961,-2.9316,-2.9277,-3.0146,-3.0059,-3.0117,-3.04,-3.0723,-3.0742,-3.042,-3.0732,-3.0889,-3.0889,-3.0566,-3.0117,-2.957,-2.9707,-2.9531,-2.9141,-2.9443,-2.9238,-2.8711,-2.8857,-2.8506,-2.7978,-2.9121,-2.8578,-2.6991,-2.6252,-2.4955,-2.3387,0.0,0.0,0.0,0.0,0.0,0.0,0.0,0.1406,0.1305,0.1305,0.1457,0.1676,0.1964,0.2164,0.238,0.2679,0.2696,0.0,0.0,0.0,0.0,0.0,0.0,0.0,0.1573,0.1145,0.0857,0.0693,0.023,0.0,0.0,-0.0299,-0.0537,-0.0723,-0.1347,-0.1718,0.0,0.0,0.0,0.0,-0.3144,-0.343,-0.3644,0.0,0.0,0.0,0.0,0.0,0.0,0.0,0.0,0.0,0.0,0.0,0.0,0.0,-0.7053,-0.9171,-1.1258,-1.3511,-1.4977,-1.3882,-1.2726,-1.1305,-0.926,-0.7943,-0.7055,-0.6687,-0.7023,-0.7389,-0.7349,-0.8638,-1.02,-1.1638,-1.3791,-1.6337,-1.9332,-2.0851,-2.3099,-2.703,-2.8754,-2.9682,-2.9703,-2.91,-2.9043,-2.9893,-2.9072,-2.8877,-2.9678,-2.9619,-2.9609,-2.9707,-3.0312,-3.0488,-3.0195,-3.0664,-3.0801,-3.0625,-3.0518,-2.998,-2.9101,-2.9424,-2.9248,-2.8711,-2.9131,-2.9111,0.0,-2.8877,-2.8711,-2.8501,-2.9082,-2.8877,-2.8042,-2.6381,-2.5201,-2.417,0.0,0.0,0.0,0.0,0.0,0.0,0.0,0.1676,0.1405,0.1405,0.1776,0.2047,0.2047,0.243,0.2696,0.2696,0.0,0.0,0.0,0.0,0.0,0.0,0.0,0.0,0.2014,0.1546,0.1108,0.0696,0.023,0.0,0.0,0.0,-0.0225,-0.0648,-0.0687,-0.0964,-0.1442,0.0,0.0,0.0,-0.3078,-0.3706,0.0,0.0,0.0,0.0,0.0,0.0,0.0,0.0,0.0,0.0,0.0,0.0,0.0,0.0,0.0,0.0,0.0,-1.1687,-1.3389,-1.2512,-1.1249,-0.9969,-0.8861,-0.7535,0.0,-0.6653,-0.7756,-0.8572,-0.8172,-0.9998,-1.1481,-1.1214,-1.4072,-1.651,-1.702,-1.9711,-2.2537,-2.5101,-2.6072,-2.741,-2.9425,-2.889,-2.8701,-2.9463,-2.915,-2.8916,-2.8916,-2.9277,-2.9297,-2.8887,-2.9678,-3.0117,-3.0156,-3.0615,-3.0596,-3.0107,-3.0547,-2.9853,-2.8232,-2.9121,-2.9062,0.0,-2.876,-2.918,-2.9492,-2.9082,-2.916,-2.9482,-2.9082,-2.9404,-2.9699,-2.648,-2.5586,-2.5518,0.0,0.0,0.0,0.0,0.0,0.0,0.0,0.0,0.0,0.0,0.246,0.253,0.253,0.263,0.2696,0.0,0.0,0.0,0.0,0.0,0.0,0.0,0.0,0.0,0.2014,0.1535,0.1096,0.0692,0.0234,0.0,0.0,0.0,-0.0061,-0.0186,-0.064,-0.1427,-0.2378,-0.2531,0.0,0.0,-0.3907,-0.4096,0.0,0.0,0.0,0.0,-0.5502,-0.5724,0.0,0.0,0.0,0.0,0.0,0.0,0.0,0.0,-0.5293,-0.5465,-0.6243,0.0,-0.7641,-0.7423,-0.7099,-0.6854,0.0,-0.6352,-0.6172,-0.7095,-0.8041,-0.8973,-0.9886,-1.1872,-1.3684,-1.4569,-1.6862,-1.9085,-2.0694,-2.3505,-2.537,-2.5172,-2.7017,-2.8035,-2.731,-2.8461,-2.9209,-2.9082,-2.8975,-2.8916,-2.8916,-2.8711,-2.8545,-2.8437,-2.8945,-2.9385,-2.9717,-3.0146,-2.9971,-2.9219,-2.9336,-2.8662,-2.7353,-2.8535,-2.8613,-2.7924,-2.8945,-2.9287,-2.9062,-2.8965,-2.8975,-2.9062,-2.8955,-2.9043,-2.8889,-2.6291,-2.537,-2.5064,0.0,0.0,0.0,0.0,0.0,0.0,0.0,0.0,0.0,0.0,0.0,0.2696,0.2696,0.2696,0.0,0.0,0.0,0.0,0.0,0.0,0.0,0.0,0.0,0.2377,0.1692,0.143,0.0993,0.0379,0.0119,0.0,0.0,0.0,0.0,-0.0021,-0.0344,-0.0974,-0.1794,-0.1972,-0.247,-0.3141,-0.3615,0.0,0.0,0.0,0.0,0.0,-0.6154,-0.615,0.0,-0.5812,-0.5524,-0.5293,0.0,0.0,0.0,0.0,-0.5293,-0.5327,-0.5444,-0.5691,-0.603,-0.642,-0.6413,-0.6466,-0.7062,-0.6727,-0.6553,-0.7488,-0.8693,-0.9808,-1.0611,-1.2739,-1.4819,-1.6227,-1.7718,-1.9729,-2.2685,-2.4682,-2.593,-2.6145,-2.6893,-2.7402,-2.7275,-2.831,-2.8965,-2.8926,-2.874,-2.8633,-2.8633,-2.8418,-2.8291,-2.8291,-2.8701,-2.9033,-2.9268,-2.9697,-2.9482,-2.8633,-2.9033,-2.8555,-2.7353,-2.8428,-2.8564,-2.7969,-2.8271,-2.8486,-2.8603,-2.8203,-2.8389,-2.8896,-2.8711,-2.8877,-2.887,-2.6035,-2.5113,-2.4891,0.0,0.0,0.0,0.0,0.0,0.0,0.0,0.0,0.0,0.0,0.0,0.0,0.0,0.0,0.0,0.0,0.0,0.0,0.0,0.0,0.0,0.0,0.2596,0.2183,0.1321,0.1241,0.0806,0.0,0.0,0.0,0.0,0.0,0.0,0.0,-0.0087,-0.0415,-0.0886,-0.134,-0.1962,-0.2699,-0.3139,0.0,0.0,0.0,0.0,0.0,0.0,0.0,0.0,-0.5798,-0.5524,-0.5293,-0.5293,0.0,0.0,0.0,0.0,0.0,-0.5691,-0.622,-0.6836,-0.7472,-0.7402,-0.74,-0.8297,-0.7852,-0.7434,-0.815,-0.9663,-1.0971,-1.1351,-1.3829,-1.6144,-1.709,-1.8167,-2.0242,-2.4064,-2.5029,-2.579,-2.6977,-2.6523,-2.6621,-2.7881,-2.8174,-2.8437,-2.8799,-2.8496,-2.8291,-2.8291,-2.8495,-2.8495,-2.8291,-2.9055,-2.9233,-2.8818,-2.9248,-2.9043,-2.8203,-2.8994,-2.8794,-2.7598,-2.8437,-2.8633,-2.8252,0.0,0.0,-2.8242,-2.7578,-2.79,-2.8789,-2.8428,-2.873,-2.9032,-2.6082,-2.5069,-2.473,0.0,0.0,0.0,0.0,0.0,0.0,0.0,0.0,0.0,0.0,0.0,0.0,0.0,0.0,0.0,0.0,0.0,0.0,0.0,0.0,0.0,0.2131,0.2114,0.185,0.1307,0.096,0.0532,0.0,0.0,0.0,0.0,0.0,0.0,-0.002,-0.0541,-0.1076,-0.1679,-0.2236,-0.2854,-0.3475,-0.4001,0.0,0.0,0.0,0.0,0.0,0.0,0.0,0.0,-0.5708,-0.5524,-0.5293,-0.5293,0.0,0.0,0.0,0.0,0.0,-0.5974,-0.7444,-0.8719,-0.8288,-0.8046,-0.8113,-0.8821,-0.8626,-0.8618,-0.9836,-1.1121,-1.2498,-1.4002,-1.7719,-1.9965,-1.8167,-2.0741,-2.3826,-2.6165,-2.7273,-2.7398,-2.611,-2.7114,-2.7578,-2.6758,-2.7656,-2.832,-2.8389,-2.833,-2.8291,-2.8291,-2.9355,-2.946,-2.8344,-3.0536,-3.0672,-2.8389,-2.8809,-2.8594,-2.7826,-2.8252,-2.8008,-2.7148,-2.7998,-2.8359,-2.8301,0.0,-2.8496,-2.831,-2.8535,-2.8535,-2.8389,-2.831,-2.8369,-2.8309,-2.6799,-2.5469,-2.4071,0.0,0.0,0.0,0.0,0.0,0.0,0.0,0.0,0.0,0.0,0.0,0.0,0.0,0.0,0.0,0.0,0.0,0.0,0.0,0.0,0.2216,0.2007,0.1299,0.0812,0.0607,0.0411,-0.0019,-0.0701,-0.0707,-0.0699,-0.0696,-0.0812,-0.0552,-0.0041,-0.098,-0.1494,-0.1726,-0.2229,-0.2788,-0.3351,0.0,0.0,0.0,0.0,0.0,0.0,0.0,0.0,0.0,0.0,-0.5625,-0.5511,-0.5511,0.0,0.0,0.0,0.0,0.0,-0.6651,-0.7833,-0.9209,-1.0651,-1.0677,-1.0598,-1.1453,-1.0776,-1.0417,-1.2057,-1.2635,-1.3405,-1.5196,-1.7992,-2.0168,-2.0653,-2.4054,-2.6681,-2.676,-2.7186,-2.7326,-2.6972,-2.7161,-2.7217,-2.709,-2.7812,-2.8291,-2.8291,-2.8291,-2.8291,-2.8291,-2.868,-2.9059,-2.9345,-3.0384,-3.0425,-2.9408,-2.9558,-2.8976,-2.7718,-2.8096,-2.7969,-2.7393,-2.8008,-2.8291,-2.8271,0.0,-2.8047,-2.8271,-2.8008,-2.8047,-2.8291,-2.8291,-2.8291,-2.8179,-2.6967,-2.5648,-2.4333,0.0,0.0,0.0,0.0,0.0,0.0,0.0,0.0,0.0,0.0,0.0,0.0,0.0,0.0,0.0,0.0,0.0,0.0,0.0,0.2011,0.1636,0.1489,0.0427,-0.0117,0.0,-0.0194,-0.0638,-0.1293,-0.1291,-0.1256,-0.1161,-0.1466,-0.1107,-0.0269,-0.1469,-0.1957,-0.1889,-0.2289,-0.2719,-0.3151,0.0,0.0,0.0,0.0,0.0,0.0,0.0,0.0,0.0,0.0,0.0,0.0,0.0,0.0,0.0,-0.6196,-0.6196,-0.64,-0.7285,-0.8257,-0.9701,-1.2437,-1.2636,-1.2593,-1.4179,-1.3125,-1.2401,-1.4414,-1.4567,-1.4826,-1.6535,-1.8151,-2.0279,-2.3551,-2.6674,-2.8405,-2.7468,-2.7468,-2.7658,-2.8019,-2.7352,-2.709,-2.7806,-2.8105,-2.8291,-2.8291,-2.8291,-2.8252,-2.8144,-2.8199,-2.861,-2.9487,-2.9859,-2.9849,-2.9539,-2.9848,-2.9281,-2.7812,-2.8135,-2.8125,-2.7822,-2.8144,-2.8291,-2.8252,-2.7598,-2.7685,-2.8242,-2.7588,-2.7705,-2.8291,-2.8291,-2.8291,-2.816,-2.6857,-2.5843,-2.4993,0.0,0.0,0.0,0.0,0.0,0.0,0.0,0.0,0.0,0.0,0.0,0.0,0.0,0.0,0.0,0.0,0.0,0.0,0.0,0.1255,0.0546,-0.0018,-0.0428,-0.0451,-0.0017,-0.0794,-0.1245,-0.1304,-0.1305,-0.1102,-0.0762,-0.1338,-0.1331,-0.0886,-0.2106,-0.262,-0.2654,-0.3055,-0.3248,-0.3279,-0.3158,0.0,0.0,0.0,0.0,0.0,0.0,0.0,0.0,0.0,0.0,0.0,0.0,0.0,-0.6196,-0.6196,-0.6196,-0.6448,-0.756,-0.9233,-1.0933,-1.2248,-1.2193,-1.2707,-1.6004,-1.5122,-1.4316,-1.6842,-1.73,-1.7659,-1.8853,-2.0147,-2.2342,-2.6358,-2.7473,-2.8169,-2.9157,-2.9752,-2.959,-2.84,-2.8207,-2.8174,-2.8242,-2.8271,-2.8291,-2.8291,-2.8291,-2.8125,-2.7787,-2.8921,-2.8819,-2.7314,-2.9638,-2.9736,-2.7253,-2.8459,-2.8819,-2.8252,-2.8281,-2.8271,-2.8252,-2.8281,-2.8291,-2.8291,-2.8223,-2.8232,-2.8291,-2.8223,-2.8232,-2.8291,-2.8291,-2.8291,-2.813,-2.669,-2.6045,-2.5789,0.0,0.0,0.0,0.0,0.0,0.0,0.0,0.0,0.0,0.0,0.0,0.0,0.0,0.0,0.0,0.0,0.0,0.0,0.0,0.0677,0.0036,-0.019,-0.1242,-0.1746,-0.1564,-0.167,-0.1885,-0.2172,-0.2162,-0.1791,-0.1094,-0.2078,-0.1948,-0.0962,-0.2546,-0.2993,-0.261,-0.3006,-0.3135,-0.305,-0.2993,-0.3084,0.0,0.0,0.0,0.0,0.0,0.0,0.0,0.0,-0.6204,-0.6445,-0.6445,-0.6566,-0.6693,-0.6693,-0.6693,-0.6942,-0.8082,-0.9692,-1.1501,-1.3435,-1.3811,-1.443,-1.7321,-1.7183,-1.7154,-1.9736,-1.9611,-1.9254,-1.9962,-2.1367,-2.3051,-2.5156,-2.6276,-2.7251,-2.8256,-2.8547,-2.8511,-2.8006,-2.791,-2.791,-2.791,-2.7656,-2.7607,-2.7881,-2.7656,-2.7432,-2.7266,-2.75,-2.7834,-2.8216,-2.8964,-2.9002,-2.8266,-2.8755,-2.8491,-2.75,-2.7773,-2.8047,-2.8281,-2.8027,-2.8047,-2.8281,-2.8018,-2.791,-2.791,-2.791,-2.791,-2.793,-2.8193,-2.8291,-2.8237,-2.7672,-2.7447,-2.7394,0.0,0.0,0.0,0.0,0.0,0.0,0.0,0.0,0.0,0.0,0.0,0.0,0.0,0.0,0.0,0.0,0.0,0.0,0.1138,0.0019,-0.0668,-0.0704,-0.1972,-0.2713,-0.276,-0.2443,-0.2444,-0.2771,-0.272,-0.2344,-0.1692,-0.2651,-0.2499,-0.1458,-0.2943,-0.3277,-0.2778,-0.3007,-0.3044,-0.2949,-0.2873,-0.2905,0.0,0.0,0.0,0.0,0.0,0.0,0.0,0.0,-0.6506,-0.6727,-0.6727,-0.684,-0.7,-0.7,-0.7133,-0.7482,-0.8451,-0.987,-1.1619,-1.383,-1.4687,-1.5771,-1.8734,-1.8809,-1.9023,-2.1894,-2.1875,-2.1299,-2.1201,-2.2363,-2.3535,-2.4121,-2.5322,-2.6484,-2.7344,-2.7461,-2.7461,-2.7461,-2.7461,-2.7461,-2.7461,-2.7197,-2.7139,-2.7432,-2.7187,-2.6953,-2.6826,-2.6416,-2.6675,-2.7719,-2.7479,-2.7517,-2.7768,-2.7863,-2.7591,-2.6816,-2.7119,-2.748,-2.7881,-2.7588,-2.7617,-2.7871,-2.7588,-2.7461,-2.7461,-2.7461,-2.7591,-2.7748,-2.7988,-2.8174,-2.8291,-2.8291,-2.8291,-2.8291,0.0,0.0,0.0,0.0,0.0,0.0,0.0,0.0,0.0,0.0,0.0,0.0,0.0,0.0,0.0,0.0,0.0,0.0,0.0693,-0.0743,-0.1658,-0.1795,-0.2643,-0.3155,-0.3285,-0.3025,-0.2895,-0.2892,-0.2774,-0.2639,-0.2501,-0.2908,-0.2888,-0.2534,-0.3272,-0.3493,-0.3296,-0.3168,-0.3101,-0.3074,-0.2798,-0.294,-0.3294,0.0,0.0,0.0,0.0,0.0,0.0,0.0,-0.6787,-0.7,-0.7,-0.7006,-0.7006,-0.7006,-0.7426,-0.8015,-0.8561,-0.9717,-1.1255,-1.3068,-1.4473,-1.6445,-2.0294,-1.9902,-1.9695,-2.3129,-2.4121,-2.4023,-2.2744,-2.3213,-2.3789,-2.3789,-2.4873,-2.5976,-2.6885,-2.7002,-2.7002,-2.7012,-2.7012,-2.7012,-2.7012,-2.7002,-2.7002,-2.7012,-2.7002,-2.6816,-2.6396,-2.5967,-2.5518,-2.5125,-2.5106,-2.5106,-2.5116,-2.5508,-2.5947,-2.6387,-2.6387,-2.6602,-2.7012,-2.7012,-2.7012,-2.7012,-2.7012,-2.7012,-2.7012,-2.7012,-2.7266,-2.7708,-2.7718,-2.792,-2.8281,-2.8291,-2.8291,-2.8281,0.0,0.0,0.0,0.0,0.0,0.0,0.0,0.0,0.0,0.0,0.0,0.0,0.0,0.0,0.0,0.0,0.0,0.0,0.0231,-0.102,-0.1752,-0.1797,-0.2444,-0.2829,-0.2887,-0.2715,-0.2708,-0.2892,-0.2862,-0.2643,-0.2304,-0.2847,-0.288,-0.2532,-0.3274,-0.3518,-0.3368,-0.332,-0.318,-0.2936,-0.2778,-0.2829,-0.3063,0.0,0.0,0.0,0.0,0.0,0.0,0.0,0.0,0.0,-0.7,-0.7168,-0.7357,-0.7357,-0.751,-0.7874,-0.8757,-0.9874,-1.1385,-1.382,-1.5381,-1.6999,-1.966,-2.1012,-2.2276,-2.4459,-2.4406,-2.3682,-2.2695,-2.3213,-2.3789,-2.3789,-2.4121,-2.4883,-2.6367,-2.6309,-2.623,-2.6533,-2.6572,-2.6572,-2.6572,-2.6299,-2.624,-2.6553,-2.5996,-2.5586,-2.5517,-2.5049,-2.4746,-2.4609,-2.4609,-2.4756,-2.5106,-2.5205,-2.5488,-2.5937,-2.5937,-2.6309,-2.7002,-2.6709,-2.6738,-2.6992,-2.6699,-2.6572,-2.6572,-2.6572,-2.665,-2.6826,-2.7483,-2.7559,-2.7471,-2.8066,-2.8105,-2.7891,0.0,0.0,0.0,0.0,0.0,0.0,0.0,0.0,0.0,0.0,0.3067,0.2983,0.0,0.0,0.0,0.0,0.0,0.0,0.0,-0.1133,-0.1696,-0.146,-0.2485,-0.3011,-0.2935,-0.2863,-0.2916,-0.3102,-0.3025,-0.2857,-0.2648,-0.2952,-0.2943,-0.2685,-0.3186,-0.3347,-0.3276,-0.3218,-0.3107,-0.2963,-0.2832,-0.2825,-0.2949,0.0,0.0,0.0,0.0,0.0,0.0,0.0,0.0,0.0,-0.6937,-0.7228,-0.7466,-0.7209,-0.7539,-0.8139,-0.9027,-1.0432,-1.2315,-1.5128,-1.6533,-1.7943,-2.0695,-2.2341,-2.3708,-2.5208,-2.5003,-2.4297,-2.3428,-2.3691,-2.3984,-2.3818,-2.3935,-2.4404,-2.5459,-2.5381,-2.5312,-2.5576,-2.5605,-2.5605,-2.5605,-2.5371,-2.5322,-2.5586,-2.5107,-2.4805,-2.4805,-2.4394,-2.417,-2.417,-2.417,-2.4297,-2.4607,-2.4949,-2.5117,-2.5167,-2.5391,-2.5654,-2.5986,-2.6084,-2.6074,-2.5977,-2.5898,-2.5869,-2.5879,-2.6055,-2.623,-2.6435,-2.6963,-2.71,-2.708,-2.7598,-2.7734,-2.7748,0.0,0.0,0.0,0.0,0.0,0.0,0.0,0.0,0.0,0.0,0.3175,0.3047,0.0,0.0,0.0,0.0,0.0,0.0,0.0,-0.1134,-0.1555,-0.1006,-0.2613,-0.3423,-0.3246,-0.3243,-0.3305,-0.3413,-0.3219,-0.3192,-0.3303,-0.3172,-0.304,-0.2936,-0.3064,-0.3128,-0.3135,-0.3007,-0.3017,-0.3111,-0.2969,-0.2919,-0.3001,-0.3555,0.0,0.0,0.0,0.0,0.0,0.0,0.0,0.0,-0.6729,-0.7145,-0.7337,-0.6774,-0.7521,-0.8663,-0.9401,-1.121,-1.3619,-1.6582,-1.7793,-1.9181,-2.2716,-2.3654,-2.4137,-2.5447,-2.5634,-2.5274,-2.456,-2.4385,-2.4248,-2.3906,-2.4102,-2.4326,-2.4404,-2.4385,-2.4375,-2.4414,-2.4414,-2.4414,-2.4414,-2.4414,-2.4414,-2.4414,-2.4385,-2.4365,-2.4365,-2.3965,-2.373,-2.373,-2.373,-2.375,-2.3789,-2.4607,-2.4775,-2.4424,-2.4814,-2.4775,-2.4385,-2.5187,-2.5128,-2.4443,-2.4834,-2.5077,-2.5145,-2.5508,-2.5937,-2.6338,-2.6367,-2.6602,-2.6853,-2.682,-2.7133,-2.7559,0.0,0.0,0.0,0.0,0.0,0.0,0.0,0.0,0.0,0.0,0.0,0.0,0.0,0.0,0.0,0.0,0.0,0.0,0.0,-0.1121,-0.1744,-0.1604,-0.243,-0.2863,-0.2835,-0.2835,-0.3059,-0.3552,-0.3354,-0.3296,-0.3368,-0.3191,-0.3148,-0.3216,-0.3307,-0.3389,-0.3501,-0.3471,-0.3385,-0.3246,-0.3118,-0.3128,-0.3239,-0.3351,-0.3485,0.0,0.0,0.0,0.0,0.0,0.0,0.0,-0.5975,-0.6508,-0.7047,-0.6693,-0.7574,-0.8902,-1.0049,-1.1608,-1.3551,-1.6201,-1.8457,-2.0683,-2.3186,-2.3496,-2.3767,-2.563,-2.5067,-2.4258,-2.4394,-2.415,-2.4004,-2.4248,-2.3754,-2.3608,-2.4326,-2.4131,-2.4043,-2.4375,-2.4414,-2.4414,-2.4414,-2.4414,-2.4414,-2.4414,-2.4111,-2.3926,-2.3926,-2.3516,-2.3237,-2.3237,-2.3237,-2.3437,-2.3789,-2.3975,-2.418,-2.4414,-2.4512,-2.4336,-2.3945,-2.4463,-2.46,-2.4424,-2.4521,-2.4756,-2.5125,-2.5176,-2.5469,-2.5908,-2.625,-2.623,-2.5936,-2.5591,-2.595,-2.6548,0.0,0.0,0.0,0.0,0.0,0.0,0.0,0.0,0.0,0.0,0.0,0.0,0.0,0.0,0.0,0.0,0.0,0.0,0.0,0.0,-0.2049,-0.2632,-0.2674,-0.2829,-0.3126,-0.3126,-0.3284,-0.3604,-0.3497,-0.357,-0.3781,-0.3407,-0.3392,-0.3615,-0.3379,-0.3327,-0.3441,-0.3392,-0.3354,-0.3344,-0.3242,-0.3236,-0.3316,-0.3411,-0.3459,-0.3534,-0.3891,0.0,0.0,0.0,0.0,0.0,0.0,0.0,-0.6727,-0.6299,-0.7367,-0.8881,-0.9666,-1.1938,-1.4814,-1.7822,-2.0195,-2.2041,-2.2969,-2.3154,-2.3452,-2.473,-2.45,-2.4092,-2.4111,-2.3935,-2.3799,-2.3799,-2.3383,-2.3247,-2.3695,-2.3623,-2.3564,-2.3734,-2.3764,-2.3764,-2.3764,-2.3764,-2.3764,-2.3764,-2.3603,-2.3477,-2.3477,-2.3218,-2.3091,-2.3091,-2.3091,-2.3198,-2.3477,-2.3682,-2.3799,-2.3764,-2.4014,-2.3896,-2.3486,-2.3656,-2.3916,-2.4111,-2.4111,-2.4248,-2.4473,-2.4678,-2.5019,-2.542,-2.5439,-2.516,-2.4686,-2.4245,-2.4184,-2.4476,0.0,0.0,0.0,0.0,0.0,0.0,0.0,0.0,0.0,0.0,0.0,0.0,0.0,0.0,0.0,0.0,0.0,0.0,0.0,0.0,0.0,-0.3556,-0.3126,-0.3078,-0.3578,-0.3604,-0.3604,-0.3604,-0.3604,-0.3931,-0.454,-0.3913,-0.3812,-0.41,-0.362,-0.3378,-0.3323,-0.3249,-0.3297,-0.3434,-0.3367,-0.3346,-0.336,-0.3531,-0.3604,-0.3604,-0.3604,-0.3583,-0.3608,-0.3957,0.0,0.0,0.0,0.0,-0.6257,-0.5774,-0.707,-0.873,-0.9099,-1.2348,-1.6416,-1.9686,-2.1582,-2.2604,-2.2451,-2.2734,-2.3091,-2.3496,-2.3906,-2.4092,-2.374,-2.3623,-2.3447,-2.3042,-2.2925,-2.2877,-2.2877,-2.2945,-2.2984,-2.2984,-2.3052,-2.3091,-2.3091,-2.3091,-2.3091,-2.3091,-2.3091,-2.3091,-2.3091,-2.3091,-2.3091,-2.3091,-2.3091,-2.3091,-2.3091,-2.3496,-2.3496,-2.3101,-2.3506,-2.3486,-2.3091,-2.3091,-2.3286,-2.3682,-2.3682,-2.3721,-2.3818,-2.417,-2.456,-2.4922,-2.456,-2.407,-2.3498,-2.2864,-2.2447,-2.2371,0.0,0.0,0.0,0.0,0.0,0.0,0.0,0.0,0.0,0.0,0.359,0.3571,0.0,0.0,0.0,0.0,0.0,0.0,0.0,0.0,0.0,-0.3556,-0.3534,-0.3512,-0.3604,-0.3604,-0.3604,-0.3604,-0.3604,-0.4399,-0.5923,-0.496,-0.4548,-0.4616,-0.4643,-0.418,-0.3409,-0.3624,-0.3665,-0.3573,-0.3573,-0.3551,-0.3573,-0.3593,-0.3604,-0.3604,-0.3604,-0.3493,-0.3354,-0.3461,-0.3782,0.0,0.0,0.0,-0.5313,-0.5333,-0.6809,-0.8609,-0.9402,-1.2991,-1.7077,-1.9424,-2.0459,-2.1134,-2.1807,-2.2295,-2.2607,-2.2666,-2.2974,-2.3247,-2.3198,-2.293,-2.2666,-2.2607,-2.2295,-2.2051,-2.2051,-2.2363,-2.2598,-2.2598,-2.2877,-2.3091,-2.3091,-2.3091,-2.3091,-2.3091,-2.3091,-2.3091,-2.3091,-2.3091,-2.3091,-2.3091,-2.3091,-2.3091,-2.3091,-2.3149,-2.3149,-2.3091,-2.3149,-2.3149,-2.3091,-2.3091,-2.312,-2.3179,-2.3179,-2.3437,-2.3799,-2.3857,-2.4121,-2.4502,-2.4443,-2.3843,-2.2965,-2.1714,-2.147,-2.1827,0.0,0.0,0.0,0.0,0.0,0.0,0.0,0.0,0.0,0.0,0.0,0.3604,0.0,0.0,0.0,0.183,0.1006,0.0224,-0.0471,-0.1318,-0.2186,-0.3056,-0.342,-0.3604,-0.3604,-0.3604,-0.3604,-0.3604,-0.3604,-0.4573,-0.6422,-0.5979,-0.572,-0.5658,-0.579,-0.5066,-0.3773,-0.4229,-0.4326,-0.4191,-0.3768,-0.3774,-0.4005,-0.3711,-0.3604,-0.359,-0.3483,-0.3441,-0.3453,-0.328,-0.3531,-0.3879,-0.3868,0.0,0.0,0.0,-0.6246,-0.8334,-1.1077,-1.3123,-1.5325,-1.9,-1.9697,-1.9902,-2.1523,-2.1836,-2.1865,-2.2109,-2.2305,-2.2578,-2.3013,-2.275,-2.251,-2.251,-2.2158,-2.1885,-2.1885,-2.2041,-2.2158,-2.2158,-2.2529,-2.274,-2.274,-2.2955,-2.3091,-2.3091,-2.3091,-2.3091,-2.3091,-2.3091,-2.3091,-2.3091,-2.2867,-2.2857,-2.3091,-2.2867,-2.2867,-2.3091,-2.3091,-2.3091,-2.3091,-2.3091,-2.3091,-2.3091,-2.3091,-2.3198,-2.3428,-2.3428,-2.3682,-2.4043,-2.3754,-2.2825,-2.1585,-2.0906,-2.0051,-1.933,0.0,0.0,0.0,0.0,0.0,0.0,0.0,0.0,0.0,0.0,0.0,0.0,0.0,0.0,0.0,0.0,0.1118,0.0224,-0.0827,-0.1474,-0.2073,-0.2672,-0.3284,-0.3604,-0.3604,-0.3604,-0.3604,-0.3604,-0.3638,-0.4545,-0.6268,-0.6618,-0.6597,-0.6307,-0.6535,-0.5668,-0.4037,-0.4678,-0.476,-0.4454,-0.4213,-0.4292,-0.4498,-0.4156,-0.3995,-0.3921,-0.384,-0.3769,-0.367,-0.3407,-0.3548,-0.376,-0.3579,-0.3969,0.0,0.0,0.0,-0.8009,-1.1522,-1.2498,-1.345,-1.7278,-1.81,-1.8437,-2.0176,-2.0664,-2.0869,-2.1299,-2.165,-2.208,-2.2662,-2.2428,-2.2227,-2.2334,-2.1904,-2.1553,-2.1553,-2.165,-2.1719,-2.1719,-2.209,-2.2393,-2.25,-2.275,-2.2935,-2.2935,-2.2935,-2.2886,-2.2779,-2.2822,-2.2822,-2.2822,-2.2617,-2.2607,-2.2779,-2.2617,-2.2676,-2.2935,-2.3042,-2.3091,-2.3091,-2.3091,-2.3091,-2.3091,-2.3091,-2.3091,-2.3091,-2.3091,-2.333,-2.3594,-2.3218,-2.2007,-2.0446,-2.0392,-1.9048,-1.7445,0.0,0.0,0.0,0.0,0.0,0.0,0.0,0.0,0.0,0.0,0.0,0.0,0.3604,0.2546,0.183,0.1808,0.0716,-0.0224,-0.0851,-0.1474,-0.2073,-0.2672,-0.3284,0.0,-0.3604,-0.3604,-0.3604,-0.3604,-0.3737,-0.434,-0.5397,-0.6664,-0.6813,-0.6039,-0.6566,-0.5749,-0.4044,-0.4792,-0.4614,-0.3952,-0.5116,-0.5291,-0.4905,-0.512,-0.5057,-0.4855,-0.5101,-0.4676,-0.3984,-0.3953,-0.3889,-0.3736,-0.3424,-0.3725,-0.4327,0.0,0.0,0.0,-0.9283,-1.0844,-1.2298,-1.3377,-1.4935,-1.6369,-1.6843,-1.8242,-1.9512,-1.9932,-2.1016,-2.1894,-2.1943,-2.1592,-2.1395,-2.1846,-2.1241,-2.0674,-2.0674,-2.1006,-2.1229,-2.1229,-2.165,-2.207,-2.2471,-2.2529,-2.2549,-2.2549,-2.2549,-2.2373,-2.1973,-2.1953,-2.1953,-2.1953,-2.2314,-2.2334,-2.1953,-2.2324,-2.2519,-2.2549,-2.2906,-2.3091,-2.3091,-2.3091,-2.3091,-2.3091,-2.3091,-2.3091,-2.3091,-2.3091,-2.311,-2.312,-2.3101,-2.1798,-1.995,-2.0302,-1.9048,-1.7445,0.0,0.0,0.0,0.0,0.0,0.0,0.0,0.0,0.0,0.0,0.0,0.0,0.0,0.1719,0.1228,0.1228,0.0471,-0.009,-0.0314,-0.1252,-0.1895,-0.2119,-0.3081,-0.3604,-0.3604,-0.3604,-0.3604,-0.3604,-0.3655,-0.4271,-0.5429,-0.5838,-0.6012,-0.6083,-0.8051,-0.725,-0.4553,-0.6192,-0.6033,-0.4715,-0.5639,-0.5716,-0.5305,-0.5478,-0.5498,-0.5404,-0.5238,-0.5132,-0.499,-0.4353,-0.4362,-0.4469,-0.3484,-0.404,-0.51,-0.5401,-0.6156,-0.7156,-0.8405,-0.8888,-0.9661,-1.2279,-1.2875,-1.3215,-1.4692,-1.6375,-1.7451,-1.6768,-1.8545,-2.0049,-1.9502,-2.0362,-2.1249,-2.1405,-2.0957,-2.0605,-2.0605,-2.0703,-2.0801,-2.0801,-2.1201,-2.1533,-2.1639,-2.1943,-2.2109,-2.2109,-2.1855,-2.1748,-2.1875,-2.1621,-2.1592,-2.1875,-2.1758,-2.158,-2.1434,-2.1894,-2.2109,-2.2119,-2.2539,-2.2691,-2.2691,-2.2691,-2.2838,-2.3081,-2.2808,-2.2847,-2.3091,-2.3091,-2.3091,-2.3091,-2.3091,-2.167,-1.9706,-2.0212,-1.8913,-1.7035,0.0,0.0,0.0,0.0,0.0,0.0,0.0,0.0,0.3081,0.2475,0.0,0.0,0.0,0.0,0.0828,0.0605,0.0224,0.0,0.0,-0.094,-0.1575,-0.1728,-0.2691,-0.3305,-0.35,-0.35,-0.3527,-0.3604,-0.3651,-0.4074,-0.4874,-0.5201,-0.5349,-0.5449,-0.796,-0.7605,-0.5247,-0.7106,-0.7046,-0.5742,-0.6705,-0.6775,-0.6328,-0.6539,-0.6532,-0.6435,-0.6367,-0.6265,-0.6083,-0.5562,-0.5469,-0.5408,-0.4329,-0.4611,-0.5343,-0.5239,-0.5801,-0.6572,-0.7079,-0.7398,-0.8118,-1.0372,-1.0696,-1.0888,-1.2406,-1.4337,-1.5625,-1.4932,-1.6963,-1.8682,-1.8115,-1.9143,-2.0255,-2.0683,-2.042,-2.0224,-2.037,-2.0263,-2.0282,-2.0566,-2.0576,-2.0713,-2.1151,-2.1357,-2.1504,-2.165,-2.1356,-2.1299,-2.1435,-2.1162,-2.1211,-2.165,-2.124,-2.1044,-2.119,-2.1523,-2.167,-2.167,-2.21,-2.2305,-2.2305,-2.2305,-2.2529,-2.2867,-2.2637,-2.2711,-2.3091,-2.3091,-2.3091,-2.3091,-2.3091,-2.1632,-1.9579,-2.0163,-1.8837,-1.6787,0.0,0.0,0.0,0.0,0.0,0.0,0.0,0.0,0.2448,0.1851,0.0,0.0,0.0,0.0,0.0,0.0045,0.0,0.0,0.0,-0.0558,-0.1095,-0.1553,-0.2157,-0.2722,-0.3265,-0.3292,-0.3386,-0.3604,-0.374,-0.374,-0.364,-0.4878,-0.4925,-0.41,-0.6144,-0.6691,-0.6124,-0.7378,-0.7477,-0.6902,-0.8281,-0.846,-0.7915,-0.8286,-0.8216,-0.7998,-0.8586,-0.8101,-0.7206,-0.7579,-0.7236,-0.6525,-0.5929,-0.547,-0.5033,-0.4435,-0.5206,-0.6056,0.0,0.0,0.0,-0.7454,-0.8412,-0.9513,-0.992,-1.2063,-1.4107,-1.4572,-1.6375,-1.7876,-1.792,-1.7949,-1.8379,-1.9619,-1.9512,-1.9414,-1.9834,-1.9541,-1.959,-2.0468,-1.9795,-1.9785,-2.1015,-2.0781,-2.0713,-2.1122,-2.1132,-2.0986,-2.0625,-2.0595,-2.0752,-2.1161,-2.0781,-2.0752,-2.1151,-2.1171,-2.1171,-2.1161,-2.165,-2.1865,-2.1865,-2.1865,-2.21,-2.249,-2.248,-2.2672,-2.3062,-2.3081,-2.3091,-2.3091,-2.3091,-2.1632,-1.9579,-2.0163,-1.8837,-1.6787,0.0,0.0,0.0,0.0,0.0,0.223,0.2073,0.2041,0.183,0.0,0.0,0.0,0.0536,0.0349,0.0171,0.0021,0.0,0.0,0.0,-0.057,-0.095,-0.1097,-0.1665,-0.2259,-0.2849,-0.2869,-0.3109,-0.3604,-0.3641,-0.3696,-0.3757,-0.4006,-0.426,-0.4542,-0.5615,-0.6355,-0.6859,-0.7836,-0.7636,-0.683,-0.8695,-0.8671,-0.758,-0.8598,-0.8679,-0.8306,-0.8678,-0.8593,-0.8281,-0.7955,-0.7697,-0.7431,-0.6836,-0.6367,-0.6038,-0.5961,-0.634,-0.6698,-0.6298,0.0,0.0,0.0,0.0,0.0,-0.8031,-0.9584,-1.1086,-1.1638,-1.3622,-1.5337,-1.5615,-1.6455,-1.7174,-1.7525,-1.8256,-1.8965,-1.9394,-1.9365,-1.9375,-1.9609,-1.9434,-1.9434,-1.9795,-1.9717,-1.9814,-2.0244,-1.967,-1.967,-2.0556,-2.0264,-2.0293,-2.0732,-2.0322,-2.0156,-2.0273,-2.0596,-2.0596,-2.0283,-2.1045,-2.1375,-2.1375,-2.1375,-2.165,-2.2041,-2.1728,-2.1836,-2.2275,-2.2847,-2.3091,-2.3091,-2.3091,-2.1632,-1.9579,-2.0163,-1.8837,-1.6787,0.0,0.0,0.0,0.2372,0.2041,0.1705,0.1464,0.1428,0.12,0.0,0.0,0.0,-0.024,-0.0294,-0.0368,-0.0531,-0.0398,-0.0294,-0.0294,-0.0439,-0.0619,-0.0802,-0.1143,-0.1738,-0.26,-0.2617,-0.2939,-0.3604,-0.3604,-0.3645,-0.3723,-0.3641,-0.3954,-0.4599,-0.4979,-0.5804,-0.6954,-0.7707,-0.7898,-0.7807,-0.9144,-0.9219,-0.8548,-0.9302,-0.9371,-0.9138,-0.9432,-0.9459,-0.9316,-0.9109,-0.8702,-0.8156,-0.7562,-0.696,-0.646,-0.6368,-0.6584,-0.67,-0.613,-0.6166,-0.6366,-0.6342,0.0,0.0,-0.7065,-0.8578,-1.001,-1.0369,-1.2167,-1.3685,-1.3671,-1.4281,-1.4946,-1.5487,-1.6188,-1.71,-1.8359,-1.834,-1.835,-1.8711,-1.8603,-1.8633,-1.8984,-1.9014,-1.9199,-1.9619,-1.9189,-1.9238,-2.0028,-1.9785,-1.9775,-2.0067,-1.9785,-1.9648,-1.9648,-1.9902,-1.999,-1.9922,-2.0401,-2.0781,-2.0957,-2.0957,-2.1201,-2.1602,-2.1307,-2.1484,-2.1924,-2.2412,-2.2715,-2.2847,-2.3023,-2.1632,-1.9563,-2.0038,-1.8716,-1.6774,0.0,0.0,0.233,0.179,0.1652,0.1422,0.0886,0.0798,0.0612,0.0,0.0,-0.0167,-0.0583,-0.0679,-0.0854,-0.1204,-0.0945,-0.0752,-0.0698,-0.0304,-0.0244,-0.0607,-0.0695,-0.1257,-0.2389,-0.2485,-0.2882,-0.3604,-0.3667,-0.3689,-0.3689,-0.3751,-0.4086,-0.464,-0.464,-0.542,-0.6774,-0.7346,-0.8201,-0.9198,-0.9694,-1.0007,-1.0187,-1.0255,-1.0181,-1.0107,-1.0472,-1.0367,-1.016,-1.0452,-0.9869,-0.8891,-0.8213,-0.7491,-0.6812,-0.6338,-0.647,-0.654,-0.5656,-0.6009,-0.652,-0.6032,-0.6324,0.0,-0.6888,-0.8369,-0.9785,-1.0067,-1.1341,-1.2307,-1.1971,-1.1906,-1.2298,-1.3469,-1.3645,-1.4484,-1.6918,-1.6943,-1.696,-1.7705,-1.751,-1.7607,-1.8315,-1.8393,-1.8588,-1.9111,-1.9238,-1.9268,-1.9219,-1.9219,-1.9238,-1.9287,-1.9238,-1.9219,-1.9219,-1.9268,-1.9453,-1.9775,-1.9863,-2.0117,-2.0537,-2.0586,-2.0781,-2.1122,-2.1122,-2.1377,-2.1738,-2.1787,-2.209,-2.2549,-2.2877,-2.1684,-1.972,-1.9986,-1.872,-1.6893,0.2719,0.1919,0.1213,0.1097,0.0671,0.031,0.0197,0.0171,0.0132,0.002,0.0,-0.004,-0.0119,-0.0476,-0.0739,-0.0813,-0.1046,-0.104,-0.0719,-0.0616,-0.0438,-0.0157,-0.0594,-0.1193,-0.1924,-0.2423,-0.2964,-0.3604,-0.403,-0.4242,-0.4264,-0.4744,-0.5404,-0.6164,-0.6164,-0.6722,-0.7674,-0.8069,-0.8468,-0.9012,-1.0422,-1.0894,-1.0805,-1.1269,-1.0767,-0.9833,-1.0399,-1.0367,-1.0127,-1.018,-1.0214,-1.0053,-0.8962,-0.8659,-0.8547,-0.7759,-0.7583,-0.7602,-0.7396,-0.7135,-0.6946,-0.7115,-0.6733,0.0,-0.7472,-0.712,-0.7172,-0.9283,-0.9241,-0.9202,-1.049,-1.0722,-1.0891,-1.134,-1.1427,-1.2595,-1.5886,-1.6553,-1.6629,-1.6496,-1.6689,-1.6892,-1.7058,-1.7067,-1.7399,-1.8203,-1.8896,-1.9131,-1.8754,-1.8724,-1.8926,-1.9277,-1.8945,-1.8724,-1.8724,-1.9111,-1.915,-1.8861,-1.9543,-1.9961,-2.0049,-2.0449,-2.0654,-2.0732,-2.0732,-2.0781,-2.0889,-2.1211,-2.1816,-2.2519,-2.2607,-2.1936,-2.0988,-2.1304,-1.9903,-1.7884,0.1851,0.1318,0.0812,0.0513,0.0,-0.0357,-0.035,-0.0516,-0.0571,-0.0376,-0.0155,-0.0098,-0.0333,-0.0824,-0.1227,-0.1433,-0.1636,-0.1711,-0.1599,-0.1322,-0.108,-0.0909,-0.1184,-0.1622,-0.2244,-0.2556,-0.299,-0.3604,-0.3935,-0.4193,-0.4413,-0.4821,-0.5414,-0.6169,-0.6471,-0.6832,-0.7308,-0.808,-0.8786,-0.9504,-1.0647,-1.0865,-1.063,-1.192,-1.1722,-1.0829,-1.1544,-1.181,-1.175,-1.1225,-1.116,-1.1174,-1.0602,-0.9862,-0.9098,-0.8512,-0.8263,-0.809,-0.7782,-0.7368,-0.7,-0.7048,-0.6827,0.0,0.0,-0.7148,-0.7378,-0.8523,-0.8409,-0.8327,-0.9028,-0.9035,-0.913,-0.967,-0.9874,-1.0648,-1.2635,-1.4128,-1.5175,-1.5683,-1.6133,-1.6396,-1.6396,-1.657,-1.6882,-1.7311,-1.7969,-1.8242,-1.8018,-1.8178,-1.8428,-1.8643,-1.8437,-1.8286,-1.8286,-1.8545,-1.8643,-1.8607,-1.9036,-1.9358,-1.9609,-1.9824,-2.0077,-2.0244,-2.0244,-2.0361,-2.0625,-2.081,-2.1289,-2.1873,-2.2344,-2.2,-2.132,-2.1491,-2.007,-1.8097,0.0962,0.0806,0.0546,-0.0061,-0.0472,-0.074,-0.0848,-0.1114,-0.1162,-0.076,-0.0283,-0.0253,-0.0907,-0.1324,-0.1806,-0.2447,-0.2548,-0.2571,-0.2508,-0.2157,-0.1913,-0.1776,-0.1897,-0.2198,-0.2644,-0.2818,-0.3225,-0.3839,-0.4053,-0.4425,-0.4919,-0.5185,-0.5653,-0.6235,-0.6657,-0.7074,-0.7516,-0.8442,-0.9496,-1.0595,-1.1296,-1.1115,-1.0655,-1.2705,-1.2826,-1.2033,-1.2943,-1.3459,-1.3563,-1.2523,-1.2133,-1.208,-1.208,-1.0826,-0.9352,-0.9268,-0.8881,-0.8362,-0.7812,-0.7422,-0.712,-0.6907,-0.7021,-0.7113,0.0,0.0,0.0,-0.7779,-0.7856,-0.7879,-0.7533,-0.7295,-0.7383,-0.8092,-0.8337,-0.8699,-0.9397,-1.1142,-1.2909,-1.4474,-1.5147,-1.5537,-1.5703,-1.6172,-1.6482,-1.657,-1.709,-1.7383,-1.7383,-1.7783,-1.8008,-1.8008,-1.8008,-1.8008,-1.8008,-1.8008,-1.8149,-1.8481,-1.8559,-1.8783,-1.916,-1.9248,-1.9473,-1.9795,-1.9795,-2.0039,-2.0478,-2.0478,-2.0752,-2.1268,-2.1951,-2.195,-2.1504,-2.1273,-1.9978,-1.8358,0.0806,0.0471,-0.0088,-0.0693,-0.0744,-0.0883,-0.1417,-0.1382,-0.1162,-0.076,-0.0293,-0.0511,-0.1877,-0.1614,-0.1949,-0.3482,-0.3832,-0.3555,-0.2571,-0.2996,-0.2794,-0.1677,-0.2247,-0.2585,-0.2534,-0.3292,-0.404,-0.4749,-0.5254,-0.5932,-0.6812,-0.7306,-0.7736,-0.809,-0.7843,-0.8805,-1.0573,-1.049,-1.1217,-1.2582,-1.3605,-1.3044,-1.1872,-1.4291,-1.4017,-1.2483,-1.3721,-1.4179,-1.4081,-1.3134,-1.2598,-1.2349,-1.2349,-1.1253,-1.0102,-1.0664,-0.9848,-0.8691,-0.8382,-0.8056,-0.7792,-0.7759,-0.7779,-0.7792,-0.7759,0.0,-0.7146,-0.7113,0.0,-0.6338,-0.6019,0.0,0.0,-0.6428,-0.6259,-0.672,-0.8549,-0.8843,-0.9655,-1.1779,-1.2763,-1.3535,-1.425,-1.5059,-1.5723,-1.6144,-1.6946,-1.7383,-1.7383,-1.7783,-1.8008,-1.8008,-1.8008,-1.8008,-1.8008,-1.8008,-1.8037,-1.8086,-1.8422,-1.8627,-1.8685,-1.9111,-1.9316,-1.9355,-1.9355,-1.96,-1.999,-1.999,-2.0478,-2.121,-2.1298,-2.1741,-2.2217,-2.1145,-2.0181,-1.9196,0.0335,0.0176,-0.0193,-0.08,-0.0986,-0.1245,-0.1854,-0.1583,-0.1164,-0.0755,-0.0659,-0.1169,-0.2566,-0.3007,-0.3576,-0.4488,-0.5125,-0.5123,-0.4293,-0.421,-0.4065,-0.3763,-0.3401,-0.319,-0.3135,-0.3494,-0.4092,-0.4894,-0.5198,-0.5946,-0.7098,-0.7407,-0.7669,-0.7873,-0.7885,-0.8647,-0.9984,-1.0492,-1.1527,-1.2872,-1.3722,-1.372,-1.3436,-1.5195,-1.5444,-1.4888,-1.4794,-1.5326,-1.5814,-1.4014,-1.4049,-1.4639,-1.355,-1.2151,-1.1078,-1.1871,-1.0271,-0.8484,-0.9384,-0.9435,-0.9112,-0.8556,-0.8985,-0.93,-0.8387,-0.7989,-0.7756,-0.7566,0.0,0.0,0.0,0.0,0.0,0.0,-0.6211,-0.6343,-0.668,-0.7205,-0.8432,-1.0853,-1.1471,-1.2212,-1.3508,-1.3894,-1.4421,-1.5283,-1.5889,-1.6348,-1.6633,-1.7275,-1.7764,-1.8008,-1.8008,-1.8008,-1.8008,-1.8008,-1.8008,-1.8008,-1.8184,-1.8237,-1.8247,-1.8467,-1.8682,-1.8926,-1.918,-1.9531,-1.9932,-2.0185,-2.0508,-2.084,-2.084,-2.1096,-2.1306,-2.0193,-1.9191,-1.8365,0.0,0.0,-0.0236,-0.1003,-0.1279,-0.1563,-0.2112,-0.1911,-0.1623,-0.143,-0.1399,-0.2007,-0.3646,-0.3976,-0.4477,-0.5424,-0.6085,-0.6307,-0.5954,-0.5448,-0.532,-0.5705,-0.4491,-0.3947,-0.426,-0.4017,-0.4383,-0.5356,-0.5301,-0.5957,-0.732,-0.7419,-0.7565,-0.7745,-0.7949,-0.8675,-0.9828,-1.0956,-1.2241,-1.3601,-1.4447,-1.478,-1.4825,-1.575,-1.649,-1.6944,-1.616,-1.6615,-1.7234,-1.5124,-1.5283,-1.6141,-1.4833,-1.3385,-1.2312,-1.3297,-1.1615,-0.9662,-1.0868,-1.1077,-1.0682,-0.9477,-1.0002,-1.0382,-0.8772,-0.8335,-0.8216,-0.8076,-0.7742,0.0,0.0,0.0,-0.684,-0.6391,0.0,-0.6265,-0.5645,-0.6264,-0.7571,-0.9681,-1.0528,-1.1297,-1.2173,-1.2727,-1.3304,-1.3866,-1.4739,-1.543,-1.5889,-1.6868,-1.7578,-1.7998,-1.8008,-1.8008,-1.8008,-1.8008,-1.8008,-1.8008,-1.8008,-1.8008,-1.8008,-1.8008,-1.8174,-1.8451,-1.8799,-1.918,-1.96,-2.0029,-2.0321,-2.0362,-1.9866,-1.982,-1.9939,-1.9163,-1.8327,-1.7511,0.0,0.0,-0.0381,-0.156,-0.1678,-0.1728,-0.2138,-0.2455,-0.2791,-0.3161,-0.2612,-0.3035,-0.5361,-0.3913,-0.3791,-0.6319,-0.6575,-0.6716,-0.7031,-0.6606,-0.6479,-0.6743,-0.5213,-0.4852,-0.5911,-0.5107,-0.5291,-0.6538,-0.5962,-0.644,-0.7882,-0.7871,-0.8065,-0.8368,-0.8382,-0.9526,-1.1506,-1.2778,-1.4149,-1.5528,-1.6781,-1.6713,-1.5878,-1.6036,-1.6882,-1.7935,-1.7915,-1.7935,-1.7775,-1.6483,-1.5898,0.0,0.0,0.0,-1.3973,-1.5246,-1.4466,-1.3186,-1.2988,-1.2923,-1.2479,-1.0624,-1.0616,-1.0635,-0.882,-0.815,-0.7999,-0.8328,-0.7906,-0.7397,-0.7066,-0.7006,-0.6906,-0.6627,-0.6384,0.0,0.0,-0.6201,-0.6591,-0.7586,-0.9874,-1.0926,-0.9722,-1.1603,-1.2566,-1.1747,-1.3628,-1.499,-1.541,-1.667,-1.7578,-1.7998,-1.8008,-1.8008,-1.8008,-1.8008,-1.8008,-1.8008,-1.8008,-1.8008,-1.8008,-1.8008,-1.8018,-1.8037,-1.8047,-1.8256,-1.8676,-1.915,-1.957,-1.9744,-1.8073,-1.7746,-1.8267,-1.8224,-1.7777,-1.7092,-0.1544,-0.1465,-0.1562,-0.1869,-0.2155,-0.2404,-0.2634,-0.2604,-0.3035,-0.4324,-0.4629,-0.5781,-0.8646,-0.8565,-0.8313,-0.826,-0.8566,-0.8421,-0.7542,-0.7346,-0.7517,-0.8093,-0.7209,-0.654,-0.6137,-0.6025,-0.6171,-0.6606,-0.6401,-0.6834,-0.7905,-0.7905,-0.7959,-0.809,-0.8308,-0.917,-1.0639,-1.2568,-1.4114,-1.5313,-1.6188,-1.6348,-1.6057,-1.6328,-1.67,-1.707,-1.707,-1.7467,0.0,-1.652,-1.6607,-1.7087,-1.6352,-1.5495,-1.506,-1.6432,-1.4928,-1.303,0.0,0.0,-1.4063,-1.2122,0.0,0.0,-1.0007,-0.8998,-0.8484,-0.8415,-0.8234,-0.794,-0.743,-0.7337,-0.7176,-0.6687,-0.6526,-0.6399,0.0,-0.6196,-0.639,-0.6886,-0.8046,-0.8866,-0.8955,-0.9742,-1.0367,-1.0653,-1.184,0.0,-1.3592,-1.5167,-1.6406,-1.7106,-1.7715,-1.8008,-1.8008,-1.8008,-1.8008,-1.8008,-1.8008,-1.8008,-1.8008,-1.8008,-1.8008,-1.8027,-1.8266,-1.8637,-1.9102,-1.9521,-1.9951,-2.0236,-1.8942,-1.8215,-1.7797,-1.6528,-1.6147,-1.6234,-0.2376,-0.2371,-0.2484,-0.2415,-0.3001,-0.3526,-0.3667,-0.3683,-0.4423,-0.648,-0.6686,-0.7731,-1.0599,-1.0723,-1.0383,-0.9837,-0.958,-0.9378,-0.9198,-0.7907,-0.7916,-0.9649,-0.8269,-0.7471,-0.7576,-0.705,-0.7011,-0.7536,-0.6815,-0.7005,-0.8083,-0.7952,-0.7965,-0.8103,-0.8504,-0.9122,-1.0058,-1.2511,-1.3982,-1.4715,-1.5722,-1.6187,-1.6256,-1.5997,-1.6415,-1.7104,0.0,-1.7501,-1.7857,-1.7043,-1.7316,-1.7847,-1.7034,-1.6548,-1.644,-1.7333,-1.6119,-1.4717,-1.5823,-1.5964,0.0,-1.3542,-1.3156,0.0,-1.0864,0.0,-0.9279,-0.9327,-0.9138,-0.8811,-0.821,-0.804,-0.7739,-0.7035,-0.6921,-0.6854,0.0,-0.6391,-0.6303,-0.6573,-0.7148,-0.7645,-0.7934,-0.8421,-0.8847,-0.9184,-1.0153,-1.1237,-1.2397,-1.4147,-1.5601,-1.6668,-1.7568,-1.8008,-1.8008,-1.8008,-1.8008,-1.8008,-1.8008,-1.8008,-1.8008,-1.8008,-1.8008,-1.8037,-1.8422,-1.8763,-1.9102,-1.9678,-2.0078,-2.0226,-1.8903,-1.8138,-1.7634,-1.6104,-1.5684,-1.5784,-0.2509,-0.2764,-0.3159,-0.3178,-0.4156,-0.5015,-0.5147,-0.5619,-0.6857,-0.9382,-0.8745,-0.8954,-1.1322,-1.052,-1.0124,-1.09,-0.9574,-0.9553,-1.1617,-0.8355,-0.7891,-1.1314,-0.8519,-0.792,-1.009,-0.827,-0.791,-0.9211,-0.7275,-0.7055,-0.8415,-0.8072,-0.8103,-0.8422,-0.8971,-0.9384,-0.9865,-1.263,-1.3855,-1.4026,-1.5441,-1.6247,-1.6426,-1.5223,-1.6097,-1.7974,-1.794,-1.7974,-1.8008,-1.8008,-1.8008,-1.8008,-1.8008,-1.8008,-1.8008,-1.8008,-1.8008,-1.8008,-1.8008,-1.7354,-1.6318,-1.4738,-1.3651,0.0,0.0,0.0,-1.0307,0.0,0.0,-0.993,-0.9344,-0.8978,-0.8504,-0.7672,-0.7497,-0.7471,-0.7506,-0.6767,-0.6324,-0.6593,-0.7148,-0.7289,-0.6645,-0.7652,-0.8062,-0.7398,-0.868,-1.02,-1.1861,-1.3608,-1.5204,-1.6636,-1.7467,-1.7949,-1.8008,-1.7988,-1.7988,-1.8008,-1.8008,-1.8008,-1.8008,-1.8008,-1.8008,-1.8037,-1.8393,-1.8598,-1.8695,-1.9514,-1.9912,-1.9753,-1.8002,-1.7442,-1.755,-1.6796,-1.6225,-1.5784,-0.4075,-0.4048,-0.4147,-0.4136,-0.5105,-0.5912,-0.6035,-0.7183,-0.8466,-0.9686,-1.0823,-1.1816,-1.2666,-1.3411,-1.2976,-1.0751,-1.0174,-0.99,-0.9821,-0.9093,-0.9669,-1.1956,-1.153,-1.0976,-1.0468,-1.0164,-0.9738,-0.9211,-0.8488,-0.8318,-0.8691,-0.8397,-0.8328,-0.8435,-0.9212,-0.9486,-0.9552,-1.2781,-1.4689,-1.5459,-1.4976,-1.5333,-1.6175,-1.5865,-1.6674,-1.7906,-1.7217,-1.7398,-1.8008,-1.8008,-1.8008,-1.8008,-1.8008,-1.8008,-1.8008,-1.8008,-1.8008,-1.8008,-1.8008,-1.7828,-1.7204,-1.5419,-1.4452,-1.347,0.0,0.0,0.0,0.0,0.0,0.0,0.0,0.0,-0.8435,-0.8201,-0.7575,-0.7214,-0.7457,-0.6914,-0.6606,-0.686,-0.6709,-0.6491,-0.6322,-0.6952,-0.72,-0.6837,-0.8377,-0.9953,-1.1339,0.0,-1.4694,-1.6638,-1.6621,-1.7031,-1.7998,-1.7705,-1.7705,-1.8008,-1.8008,-1.8008,-1.8008,-1.8008,-1.8008,-1.8018,-1.8125,-1.8525,-1.9141,-1.9355,-1.9824,-2.0207,-1.8106,-1.649,-1.5389,-1.5618,-1.5737,-1.5784,-0.4812,-0.4951,-0.523,-0.5153,-0.6955,-0.821,-0.773,-0.8705,-1.0048,-1.1523,-1.2323,-1.3034,-1.3873,-1.4845,-1.4644,-1.2739,-1.1542,-1.105,-1.1429,-1.0024,-1.0299,-1.2743,-1.2206,-1.1495,-1.0807,-1.0655,-1.0354,-0.9813,-0.9011,-0.8945,-0.9566,-0.9011,-0.8824,-0.8998,-0.9593,-0.978,-0.978,-1.2805,-1.4863,-1.6045,-1.5356,-1.5815,0.0,-1.6312,-1.6885,-1.794,-1.7398,-1.7535,-1.8008,-1.8008,-1.8008,-1.8008,-1.8008,-1.8008,-1.794,-1.7501,-1.7389,-1.7285,-1.6897,-1.6446,-1.5983,-1.534,-1.4299,-1.3254,-1.2571,-1.1956,-1.147,0.0,-1.1202,-1.1142,0.0,0.0,-0.8764,-0.8107,-0.7571,-0.7275,-0.7464,-0.7203,-0.6961,-0.6847,-0.6794,-0.6666,-0.6411,-0.6546,-0.668,-0.6774,-0.7727,-0.8862,0.0,-1.2157,-1.3942,-1.5379,-1.6021,-1.65,-1.6883,-1.6612,-1.6696,-1.7158,-1.7303,-1.7613,-1.8008,-1.8008,-1.8115,-1.8256,-1.7976,-1.8242,-1.8892,-1.9071,-1.9141,-1.8988,-1.7285,-1.5745,-1.4576,-1.5037,-1.5391,-1.5658,-0.5414,-0.5875,-0.6452,-0.6337,-0.9069,-1.0947,-0.9946,-1.0491,-1.1741,-1.3681,-1.3409,-1.3467,-1.4694,-1.5186,-1.5378,-1.5153,-1.304,-1.2472,-1.4182,-1.115,-1.0576,-1.3571,-1.1923,-1.1033,-1.1236,-1.0648,-1.0474,-1.076,-0.9367,-0.936,-1.0633,-0.9746,-0.9464,-0.9753,-1.0047,-1.0336,-1.0769,-1.2759,-1.4567,-1.6096,-1.6096,-1.6771,-1.7634,-1.6719,-1.7043,-1.8008,-1.8008,-1.8008,-1.8008,-1.8008,-1.8008,-1.8008,-1.8008,-1.8008,-1.7828,-1.6888,-1.6602,-1.6384,-1.5438,-1.4557,-1.4063,-1.4807,-1.3738,-1.2673,-1.3404,-1.2942,-1.2365,-1.2365,-1.2365,-1.2191,0.0,0.0,-0.932,-0.7946,-0.7591,-0.7517,-0.7598,-0.7611,-0.739,-0.6794,-0.7249,0.0,-0.678,-0.6512,-0.6559,-0.702,-0.7212,-0.7835,0.0,0.0,-1.3175,-1.3728,-1.5496,-1.6221,-1.576,-1.5446,-1.5722,-1.6594,-1.6522,-1.7068,-1.8174,-1.8036,-1.823,-1.8669,-1.8146,-1.8076,-1.835,-1.874,-1.8186,-1.7009,-1.6067,-1.5176,-1.4502,-1.4836,-1.5169,-1.5384,-0.7486,-0.7756,-0.8021,-0.7985,-0.9978,-1.1774,-1.2273,-1.3576,-1.4147,-1.3168,-1.4326,-1.49,-1.4019,-1.5003,-1.5218,-1.3865,-1.3223,-1.3009,-1.3254,-1.2278,-1.2486,-1.4243,-1.3312,-1.2652,-1.2482,-1.1899,-1.1625,-1.1678,-1.0687,-1.0466,-1.0935,-1.0261,-0.9957,-1.0053,-1.0378,-1.1655,-1.3526,-1.2923,-1.3982,-1.6096,-1.6096,-1.6242,-1.6511,-1.7359,-1.7804,-1.8008,-1.8008,-1.8008,-1.8008,-1.8008,-1.8008,-1.8008,-1.8008,-1.8008,-1.7828,-1.6888,-1.6602,-1.6384,-1.5438,-1.5057,-1.4772,-1.4135,-1.3709,-1.3382,-1.302,-1.2817,-1.2703,-1.2703,-1.2703,-1.2603,-1.2211,0.0,0.0,-0.9024,-0.811,-0.7665,-0.8167,-0.8241,-0.8013,-0.741,-0.7873,-0.8,-0.739,-0.7311,-0.7303,-0.7404,-0.8397,-0.9263,0.0,0.0,-1.2856,0.0,-1.487,0.0,0.0,0.0,-1.6947,-1.9222,-1.6887,-1.6936,-1.9026,-1.8173,-1.8283,-1.918,-1.9066,-1.876,-1.8323,-1.8395,-1.746,-1.5944,-1.5779,-1.509,-1.4229,-1.4807,-1.5042,-1.5162,-0.9494,-0.9313,-0.9213,-0.957,-1.2032,-1.4008,-1.402,-1.6341,-1.7174,-1.4495,-1.4878,-1.514,-1.4441,-1.5231,-1.5476,-1.4716,-1.4174,-1.4027,-1.4422,-1.3695,-1.3691,-1.4723,-1.3908,-1.308,-1.2342,-1.2053,-1.1752,-1.1416,-1.0688,-1.0635,-1.1196,-1.0307,-1.0053,-1.0392,-1.1189,-1.2188,-1.3363,-1.4048,-1.5019,-1.6157,-1.6824,-1.7086,-1.7148,-1.7784,-1.8008,-1.8008,-1.8008,-1.812,-1.8266,-1.8086,-1.8008,-1.8008,-1.8008,-1.812,-1.8008,-1.6519,-1.622,-1.6074,-1.4591,-1.4148,-1.4148,-1.4178,-1.3816,-1.3445,-1.3499,-1.3158,-1.2737,-1.2583,-1.2556,-1.2331,-1.173,-1.1169,0.0,0.0,0.0,-0.8544,-0.9018,-0.8817,-0.8544,-0.8404,-0.8778,-0.8784,-0.8033,-0.821,-0.8196,-0.7742,-0.8425,-0.8994,0.0,0.0,-1.2171,0.0,0.0,0.0,-1.5383,0.0,-1.5311,-1.6937,-1.5678,-1.5958,-1.7553,-1.6913,-1.7118,-1.7895,-1.7162,-1.6906,-1.691,-1.6356,-1.5963,-1.5662,-1.5095,-1.4531,-1.4155,-1.4794,-1.5008,-1.5095,-1.2002,-1.1826,-1.1777,-1.2577,-1.502,-1.6783,-1.6438,-1.8816,-1.9527,-1.6367,-1.5951,-1.5944,-1.5944,-1.632,-1.6418,-1.6059,-1.5479,-1.5225,-1.5337,-1.4676,-1.4396,-1.4669,-1.3973,-1.3134,-1.2214,-1.2067,-1.173,-1.1276,-1.0742,-1.0815,-1.1369,-1.0488,-1.039,-1.1044,-1.2049,-1.2749,-1.3323,0.0,-1.6251,-1.6615,-1.7677,-1.8086,-1.8018,-1.8105,-1.8144,-1.8144,-1.8144,-1.8383,-1.8695,-1.8389,-1.8281,-1.8281,-1.8281,-1.8471,-1.8404,-1.6624,-1.6312,-1.6122,-1.4084,-1.3548,-1.3666,-1.4155,-1.3745,-1.3357,-1.3933,-1.3401,-1.2737,-1.2525,-1.2392,-1.2111,-1.1517,-1.145,0.0,0.0,0.0,0.0,-0.9486,-0.9152,-0.8958,-0.9184,-0.9273,-0.9134,-0.8617,-0.8606,-0.8502,-0.8132,-0.8337,-0.8516,-0.8557,0.0,0.0,0.0,0.0,-1.3709,-1.374,0.0,-1.3895,-1.5004,-1.4582,-1.5054,-1.6258,-1.5748,-1.597,-1.6678,-1.5553,-1.531,-1.5621,-1.4531,-1.4615,-1.5296,-1.4412,-1.4088,-1.4155,-1.4794,-1.5008,-1.5095,-1.5587,-1.6684,-1.7854,-1.8716,-1.9217,-1.982,-2.0685,-2.0782,-2.0086,-1.8077,-1.8566,-1.9071,-1.9071,-1.9136,-1.8502,-1.6861,-1.7114,-1.6384,-1.397,-1.4496,-1.4549,-1.376,-1.3646,-1.3427,-1.3093,-1.2545,-1.2231,-1.2178,-1.1899,-1.161,0.0,-1.1282,-1.1609,-1.225,-1.2686,0.0,0.0,-1.6002,-1.6771,-1.7842,-1.8339,-1.8315,-1.8047,-1.8393,-1.8539,-1.8539,-1.8539,-1.8857,-1.9219,-1.918,-1.917,-1.917,-1.917,-1.9189,-1.9037,-1.7981,-1.7711,-1.7281,-1.5219,-1.4647,-1.446,-1.3548,-1.3286,-1.3273,-1.3588,-1.3212,-1.2857,-1.3073,-1.2685,-1.2358,-1.2583,-1.2208,-1.1665,0.0,0.0,0.0,0.0,-0.9038,-0.9184,-0.9211,-0.8524,-0.8346,-0.9056,-0.7735,-0.7356,-0.8619,-0.8751,-0.8858,0.0,0.0,0.0,-1.0262,-1.2437,-1.3884,-1.4506,-1.3954,-1.4988,-1.759,-1.4967,-1.4932,-1.7138,-1.5903,-1.5897,-1.6882,-1.6731,-1.6309,-1.5621,-1.4531,-1.4166,-1.425,-1.413,-1.4088,-1.4155,-1.4794,-1.5008,-1.5095,-1.929,-1.8947,-1.8811,-1.9688,-2.0533,-2.116,-2.1275,-2.25,-2.2838,-2.1241,-2.0362,-1.9774,-1.9521,-1.9497,-1.8926,-1.7485,-1.7573,-1.6909,-1.5035,-1.5284,-1.517,-1.4462,-1.4269,-1.3868,-1.3227,-1.2831,-1.2777,-1.3135,-1.2107,-1.1847,-1.2267,-1.1512,0.0,0.0,0.0,-1.3723,-1.4746,-1.6167,-1.7185,-1.7876,-1.8704,-1.8926,-1.8799,-1.8965,-1.9023,-1.9023,-1.9023,-1.9297,-1.9668,-1.9668,-1.9502,-1.9287,-1.9287,-1.9463,-1.9472,-1.844,-1.8337,-1.8246,-1.6699,-1.583,-1.5227,-1.4803,-1.4206,-1.3721,-1.362,-1.3413,-1.3267,-1.322,-1.2866,-1.2643,-1.2764,-1.2589,-1.2355,-1.212,0.0,0.0,0.0,-1.0441,-1.0421,-1.0775,-0.9649,-0.9234,-1.0199,-0.878,-0.8232,-0.9277,-0.8844,-0.8751,0.0,0.0,0.0,-1.0882,0.0,-1.3194,-1.4012,-1.3743,-1.4318,-1.5668,-1.4469,-1.4324,-1.5046,-1.4379,-1.427,-1.4712,-1.5061,-1.5022,-1.4692,-1.4292,-1.4088,-1.4088,-1.4088,-1.4195,-1.4396,-1.4854,-1.5122,-1.5284,-2.2062,-2.1264,-2.0791,-2.1673,-2.2474,-2.2741,-2.1993,-2.3834,-2.4726,-2.3261,-2.2379,-2.1566,-2.0839,-2.0654,-1.9867,-1.8131,-1.8118,-1.7337,-1.5302,-1.5511,-1.5364,-1.4609,-1.4543,-1.4148,-1.3313,-1.3338,-1.3559,-1.4029,-1.3078,-1.2974,0.0,0.0,0.0,0.0,-1.3162,-1.4047,-1.4992,-1.6645,-1.767,-1.8239,-1.912,-1.9316,-1.9121,-1.9375,-1.9394,-1.9307,-1.9424,-1.9746,-2.0107,-2.0107,-1.9912,-1.9668,-1.9668,-1.9863,-1.9946,-1.9209,-1.921,-1.9234,-1.8109,-1.7253,-1.6511,-1.5861,-1.5137,-1.4434,-1.3862,-1.3666,-1.352,-1.3273,-1.3033,-1.2945,-1.3032,-1.3052,-1.2991,-1.2811,0.0,0.0,0.0,-1.1309,-1.1149,-1.1598,-1.0192,-0.9619,-1.0783,-0.9373,-0.8765,-0.9644,-0.9025,-0.8884,0.0,0.0,0.0,0.0,0.0,0.0,-1.3367,-1.338,-1.3621,-1.4088,-1.4088,-1.3975,-1.3726,-1.3433,-1.3287,-1.324,-1.3741,-1.4008,-1.4088,-1.4088,-1.4088,-1.4088,-1.4088,-1.4262,-1.4556,-1.4901,-1.515,-1.5438,-2.34,-2.4202,-2.5303,-2.6191,-2.5937,-2.516,-2.371,-2.4745,-2.5078,-2.3427,-2.4836,-2.5443,-2.3908,-2.3354,-2.1855,-1.8835,-1.912,-1.7812,-1.3885,-1.4756,-1.4883,-1.3666,-1.4173,-1.4199,-1.3613,-1.4234,-1.4639,-1.4787,-1.5298,0.0,-1.535,0.0,-1.3596,-1.4186,-1.4194,-1.5495,-1.7655,-1.7701,-1.8304,-1.9326,-1.9746,-1.9358,-1.8695,-1.9543,-1.9648,-1.9346,-1.9756,-2.0185,-2.0595,-2.0595,-2.0595,-2.0586,-2.0586,-2.0595,-2.0595,-2.0595,-2.0595,-2.0362,-1.9274,-1.8957,-1.843,-1.6273,-1.5696,-1.5421,-1.4328,-1.3854,-1.352,-1.3273,-1.3206,-1.3293,-1.354,-1.3593,-1.344,-1.2884,0.0,0.0,0.0,-1.1176,-1.0995,-1.1002,-0.9475,-0.9003,-1.045,-0.8966,-0.8406,-0.961,-0.9377,0.0,0.0,0.0,0.0,-1.0969,-1.076,0.0,-1.2784,-1.2797,-1.3246,-1.4088,-1.4088,-1.4082,-1.4075,-1.3733,-1.344,-1.3227,-1.348,-1.3773,-1.4088,-1.4088,-1.4088,-1.4088,-1.4088,-1.4262,-1.4556,-1.4901,-1.515,-1.5438,-2.1305,-2.3446,-2.5179,-2.4125,-2.4689,-2.5129,-2.465,-2.4743,-2.4898,-2.5149,-2.481,-2.4635,-2.4873,-2.453,-2.3209,-2.0668,-1.9713,-1.8414,-1.6527,-1.56,-1.4981,-1.4563,-1.4148,-1.3641,-1.3085,-1.399,-1.4726,-1.5219,0.0,0.0,0.0,-1.5021,-1.4411,-1.3866,-1.3866,-1.4141,-1.4739,-1.6198,-1.7256,-1.8044,-1.9354,-1.9709,-1.9512,-1.9492,-1.958,-1.9736,-1.9863,-2.0195,-2.0605,-2.0605,-2.0605,-2.0605,-2.0605,-2.0605,-2.0605,-2.0605,-2.0605,-2.0527,-2.0167,-1.9559,-1.863,-1.7172,-1.6232,-1.5421,-1.4328,-1.4573,-1.4735,-1.3682,-1.4092,-1.4434,-1.3743,-1.36,-1.3473,-1.3126,-1.34,0.0,-1.2178,0.0,-1.1737,-1.1336,-1.0015,-0.9668,-1.1016,-0.9838,-0.9438,-1.0516,-1.012,0.0,0.0,0.0,0.0,0.0,-1.2027,0.0,-1.3347,-1.3353,-1.3607,-1.4082,-1.3881,-1.3681,-1.3487,-1.3394,-1.3367,-1.348,-1.3814,-1.4001,-1.4088,-1.4088,-1.4088,-1.4108,-1.4302,-1.4563,-1.4863,-1.515,-1.5444,-1.5705,-2.2312,-2.405,-2.5266,-2.3919,-2.4449,-2.4808,-2.3895,-2.4098,-2.4493,-2.4703,-2.4547,-2.4581,-2.5129,-2.4965,0.0,-2.1506,-2.0447,-1.9482,-1.8442,-1.6892,-1.5903,-1.5709,-1.5055,-1.4454,-1.3912,-1.5196,0.0,-1.6761,-1.7382,-1.738,-1.6733,-1.6473,-1.5863,-1.504,-1.4539,-1.4606,-1.5193,-1.628,-1.7264,-1.8147,-1.9412,-1.9679,-1.9387,-1.9326,-1.9222,-1.9164,-1.9703,-1.9956,-2.004,-2.044,-2.0605,-2.0635,-2.0762,-2.0742,-2.0605,-2.0605,-2.0605,-2.0605,-2.0605,-2.0118,-1.9234,-1.7706,-1.6805,-1.591,-1.4454,-1.4936,-1.5321,-1.4042,-1.4686,-1.512,-1.4008,-1.3808,-1.3713,-1.3567,-1.3754,-1.3661,-1.2874,0.0,-1.2044,-1.1784,-1.0671,0.0,0.0,-1.0747,-1.0482,0.0,-1.0715,0.0,0.0,0.0,0.0,-1.1937,-1.2301,0.0,-1.33,-1.3493,-1.364,-1.3761,-1.364,-1.3453,-1.322,-1.344,-1.3581,-1.362,-1.3955,-1.4088,-1.4088,-1.4088,-1.4155,-1.4269,-1.4449,-1.477,-1.515,-1.5331,-1.5578,-1.5784,-2.5286,-2.546,-2.5479,-2.4925,-2.4961,-2.4235,-2.2005,-2.3186,-2.3902,-2.2814,-2.4186,-2.5117,-2.484,-2.4745,-2.3793,-2.1604,0.0,0.0,-1.9716,-1.8456,-1.7485,-1.6867,-1.671,-1.6329,-1.5681,-1.7412,-1.8572,-1.9116,-1.9688,-1.944,-1.8391,-1.8143,-1.7808,-1.7283,-1.595,-1.6411,-1.8148,-1.7553,-1.8013,-1.9282,-1.9689,-1.9338,-1.8637,-1.9053,-1.8598,-1.7867,-1.9268,-1.938,-1.9036,-2.0128,-2.0489,-2.0557,-2.1015,-2.0898,-2.0615,-2.0674,-2.0654,-2.0615,-2.0644,-2.0625,-2.0079,-1.7859,-1.7172,-1.6568,-1.4657,-1.4977,-1.5421,-1.4412,-1.5019,-1.5379,-1.4292,-1.4088,-1.4082,-1.4062,-1.378,-1.3573,-1.3493,-1.2565,-1.1993,-1.2184,0.0,0.0,-1.1826,-1.1657,-1.1455,0.0,0.0,0.0,0.0,0.0,-1.0628,-1.1455,-1.179,-1.2241,-1.2811,-1.3333,-1.344,-1.3213,-1.3447,-1.344,-1.326,-1.3808,-1.3915,-1.3646,-1.3988,-1.4115,-1.4122,-1.4135,-1.4309,-1.4556,-1.4569,-1.4917,-1.5398,-1.5418,-1.5598,-1.5784,0.0,0.0,-2.4638,-2.2674,-2.3314,-2.3894,-2.3358,-2.3338,-2.3618,-2.4185,-2.3897,-2.3964,-2.4723,-2.4006,-2.329,-2.2721,-2.1655,-2.0977,-2.0864,-1.9331,-1.8009,-1.7131,-1.7012,-1.6492,-1.541,-1.7184,-1.8834,-2.0206,-2.0343,-2.012,-1.9525,-1.9467,-1.8816,-1.7705,-1.6525,-1.6431,-1.7211,-1.706,-1.7596,-1.8589,-1.9179,-1.9111,-1.8578,-1.8398,-1.8062,-1.7756,-1.8108,-1.8015,-1.7868,-1.8997,-1.9362,-1.9539,-2.0449,-2.0693,-2.0732,-2.1417,-2.1134,-2.0674,-2.0986,-2.083,-2.0079,-1.7859,-1.6083,-1.4943,-1.5262,-1.5538,-1.5621,-1.5379,-1.5538,-1.5379,-1.4292,-1.4088,-1.4015,-1.374,-1.3646,-1.3287,-1.2418,-1.208,-1.1759,0.0,-1.1491,-1.1678,-1.1886,-1.2248,-1.2187,0.0,0.0,-1.1322,-1.1389,-1.1443,-1.1792,-1.2449,-1.2536,-1.2757,-1.3093,-1.324,-1.328,-1.3213,-1.328,-1.3353,-1.3507,-1.3646,-1.3793,-1.4001,-1.4289,-1.4422,-1.4436,-1.4663,-1.4841,-1.4883,-1.5104,-1.5271,-1.5424,-1.5645,-1.5772,-1.5784,-2.1971,-2.3521,-2.4577,-2.2841,-2.322,-2.3721,-2.3525,-2.3247,-2.3299,-2.392,-2.3464,-2.3343,-2.3963,-2.3464,-2.3091,-2.3091,-2.2379,-2.1983,-2.211,-2.0677,-1.9451,-1.86,-1.8489,-1.8059,-1.7284,-1.8735,-1.9965,-2.0869,-2.0703,-2.0488,-2.0215,-1.9736,-1.9113,-1.8317,-1.6692,-1.6552,-1.7523,-1.7008,-1.7574,-1.8807,-1.9155,-1.9023,-1.8598,-1.8603,-1.8222,-1.7803,-1.8471,-1.8115,-1.7464,-1.8638,-1.863,-1.8456,-1.9734,-2.0035,-2.0133,-2.1498,-2.1406,-2.0967,-2.1406,-2.087,-1.9583,-1.7164,-1.5304,-1.425,-1.4852,-1.5745,-1.615,-1.5179,-1.5745,-1.5951,-1.437,-1.4088,-1.3988,-1.3646,-1.3373,-1.3006,-1.2402,-1.1924,-1.175,-1.1977,-1.2044,-1.2178,-1.2458,-1.2683,-1.2529,-1.187,-1.1703,0.0,-1.2017,-1.2051,-1.2211,-1.2569,-1.2939,-1.3106,-1.3038,-1.314,-1.3273,-1.3367,-1.3367,-1.3453,-1.3613,-1.388,-1.4055,-1.4102,-1.4396,-1.4442,-1.4342,-1.4643,-1.4843,-1.5035,-1.5284,-1.5478,-1.5611,-1.5772,-1.5784,-1.5784,-2.4678,-2.4814,-2.4842,-2.3935,-2.3789,-2.3643,-2.3159,-2.3091,-2.3178,-2.3343,-2.3343,-2.3343,-2.3343,-2.3343,-2.3309,-2.3135,-2.3091,-2.3091,-2.3091,-2.2129,-2.1224,-2.0404,-2.0374,-2.0183,-1.9765,-2.0704,-2.119,-2.119,-2.0624,-2.0362,-2.0323,-1.9234,-1.8758,-1.863,-1.6593,-1.671,-1.8336,-1.7257,-1.7817,-1.9385,-1.9385,-1.9121,-1.8734,-1.915,-1.8683,-1.7948,-1.9203,-1.8644,-1.7464,-1.843,-1.8109,-1.7514,-1.8848,-1.9138,-1.935,-2.1034,-2.1401,-2.1278,-2.1689,-2.057,-1.8743,-1.6713,-1.5137,-1.4208,-1.4741,-1.6,-1.6609,-1.4943,-1.5918,-1.6445,-1.4454,-1.4088,-1.3941,-1.3467,-1.3053,-1.2723,-1.2543,0.0,-1.1915,-1.3013,-1.2766,-1.2705,-1.3227,-1.3033,-1.2797,-1.2465,-1.2211,-1.2328,-1.2824,-1.2619,-1.2485,-1.2438,-1.314,-1.3333,-1.2857,-1.308,-1.3313,-1.36,-1.36,-1.3626,-1.3686,-1.4233,-1.4389,-1.4168,-1.4509,-1.4509,-1.4309,-1.4596,-1.487,-1.5117,-1.5364,-1.5611,-1.5784,-1.5784,-1.5784,-1.5784,-2.5068,-2.5067,-2.4842,-2.3935,-2.3789,-2.3643,-2.3159,-2.3091,-2.343,-2.4414,-2.4542,-2.4542,-2.4542,-2.4542,-2.4168,-2.3178,-2.3091,-2.3091,-2.3091,-2.2906,-2.2293,-2.1157,-2.1744,-2.1622,-2.0535,-2.0958,-2.119,-2.119,-1.9893,-1.9244,-1.9244,-1.8101,-1.7545,-1.7496,-1.6273,-1.6887,-1.8827,-1.7694,-1.8223,-1.9814,-1.9814,-1.9561,-1.9189,-1.9268,-1.8826,-1.8242,-1.845,-1.8018,-1.7342,-1.7496,-1.7464,-1.735,-1.7563,-1.8273,-1.9127,-1.9752,-2.0564,-2.121,-2.1278,-1.9525,-1.7774,-1.8367,-1.6281,-1.4824,-1.7617,-1.7041,-1.6108,-1.669,-1.6355,-1.5587,-1.4334,-1.4088,-1.3741,-1.2685,-1.2683,-1.2435,-1.1403,0.0,-1.2325,-1.2804,-1.318,-1.3433,-1.3527,-1.3493,-1.3347,-1.3093,-1.3026,-1.3039,-1.3133,-1.3287,-1.328,-1.308,-1.3206,-1.3233,-1.314,-1.3186,-1.3313,-1.36,-1.36,-1.3733,-1.4028,-1.4369,-1.4496,-1.4482,-1.5023,-1.5237,-1.5217,-1.5504,-1.5651,-1.5698,-1.5745,-1.5744,-1.5784,-1.5784,-1.5784,-1.5784,-2.4853,-2.4912,-2.4842,-2.3935,-2.3789,-2.3643,-2.3159,-2.3091,-2.3309,-2.3844,-2.4414,-2.4787,-2.4787,-2.4787,-2.4585,-2.4049,-2.3464,-2.3091,-2.3091,-2.3091,-2.2756,-2.1985,-2.2298,-2.2244,-2.1702,-2.1595,-2.1582,-2.1582,-1.9845,-1.8997,-1.8957,-1.7253,-1.6437,-1.6396,-1.5304,-1.5745,-1.7196,-1.7039,-1.7926,-1.9437,-1.9531,-1.9463,-1.9307,-1.9541,-1.9303,-1.8911,-1.9353,-1.8952,-1.823,-1.823,-1.7827,-1.7423,-1.8029,-1.8598,-1.9152,-1.9902,-2.083,-2.1401,-2.0573,-1.9458,-1.8481,-1.8161,-1.6935,-1.6206,-1.7738,-1.7779,-1.7514,-1.7631,-1.7218,-1.651,-1.5474,-1.473,-1.4035,-1.3127,-1.3006,0.0,0.0,-1.2532,-1.2899,-1.3193,-1.3614,-1.378,-1.362,-1.36,-1.3487,-1.3233,-1.3213,-1.328,-1.3393,-1.3533,-1.3613,-1.3681,-1.3527,-1.352,-1.3681,-1.3681,-1.3748,-1.3881,-1.3999,-1.4188,-1.4335,-1.479,-1.491,-1.4783,-1.5211,-1.5304,-1.519,-1.5478,-1.5591,-1.5611,-1.5718,-1.5784,-1.5784,-1.5784,-1.5784,-1.5784,-2.4806,-2.499,-2.4951,-2.4092,-2.3935,-2.376,-2.3179,-2.3091,-2.3222,-2.3474,-2.45,-2.521,-2.521,-2.521,-2.5083,-2.483,-2.3757,-2.3091,-2.3091,-2.3091,-2.2955,-2.2676,-2.2656,-2.2656,-2.2656,-2.2246,-2.1896,-2.1636,-1.9693,-1.861,-1.827,-1.627,-1.5338,-1.5296,-1.4454,-1.4692,-1.5722,-1.626,-1.7468,-1.9031,-1.9156,-1.9395,-1.9656,-1.9941,-1.9863,-1.9705,-2.037,-2.0079,-1.9313,-1.9076,-1.843,-1.7779,-1.839,-1.8798,-1.9173,-2.0115,-2.1099,-2.1593,-2.0205,-1.9715,-1.9389,-1.8429,-1.7892,-1.7754,-1.8254,-1.8823,-1.9147,-1.8614,-1.8221,-1.7623,-1.6594,-1.536,-1.4259,-1.3606,0.0,0.0,0.0,-1.3267,-1.3433,-1.386,-1.4148,-1.4175,-1.3833,-1.3806,-1.3686,-1.3434,-1.3414,-1.3514,-1.3693,-1.3706,-1.3848,-1.4082,-1.3868,-1.3854,-1.4082,-1.4088,-1.4088,-1.4088,-1.4382,-1.4522,-1.4536,-1.513,-1.5277,-1.5122,-1.5371,-1.5371,-1.5184,-1.5404,-1.5498,-1.5518,-1.5745,-1.5784,-1.5784,-1.5784,-1.5784,-1.5784,-2.5606,-2.5615,-2.5362,-2.4521,-2.4375,-2.4092,-2.3218,-2.3091,-2.3464,-2.4542,-2.5672,-2.6348,-2.6348,-2.6348,-2.5933,-2.4872,-2.3757,-2.3091,-2.3091,-2.3091,-2.3081,-2.3052,-2.3052,-2.3052,-2.3052,-2.2643,-2.1921,-2.0809,-1.8955,-1.7453,-1.6264,-1.4867,-1.4208,-1.4208,-1.413,-1.4692,-1.5696,-1.5756,-1.7017,-1.8997,-1.9022,-1.9633,-2.0507,-2.0546,-2.0537,-2.0517,-2.0586,-2.0566,-2.0323,-1.9313,-1.8957,-1.8718,-1.7747,-1.8149,-1.9069,-1.9552,-2.074,-2.1699,-2.0761,-2.0076,-1.982,-2.069,-1.9695,-1.9025,-2.1097,-2.0819,-2.0081,-2.0066,-1.9144,-1.8029,-1.6944,-1.5509,-1.4242,-1.338,0.0,0.0,-1.3213,-1.34,-1.388,-1.4807,-1.4934,-1.4783,-1.4482,-1.4412,-1.4335,-1.4041,-1.4021,-1.4035,-1.4055,-1.4055,-1.4062,-1.4088,-1.4068,-1.4068,-1.4088,-1.4088,-1.4088,-1.4088,-1.4382,-1.4522,-1.4536,-1.513,-1.5384,-1.5384,-1.5671,-1.5738,-1.5718,-1.5744,-1.5751,-1.5751,-1.5771,-1.5784,-1.5784,-1.5784,-1.5784,-1.5784,-2.4865,-2.4865,-2.4727,-2.4131,-2.4033,-2.3828,-2.3188,-2.3091,-2.3266,-2.3671,-2.4755,-2.5462,-2.5462,-2.5462,-2.5252,-2.483,-2.3757,-2.3091,-2.3091,-2.3091,-2.3091,-2.3091,-2.3091,-2.2775,-2.1987,-2.1587,-2.0768,-1.9518,-1.7929,-1.6771,-1.6054,-1.4905,-1.4262,-1.4088,-1.4088,-1.4334,-1.4734,-1.5421,-1.6191,-1.7066,-1.8127,-1.883,-1.9255,-1.9918,-2.0166,-2.0195,-2.0507,-2.0157,-1.9638,-1.9923,-1.9559,-1.9082,-1.9586,-2.003,-2.0285,-1.9952,-2.0263,-2.0662,-2.0305,-2.0639,-2.1119,-2.1508,-2.1161,-2.088,-2.1709,-2.1575,-2.1341,-2.1588,-2.0671,-1.9488,-1.8438,-1.7099,-1.575,-1.4505,0.0,-1.4302,-1.4302,-1.4396,-1.4589,-1.4968,-1.5008,-1.4888,-1.4549,-1.4689,-1.4596,-1.4122,-1.4465,-1.4549,-1.4362,-1.4529,-1.4549,-1.4362,-1.4536,-1.4499,-1.4088,-1.4262,-1.4355,-1.4362,-1.4836,-1.5064,-1.5077,-1.5484,-1.5665,-1.5671,-1.5785,-1.5784,-1.5784,-1.5784,-1.5784,-1.5784,-1.5784,-1.5784,-1.5784,-1.5784,-1.5784,-1.5784,-2.4414,-2.4414,-2.4287,-2.3867,-2.3789,-2.3499,-2.2646,-2.2536,-2.2536,-2.2536,-2.3544,-2.4383,-2.4745,-2.4787,-2.4787,-2.4787,-2.3757,-2.3091,-2.3091,-2.265,-2.2456,-2.2536,-2.2536,-2.1987,-2.0755,-2.0456,-1.9696,-1.8451,-1.7346,-1.6448,-1.5749,-1.4897,-1.4362,-1.4088,-1.4088,-1.4088,-1.413,-1.4894,-1.5372,-1.5805,-1.7013,-1.7673,-1.8074,-1.8813,-1.9093,-1.9169,-1.9857,-1.9402,-1.8656,-1.9827,-1.9506,-1.8806,-1.9912,-2.0379,-2.037,-1.9795,-1.9738,-1.9835,-1.9835,-2.0465,-2.1278,-2.1942,-2.2178,-2.2275,-2.2275,-2.2275,-2.2363,-2.2646,-2.1708,-2.0545,-1.9438,-1.8131,-1.6733,-1.535,-1.5068,-1.5042,-1.5129,-1.5149,-1.5182,-1.5224,-1.5237,-1.5124,-1.4823,-1.4897,-1.4841,-1.4396,-1.4649,-1.4776,-1.4663,-1.4901,-1.487,-1.4663,-1.4901,-1.4814,-1.4405,-1.4563,-1.4663,-1.4663,-1.5157,-1.5398,-1.5404,-1.5698,-1.5784,-1.5784,-1.5784,-1.5784,-1.5784,-1.5784,-1.5784,-1.5784,-1.5784,-1.5784,-1.5784,-1.5784,-1.5784,-1.5784,-2.4404,-2.4404,-2.4277,-2.3857,-2.3779,-2.3211,-2.1579,-2.1293,-2.1293,-2.1293,-2.2265,-2.3431,-2.4649,-2.4787,-2.4787,-2.4787,-2.3757,-2.3091,-2.3091,-2.1702,-2.1018,-2.1266,-2.1284,-2.0702,-1.9488,-1.9488,-1.891,-1.7692,-1.7333,-1.6427,-1.5001,-1.4656,-1.4362,-1.413,-1.413,-1.413,-1.4088,-1.4088,-1.4692,-1.5703,-1.5696,-1.6355,-1.7302,-1.7302,-1.7302,-1.7464,-1.8598,-1.827,-1.7514,-1.8909,-1.8661,-1.7819,-1.8128,-1.854,-1.8879,-1.8827,-1.9118,-1.9497,-1.9497,-1.9488,-1.9994,-2.1997,-2.2789,-2.3047,-2.3047,-2.3047,-2.3047,-2.3047,-2.2129,-2.0935,-1.9724,-1.8243,-1.6813,-1.5621,-1.5157,-1.5115,-1.5357,-1.5398,-1.5504,-1.5751,-1.5784,-1.5712,-1.5424,-1.5182,-1.5015,-1.5008,-1.4696,-1.4656,-1.5001,-1.5015,-1.5015,-1.5015,-1.5015,-1.5015,-1.5015,-1.5015,-1.5015,-1.5015,-1.5257,-1.5398,-1.5411,-1.5698,-1.5784,-1.5784,-1.5784,-1.5784,-1.5784,-1.5784,-1.5784,-1.5784,-1.5784,-1.5784,-1.5784,-1.5784,-1.5784,-1.5784,-2.3328,-2.3481,-2.3442,-2.3315,-2.3286,-2.3149,-2.2652,-2.1845,-2.1293,-2.1293,-2.1595,-2.1931,-2.2293,-2.3086,-2.3594,-2.3594,-2.3299,-2.2974,-2.2715,-2.1543,-2.0427,-1.9305,-1.9596,-1.9153,-1.7894,-1.8103,-1.763,-1.6386,-1.6081,-1.599,-1.6117,-1.5792,-1.5475,-1.522,-1.522,-1.4817,-1.4088,-1.4088,-1.4292,-1.4657,-1.5421,-1.5902,-1.6273,-1.7009,-1.7302,-1.7334,-1.7706,-1.709,-1.637,-1.7539,-1.7204,-1.657,-1.7926,-1.8225,-1.8034,-1.8034,-1.8149,-1.8234,-1.8234,-1.8864,-1.9654,-2.0266,-2.0506,-2.0584,-2.0584,-2.0584,-2.0584,-2.0584,-2.0305,-1.9679,-1.8457,-1.7872,-1.7118,-1.5879,-1.5625,-1.5605,-1.5691,-1.5698,-1.5732,-1.5771,-1.5784,-1.5712,-1.5424,-1.5504,-1.5404,-1.5035,-1.507,-1.5264,-1.5558,-1.5571,-1.5478,-1.5277,-1.5464,-1.5471,-1.5271,-1.5264,-1.5264,-1.5271,-1.5565,-1.5698,-1.5705,-1.5744,-1.5784,-1.5784,-1.5784,-1.5784,-1.5784,-1.5784,-1.5784,-1.5784,-1.5784,-1.5784,-1.5784,-1.5784,-1.5784,-1.5784,-2.229,-2.2909,-2.334,-2.312,-2.3091,-2.295,-2.2448,-2.1346,-2.0576,-2.0576,-2.0576,-2.0755,-2.1248,-2.2403,-2.3091,-2.3091,-2.3091,-2.2984,-2.273,-2.1016,-1.9557,-1.851,-1.7842,-1.7183,-1.6495,-1.6772,-1.6574,-1.5784,-1.6159,-1.6428,-1.6631,-1.6863,-1.6764,-1.6322,-1.5997,-1.5455,-1.4699,-1.4372,-1.4195,-1.4166,-1.4817,-1.5054,-1.5137,-1.5794,-1.6084,-1.6232,-1.6682,-1.6232,-1.5611,-1.6788,-1.6541,-1.5922,-1.6883,-1.7069,-1.6943,-1.6943,-1.6943,-1.6943,-1.6943,-1.749,-1.8033,-1.8033,-1.8756,-1.9497,-1.9497,-1.9497,-1.9497,-1.9497,-1.9497,-1.9131,-1.7917,-1.7692,-1.7271,-1.6015,-1.5784,-1.5784,-1.5784,-1.5784,-1.5784,-1.5784,-1.5784,-1.5758,-1.5585,-1.5625,-1.5511,-1.5164,-1.5404,-1.5645,-1.5771,-1.5784,-1.5752,-1.5571,-1.5738,-1.5698,-1.5571,-1.5565,-1.5565,-1.5571,-1.5698,-1.5784,-1.5784,-1.5784,-1.5784,-1.5784,-1.5784,-1.5784,-1.5784,-1.5784,-1.5784,-1.5784,-1.5784,-1.5784,-1.5784,-1.5784,-1.5784,-1.5784,-2.1419,-2.2645,-2.3603,-2.3169,-2.3091,-2.2721,-2.1614,-2.044,-1.967,-1.967,-1.967,-2.0079,-2.1159,-2.2403,-2.3091,-2.3091,-2.3091,-2.3081,-2.3042,-2.0364,-1.875,-1.8587,-1.6419,-1.5298,-1.5568,-1.5725,-1.5879,-1.5967,-1.7102,-1.7417,-1.6976,-1.8078,-1.8187,-1.7531,-1.6676,-1.6104,-1.5725,-1.4904,-1.4389,-1.4128,-1.4128,-1.4108,-1.4088,-1.4088,-1.4269,-1.4596,-1.5569,-1.5531,-1.5176,-1.6404,-1.6352,-1.5745,-1.5478,-1.5591,-1.5784,-1.5784,-1.5784,-1.5784,-1.5784,-1.5784,-1.5784,-1.5784,-1.7483,-1.9169,-1.9169,-1.9169,-1.9169,-1.9169,-1.9169,-1.881,-1.7731,-1.7552,-1.7131,-1.5967,-1.5784,-1.5784,-1.5784,-1.5784,-1.5784,-1.5784,-1.5784,-1.5784,-1.5784,-1.5591,-1.5438,-1.5438,-1.5678,-1.5784,-1.5784,-1.5784,-1.5784,-1.5784,-1.5784,-1.5784,-1.5784,-1.5784,-1.5784,-1.5784,-1.5784,-1.5784,-1.5784,-1.5784,-1.5784,-1.5784,-1.5784,-1.5784,-1.5784,-1.5784,-1.5784,-1.5784,-1.5784,-1.5784,-1.5784,-1.5784,-1.5784,-1.5784,-2.147,-2.2528,-2.3208,-2.311,-2.3091,-2.3003,-2.2775,-2.1667,-2.089,-2.089,-2.089,-2.1025,-2.1293,-2.2403,-2.3091,-2.3091,-2.3091,-2.2955,-2.2676,-2.1225,-1.9843,-1.851,-1.7322,-1.674,-1.6806,-1.6133,-1.6292,-1.7271,-1.7316,-1.8174,-1.9826,-1.983,-1.9727,-1.9525,-1.8386,-1.7392,-1.6466,-1.5355,-1.4696,-1.4429,-1.4429,-1.4289,-1.4088,-1.4088,-1.4269,-1.4489,-1.4547,-1.4726,-1.506,-1.5338,-1.5472,-1.5478,-1.5418,-1.5591,-1.5784,-1.5784,-1.5784,-1.5784,-1.5784,-1.5784,-1.5784,-1.5784,-1.6197,-1.6608,-1.6608,-1.6608,-1.6608,-1.6608,-1.6608,-1.652,-1.6244,-1.6204,-1.6103,-1.5825,-1.5784,-1.5784,-1.5784,-1.5784,-1.5784,-1.5784,-1.5784,-1.5784,-1.5784,-1.5772,-1.5684,-1.5684,-1.5792,-1.5784,-1.5784,-1.5784,-1.5784,-1.5784,-1.5784,-1.5784,-1.5784,-1.5784,-1.5784,-1.5784,-1.5784,-1.5784,-1.5784,-1.5784,-1.5784,-1.5784,-1.5784,-1.5784,-1.5784,-1.5784,-1.5784,-1.5784,-1.5784,-1.5784,-1.5784,-1.5784,-1.5784,-1.5784,-2.0477,-2.1717,-2.2704,-2.3042,-2.3091,-2.3091,-2.3091,-2.2076,-2.1293,-2.1293,-2.1293,-2.1293,-2.1311,-2.2359,-2.3091,-2.3091,-2.3091,-2.3003,-2.2779,-2.1581,-2.0496,-1.9635,-1.8624,-1.8105,-1.8105,-1.7766,-1.7894,-1.8549,-1.8974,-1.9679,-2.0716,-2.1126,-2.087,-2.0036,-1.9022,-1.7874,-1.6646,-1.5632,-1.5003,-1.473,-1.473,-1.4556,-1.4309,-1.4449,-1.4603,-1.473,-1.4716,-1.4997,-1.5357,-1.5217,-1.5364,-1.5578,-1.5438,-1.5591,-1.5784,-1.5784,-1.5784,-1.5784,-1.5784,-1.5784,-1.5784,-1.5784,-1.5784,-1.5784,-1.5784,-1.5784,-1.5784,-1.5784,-1.5784,-1.5784,-1.5784,-1.5784,-1.5784,-1.5784,-1.5784,-1.5784,-1.5784,-1.5784,-1.5784,-1.5784,-1.5784,-1.5784,-1.5784,-1.5784,-1.5784,-1.5784,-1.5784,-1.5784,-1.5784,-1.5784,-1.5784,-1.5784,-1.5784,-1.5784,-1.5784,-1.5784,-1.5784,-1.5784,-1.5784,-1.5784,-1.5784,-1.5784,-1.5784,-1.5784,-1.5784,-1.5784,-1.5784,-1.5784,-1.5784,-1.5784,-1.5784,-1.5784,-1.5784,-1.5784,-1.5784,-1.5784,-1.9407,-2.0807,-2.2134,-2.2974,-2.3091,-2.3091,-2.3091,-2.2262,-2.1614,-2.1614,-2.1614,-2.1623,-2.1606,-2.2511,-2.3091,-2.3091,-2.3091,-2.3091,-2.3091,-2.1942,-2.1172,-2.0989,-2.0017,-1.9362,-1.9184,-1.9385,-1.9579,-1.9807,-2.08,-2.1219,-2.1129,-2.1935,-2.1532,-2.0157,-1.9079,-1.7945,-1.6736,-1.5856,-1.5304,-1.5082,-1.5082,-1.4856,-1.4623,-1.487,-1.5042,-1.5109,-1.5251,-1.5504,-1.5678,-1.5531,-1.5631,-1.5738,-1.5545,-1.5631,-1.5784,-1.5784,-1.5784,-1.5784,-1.5784,-1.5784,-1.5784,-1.5784,-1.5784,-1.5784,-1.5784,-1.5784,-1.5784,-1.5784,-1.5784,-1.5784,-1.5784,-1.5784,-1.5784,-1.5784,-1.5784,-1.5784,-1.5784,-1.5784,-1.5784,-1.5784,-1.5784,-1.5784,-1.5784,-1.5784,-1.5784,-1.5784,-1.5784,-1.5784,-1.5784,-1.5784,-1.5784,-1.5784,-1.5784,-1.5784,-1.5784,-1.5784,-1.5784,-1.5784,-1.5784,-1.5784,-1.5784,-1.5784,-1.5784,-1.5784,-1.5784,-1.5784,-1.5784,-1.5784,-1.5784,-1.5784,-1.5784,-1.5784,-1.5784,-1.5784,-1.5784,-1.5784,-1.9575,-2.0654,-2.1776,-2.2916,-2.3091,-2.3091,-2.3091,-2.296,-2.2862,-2.2862,-2.2862,-2.2862,-2.2872,-2.3003,-2.3091,-2.3091,-2.3091,-2.3091,-2.3091,-2.2902,-2.2362,-2.1309,-2.1078,-2.0497,-1.9468,-1.9464,-2.0034,-2.1069,-2.1203,-2.1817,-2.2775,-2.1859,-2.1327,-2.1051,-1.8814,-1.7733,-1.7465,-1.6263,-1.5605,-1.5337,-1.5337,-1.5164,-1.4955,-1.4995,-1.5117,-1.5311,-1.5142,-1.5211,-1.5484,-1.5698,-1.5751,-1.5771,-1.5785,-1.5751,-1.5784,-1.5784,-1.5784,-1.5784,-1.5784,-1.5784,-1.5784,-1.5784,-1.5784,-1.5784,-1.5784,-1.5784,-1.5784,-1.5784,-1.5784,-1.5784,-1.5784,-1.5784,-1.5784,-1.5784,-1.5784,-1.5784,-1.5784,-1.5784,-1.5784,-1.5784,-1.5784,-1.5784,-1.5784,-1.5784,-1.5784,-1.5784,-1.5784,-1.5784,-1.5784,-1.5784,-1.5784,-1.5784,-1.5784,-1.5784,-1.5784,-1.5784,-1.5784,-1.5784,-1.5784,-1.5784,-1.5784,-1.5784,-1.5784,-1.5784,-1.5784,-1.5784,-1.5784,-1.5784,-1.5784,-1.5784,-1.5784,-1.5784,-1.5784,-1.5784,-1.5784,-1.5784,-1.8419,-1.9014,-1.9906,-2.1765,-2.2076,-2.2306,-2.3003,-2.3091,-2.3091,-2.3091,-2.3091,-2.3091,-2.3091,-2.3091,-2.3091,-2.3091,-2.3091,-2.3091,-2.3091,-2.3091,-2.2862,-2.235,-2.2306,-2.1756,-2.0522,-2.0531,-2.044,-2.0305,-2.0305,-2.0576,-2.1087,-2.0531,-1.9943,-1.9222,-1.8187,-1.7318,-1.6608,-1.5886,-1.5605,-1.5625,-1.5464,-1.5317,-1.5224,-1.5384,-1.5424,-1.5398,-1.5438,-1.5531,-1.5658,-1.5738,-1.5784,-1.5784,-1.5784,-1.5784,-1.5784,-1.5784,-1.5784,-1.5784,-1.5784,-1.5784,-1.5784,-1.5784,-1.5784,-1.5784,-1.5784,-1.5784,-1.5784,-1.5784,-1.5784,-1.5784,-1.5784,-1.5784,-1.5784,-1.5784,-1.5784,-1.5784,-1.5784,-1.5784,-1.5784,-1.5784,-1.5784,-1.5784,-1.5784,-1.5784,-1.5784,-1.5784,-1.5784,-1.5784,-1.5784,-1.5784,-1.5784,-1.5784,-1.5784,-1.5784,-1.5784,-1.5784,-1.5784,-1.5784,-1.5784,-1.5784,-1.5784,-1.5784,-1.5784,-1.5784,-1.5784,-1.5784,-1.5784,-1.5784,-1.5784,-1.5784,-1.5784,-1.5784,-1.5784,-1.5784,-1.5784,-1.5784]},{"header":{"parameterUnit":"m.s-1","parameterCategory":1,"la1":30.6,"la2":28.766,"lo1":-90.7593,"lo2":-88.6598,"dy":0.0162,"dx":0.0183,"nx":116,"ny":114,"refTime":"2023-10-04T12:00:00:Z","depth":0,"parameterNumber":3,"parameterNumberName":"V-component_of_WINDS"},"data":[0.0,0.0,0.0,0.0,0.0,0.0,0.0,0.0,0.0,0.0,0.0,0.0,0.0,0.0,0.0,0.0,0.0,0.0,0.0,0.0,0.0,0.0,0.0,0.0,0.0,0.0,0.0,0.0,0.0,0.0,0.0,0.0,0.0,0.0,0.0,0.0,0.0,0.0,0.0,0.0,0.0,0.0,0.0,0.0,0.0,0.0,0.0,0.0,0.0,0.0,0.0,0.0,0.0,0.0,0.0,0.0,0.0,0.0,0.0,0.0,0.0,0.0,0.0,0.0,0.0,0.0,0.0,0.0,0.0,0.0,0.0,0.0,0.0,0.0,0.0,0.0,0.0,0.0,0.0,0.0,0.0,0.0,0.0,0.0,0.0,0.0,0.0,0.0,0.0,0.0,0.0,0.0,0.0,0.0,0.0,0.0,0.0,0.0,0.0,0.0,0.0,0.0,0.0,0.0,0.0,0.0,0.0,0.0,0.0,0.0,0.0,0.0,0.0,0.0,0.0,0.0,0.0,0.0,0.0,0.0,0.0,0.0,0.0,0.0,0.0,0.0,0.0,0.0,0.0,0.0,0.0,0.0,0.0,0.0,0.0,0.0,0.0,0.0,0.0,0.0,0.0,0.0,0.0,0.0,0.0,0.0,0.0,0.0,0.0,0.0,0.0,0.0,0.0,0.0,0.0,0.0,0.0,0.0,0.0,0.0,0.0,0.0,0.0,0.0,0.0,0.0,0.0,0.0,0.0,0.0,0.0,0.0,0.0,0.0,0.0,0.0,0.0,0.0,0.0,0.0,0.0,0.0,0.0,0.0,0.0,0.0,0.0,0.0,0.0,0.0,0.0,0.0,0.0,0.0,0.0,0.0,0.0,0.0,0.0,0.0,0.0,0.0,0.0,0.0,0.0,0.0,0.0,0.0,0.0,0.0,0.0,0.0,0.0,0.0,0.0,0.0,0.0,0.0,0.0,0.0,0.0,0.0,0.0,0.0,0.0,0.0,0.0,0.0,0.0,0.0,0.0,0.0,0.0,0.0,0.0,0.0,0.0,0.0,0.0,0.0,0.0,0.0,0.0,0.0,0.0,0.0,0.0,0.0,0.0,0.0,0.0,0.0,0.0,0.0,0.0,0.0,0.0,0.0,0.0,0.0,0.0,0.0,0.0,0.0,0.0,0.0,0.0,0.0,0.0,0.0,0.0,0.0,0.0,0.0,0.0,0.0,0.0,0.0,0.0,0.0,0.0,0.0,0.0,0.0,0.0,0.0,0.0,0.0,0.0,0.0,0.0,0.0,0.0,0.0,0.0,0.0,0.0,0.0,0.0,0.0,0.0,0.0,0.0,0.0,0.0,0.0,0.0,0.0,0.0,0.0,0.0,0.0,0.0,0.0,0.0,0.0,0.0,0.0,0.0,0.0,0.0,0.0,0.0,0.0,0.0,0.0,0.0,0.0,0.0,0.0,0.0,0.0,0.0,0.0,0.0,0.0,0.0,0.0,0.0,0.0,0.0,0.0,0.0,0.0,0.0,0.0,0.0,0.0,0.0,0.0,0.0,0.0,0.0,0.0,0.0,0.0,0.0,0.0,0.0,0.0,0.0,0.0,0.0,0.0,0.0,0.0,0.0,0.0,0.0,0.0,0.0,0.0,0.0,0.0,0.0,0.0,0.0,0.0,0.0,0.0,0.0,0.0,0.0,0.0,0.0,0.0,0.0,0.0,0.0,0.0,0.0,0.0,0.0,0.0,0.0,0.0,0.0,0.0,0.0,0.0,0.0,0.0,0.0,0.0,0.0,0.0,0.0,0.0,0.0,0.0,0.0,0.0,0.0,0.0,0.0,0.0,0.0,0.0,0.0,0.0,0.0,0.0,0.0,0.0,0.0,0.0,0.0,0.0,0.0,0.0,0.0,0.0,0.0,0.0,0.0,0.0,0.0,0.0,0.0,0.0,0.0,0.0,0.0,0.0,0.0,0.0,0.0,0.0,0.0,0.0,0.0,0.0,0.0,0.0,0.0,0.0,0.0,0.0,0.0,0.0,0.0,0.0,0.0,0.0,0.0,0.0,0.0,0.0,0.0,0.0,0.0,0.0,0.0,0.0,0.0,0.0,0.0,0.0,0.0,0.0,0.0,0.0,0.0,0.0,0.0,0.0,0.0,0.0,0.0,0.0,0.0,0.0,0.0,0.0,0.0,0.0,0.0,0.0,0.0,0.0,0.0,0.0,0.0,0.0,0.0,0.0,0.0,0.0,0.0,0.0,0.0,0.0,0.0,0.0,0.0,0.0,0.0,0.0,0.0,0.0,0.0,0.0,0.0,0.0,0.0,0.0,0.0,0.0,0.0,0.0,0.0,0.0,0.0,0.0,0.0,0.0,0.0,0.0,0.0,0.0,0.0,0.0,0.0,0.0,0.0,0.0,0.0,0.0,0.0,0.0,0.0,0.0,0.0,0.0,0.0,0.0,0.0,0.0,0.0,0.0,0.0,0.0,0.0,0.0,0.0,0.0,0.0,0.0,0.0,0.0,0.0,0.0,0.0,0.0,0.0,0.0,0.0,0.0,0.0,0.0,0.0,0.0,0.0,0.0,0.0,0.0,0.0,0.0,0.0,0.0,0.0,0.0,0.0,0.0,0.0,0.0,0.0,0.0,0.0,0.0,0.0,0.0,0.0,0.0,0.0,0.0,0.0,0.0,0.0,0.0,0.0,0.0,0.0,0.0,0.0,0.0,0.0,0.0,0.0,0.0,0.0,0.0,0.0,0.0,0.0,0.0,0.0,0.0,0.0,0.0,0.0,0.0,0.0,0.0,0.0,0.0,0.0,0.0,0.0,0.0,0.0,0.0,0.0,0.0,0.0,0.0,0.0,0.0,0.0,0.0,0.0,0.0,0.0,0.0,0.0,0.0,0.0,0.0,0.0,0.0,0.0,0.0,0.0,0.0,0.0,0.0,0.0,0.0,0.0,0.0,0.0,0.0,0.0,0.0,0.0,0.0,0.0,0.0,0.0,0.0,0.0,0.0,0.0,0.0,0.0,0.0,0.0,0.0,0.0,0.0,0.0,0.0,0.0,0.0,0.0,0.0,0.0,0.0,0.0,0.0,0.0,0.0,0.0,0.0,0.0,0.0,0.0,0.0,0.0,0.0,0.0,0.0,0.0,0.0,0.0,0.0,0.0,0.0,0.0,0.0,0.0,0.0,0.0,0.0,0.0,0.0,0.0,0.0,0.0,0.0,0.0,0.0,0.0,0.0,0.0,0.0,0.0,0.0,0.0,0.0,0.0,0.0,0.0,0.0,0.0,0.0,0.0,0.0,0.0,0.0,0.0,0.0,0.0,0.0,0.0,0.0,0.0,0.0,0.0,0.0,0.0,0.0,0.0,0.0,0.0,0.0,0.0,0.0,0.0,0.0,0.0,0.0,0.0,0.0,0.0,0.0,0.0,0.0,0.0,0.0,0.0,0.0,0.0,0.0,0.0,0.0,0.0,0.0,0.0,0.0,0.0,0.0,0.0,0.0,0.0,0.0,0.0,0.0,0.0,0.0,0.0,0.0,0.0,0.0,0.0,0.0,0.0,0.0,0.0,0.0,0.0,0.0,0.0,0.0,0.0,0.0,0.0,0.0,0.0,0.0,0.0,0.0,0.0,0.0,0.0,0.0,0.0,0.0,0.0,0.0,0.0,0.0,0.0,0.0,0.0,0.0,0.0,0.0,0.0,0.0,0.0,0.0,0.0,0.0,0.0,0.0,0.0,0.0,0.0,0.0,0.0,0.0,0.0,0.0,0.0,0.0,0.0,0.0,0.0,0.0,0.0,0.0,0.0,0.0,0.0,0.0,0.0,0.0,0.0,0.0,0.0,0.0,0.0,0.0,0.0,0.0,0.0,0.0,0.0,0.0,0.0,0.0,0.0,0.0,0.0,0.0,0.0,0.0,0.0,0.0,0.0,0.0,0.0,0.0,0.0,0.0,0.0,0.0,0.0,0.0,0.0,0.0,0.0,0.0,0.0,0.0,0.0,0.0,0.0,0.0,0.0,0.0,0.0,0.0,0.0,0.0,0.0,0.0,0.0,0.0,0.0,0.0,0.0,0.0,0.0,0.0,0.0,0.0,0.0,0.0,0.0,0.0,0.0,0.0,0.0,0.0,0.0,0.0,0.0,0.0,0.0,0.0,0.0,0.0,0.0,0.0,0.0,0.0,0.0,0.0,0.0,0.0,0.0,0.0,0.0,0.0,0.0,0.0,0.0,0.0,0.0,0.0,0.0,0.0,0.0,0.0,0.0,0.0,0.0,0.0,0.0,0.0,0.0,0.0,0.0,0.0,0.0,0.0,0.0,0.0,0.0,0.0,0.0,0.0,0.0,0.0,0.0,0.0,0.0,0.0,0.0,0.0,0.0,0.0,0.0,0.0,0.0,0.0,0.0,0.0,0.0,0.0,0.0,0.0,0.0,0.0,0.0,0.0,0.0,0.0,0.0,0.0,0.0,0.0,0.0,0.0,0.0,0.0,0.0,0.0,0.0,0.0,0.0,0.0,0.0,0.0,0.0,0.0,0.0,0.0,0.0,0.0,0.0,0.0,0.0,0.0,0.0,0.0,0.0,0.0,0.0,0.0,0.0,0.0,0.0,0.0,0.0,0.0,0.0,0.0,0.0,0.0,0.0,0.0,0.0,0.0,0.0,0.0,0.0,0.0,0.0,0.0,0.0,0.0,0.0,0.0,0.0,0.0,0.0,0.0,0.0,0.0,0.0,0.0,0.0,0.0,0.0,0.0,0.0,0.0,0.0,0.0,0.0,0.0,0.0,0.0,0.0,0.0,0.0,0.0,0.0,0.0,0.0,0.0,0.0,0.0,0.0,0.0,0.0,0.0,0.0,0.0,0.0,0.0,0.0,0.0,0.0,0.0,0.0,0.0,0.0,0.0,0.0,0.0,0.0,0.0,0.0,0.0,0.0,0.0,0.0,0.0,0.0,0.0,0.0,0.0,0.0,0.0,0.0,0.0,0.0,0.0,0.0,0.0,0.0,0.0,0.0,0.0,0.0,0.0,0.0,0.0,0.0,0.0,0.0,0.0,0.0,0.0,0.0,0.0,0.0,0.0,0.0,0.0,0.0,0.0,0.0,0.0,0.0,0.0,0.0,0.0,0.0,0.0,0.0,0.0,0.0,0.0,0.0,0.0,0.0,0.0,0.0,0.0,0.0,0.0,0.0,0.0,0.0,0.0,0.0,0.0,0.0,0.0,0.0,0.0,0.0,0.0,0.0,0.0,0.0,0.0,0.0,0.0,0.0,0.0,0.0,0.0,0.0,0.0,0.0,0.0,0.0,0.0,0.0,0.0,0.0,0.0,0.0,0.0,0.0,0.0,0.0,0.0,0.0,0.0,0.0,0.0,0.0,0.0,0.0,0.0,0.0,0.0,0.0,0.0,0.0,0.0,0.0,0.0,0.0,0.0,0.0,0.0,0.0,0.0,0.0,0.0,0.0,0.0,0.0,0.0,0.0,0.0,0.0,0.0,0.0,0.0,0.0,0.0,0.0,0.0,0.0,0.0,0.0,0.0,0.0,0.0,0.0,0.0,0.0,0.0,0.0,0.0,0.0,0.0,0.0,0.0,0.0,0.0,0.0,0.0,0.0,0.0,0.0,0.0,0.0,0.0,0.0,0.0,0.0,0.0,0.0,0.0,0.0,0.0,0.0,0.0,0.0,0.0,0.0,0.0,0.0,0.0,0.0,0.0,0.0,0.0,0.0,0.0,0.0,0.0,0.0,0.0,0.0,0.0,0.0,0.0,0.0,0.0,0.0,0.0,0.0,0.0,0.0,0.0,0.0,0.0,0.0,0.0,0.0,0.0,0.0,0.0,0.0,0.0,0.0,0.0,0.0,0.0,0.0,0.0,0.0,0.0,0.0,0.0,0.0,0.0,0.0,0.0,0.0,0.0,0.0,0.0,0.0,0.0,0.0,0.0,0.0,0.0,0.0,0.0,0.0,0.0,0.0,0.0,0.0,0.0,0.0,0.0,0.0,0.0,0.0,0.0,0.0,0.0,0.0,0.0,0.0,0.0,0.0,0.0,0.0,0.0,0.0,0.0,0.0,0.0,0.0,0.0,2.7661,2.6218,0.0,0.0,0.0,0.0,0.0,0.0,0.0,0.0,0.0,0.0,0.0,0.0,0.0,0.0,0.0,0.0,0.0,0.0,0.0,0.0,0.0,0.0,0.0,0.0,0.0,0.0,0.0,0.0,0.0,0.0,0.0,0.0,0.0,0.0,0.0,0.0,0.0,1.9464,1.9848,1.9992,1.9988,2.0144,1.9641,1.8585,0.0,0.0,0.0,0.0,0.0,0.0,0.0,0.0,0.0,0.0,0.0,0.0,0.0,0.0,0.0,0.0,0.0,0.0,0.0,0.0,0.0,0.0,0.0,0.0,0.0,0.0,0.0,0.0,0.0,0.0,0.0,0.0,0.0,0.0,0.0,0.0,0.0,0.0,0.0,0.0,0.0,0.0,0.0,0.0,0.0,0.0,0.0,0.0,0.0,0.0,0.0,0.0,0.0,0.0,0.0,0.0,0.0,0.0,0.0,0.0,0.0,0.0,0.0,0.0,0.0,0.0,0.0,0.0,0.0,0.0,3.064,2.8555,0.0,0.0,0.0,0.0,0.0,0.0,0.0,0.0,0.0,0.0,0.0,0.0,0.0,0.0,0.0,0.0,0.0,0.0,0.0,0.0,0.0,0.0,0.0,1.5114,1.5163,1.5138,1.527,1.5328,0.0,0.0,0.0,0.0,0.0,0.0,1.9608,1.9394,1.9413,1.9622,2.0767,2.1818,2.2748,2.2731,2.1917,2.0435,1.9982,0.0,0.0,0.0,0.0,0.0,0.0,0.0,0.0,0.0,0.0,0.0,0.0,0.0,0.0,0.0,0.0,0.0,0.0,0.0,0.0,0.0,0.0,0.0,0.0,0.0,0.0,0.0,0.0,0.0,0.0,0.0,0.0,0.0,0.0,0.0,0.0,0.0,0.0,0.0,0.0,0.0,0.0,0.0,0.0,0.0,0.0,0.0,0.0,0.0,0.0,0.0,0.0,0.0,0.0,0.0,0.0,0.0,0.0,0.0,0.0,0.0,0.0,0.0,3.4418,3.5773,3.6447,3.7372,3.7668,3.7289,3.5021,3.2406,2.9771,3.0047,0.0,0.0,0.0,0.0,0.0,0.0,0.0,0.0,0.0,0.0,0.0,0.0,0.0,0.0,0.0,0.0,0.0,0.0,0.0,1.5177,1.5177,1.5843,1.6218,1.6046,1.6711,1.7066,1.6838,0.0,0.0,0.0,0.0,0.0,1.9608,1.9394,1.9838,2.0955,2.2601,2.4195,2.5725,2.5666,2.5868,2.617,2.3034,2.2317,2.3281,0.0,0.0,0.0,0.0,0.0,0.0,0.0,0.0,0.0,0.0,0.0,0.0,0.0,0.0,0.0,0.0,0.0,0.0,0.0,0.0,0.0,0.0,0.0,0.0,0.0,0.0,0.0,0.0,0.0,0.0,0.0,0.0,0.0,0.0,0.0,0.0,0.0,0.0,0.0,0.0,0.0,2.2126,2.2255,0.0,0.0,0.0,0.0,0.0,0.0,0.0,0.0,0.0,0.0,0.0,0.0,0.0,3.1981,3.2436,3.6085,3.7168,3.5711,3.9935,4.1159,3.9728,4.1118,4.211,4.2648,4.1711,0.0,3.4208,3.2602,0.0,0.0,0.0,0.0,0.0,0.0,0.0,0.0,0.0,0.0,0.0,0.0,0.0,0.0,0.0,0.0,0.0,0.0,0.0,0.0,0.0,1.6701,1.7357,1.7685,1.9332,1.9696,1.8104,1.9142,0.0,0.0,1.8656,1.9073,1.9701,1.9631,2.0857,2.346,2.6214,2.8229,2.9501,2.9934,3.0289,3.0527,2.8829,2.6754,2.4465,2.3303,0.0,0.0,0.0,0.0,0.0,0.0,0.0,0.0,0.0,0.0,0.0,0.0,0.0,0.0,0.0,0.0,0.0,0.0,0.0,0.0,0.0,0.0,0.0,0.0,0.0,0.0,0.0,0.0,0.0,0.0,0.0,0.0,0.0,0.0,0.0,0.0,0.0,0.0,0.0,2.2468,2.3693,2.375,2.4338,2.4207,0.0,0.0,0.0,0.0,0.0,0.0,0.0,0.0,0.0,3.2807,3.4476,3.5691,3.6379,3.9823,4.138,4.1056,4.3536,4.4982,4.5481,4.567,4.6454,4.7585,4.681,4.4939,4.2157,3.8278,3.578,3.4245,0.0,0.0,0.0,0.0,3.2237,3.3531,0.0,0.0,0.0,0.0,0.0,0.0,0.0,0.0,0.0,0.0,0.0,0.0,1.6974,1.8417,1.9628,2.0349,2.2139,2.2119,1.948,2.0384,2.0212,1.8359,1.8589,1.9132,1.9868,2.1029,2.3351,2.6888,3.0241,3.2372,3.3356,3.414,3.4487,3.4419,3.4274,3.1586,2.7087,2.5823,2.4324,2.2626,0.0,0.0,0.0,0.0,0.0,0.0,0.0,0.0,0.0,0.0,0.0,0.0,0.0,0.0,0.0,0.0,0.0,0.0,0.0,0.0,0.0,0.0,0.0,0.0,0.0,0.0,0.0,0.0,0.0,0.0,0.0,0.0,0.0,0.0,0.0,0.0,0.0,2.4517,2.5721,2.5321,2.6587,2.6872,0.0,0.0,0.0,0.0,0.0,0.0,3.3724,3.5268,3.6599,3.7582,3.8941,4.004,4.0841,4.3656,4.5362,4.5973,4.6973,4.8404,5.0122,4.9631,5.005,5.1169,5.0615,4.9875,4.8664,4.3195,3.969,3.7705,3.6915,3.6465,3.6274,3.6467,3.7066,3.8039,0.0,0.0,0.0,0.0,0.0,0.0,0.0,0.0,0.0,0.0,0.0,1.7636,1.8491,2.1532,2.3768,2.444,2.4799,2.3836,2.1158,2.1056,1.9975,1.7476,1.894,1.9916,2.0088,2.4335,2.8169,3.1467,3.4252,3.6075,3.6955,3.7704,3.804,3.8033,3.8029,3.6288,3.3086,2.8932,2.7532,2.7684,2.2753,0.0,0.0,0.0,0.0,0.0,0.0,0.0,0.0,0.0,0.0,0.0,0.0,0.0,0.0,0.0,0.0,0.0,0.0,0.0,0.0,0.0,0.0,0.0,0.0,0.0,0.0,0.0,0.0,0.0,0.0,0.0,0.0,0.0,0.0,0.0,0.0,0.0,0.0,2.641,3.1184,0.0,0.0,0.0,0.0,3.3284,3.442,3.5729,3.7164,3.9544,4.1551,4.3061,4.4657,4.5865,4.6655,4.8423,4.931,4.9367,5.0937,5.1764,5.1899,5.2218,5.2425,5.2513,5.2856,5.25,5.1278,4.5574,4.3107,4.2637,3.9688,3.9013,3.9614,3.9254,4.0252,4.1874,0.0,0.0,0.0,0.0,0.0,0.0,0.0,0.0,1.5482,1.5994,1.7344,1.9187,2.1643,2.4317,2.6452,2.7764,2.8465,2.7572,2.4646,2.3393,2.1716,1.9324,1.9257,2.056,2.3388,2.7789,3.1153,3.342,3.6687,3.8709,3.9546,4.0444,4.1132,4.157,4.109,4.0224,3.88,3.38,3.0547,2.847,2.5254,2.2913,0.0,0.0,0.0,0.0,0.0,0.0,0.0,0.0,0.0,0.0,0.0,0.0,0.0,0.0,0.0,0.0,0.0,0.0,0.0,0.0,0.0,0.0,0.0,0.0,0.0,0.0,0.0,0.0,0.0,0.0,0.0,0.0,0.0,0.0,0.0,0.0,0.0,3.1172,3.4081,0.0,3.4383,3.4883,3.5852,3.73,4.0405,4.2724,4.3802,4.6021,4.7731,4.8812,4.907,4.9581,5.0361,5.1415,5.1926,5.1907,5.2496,5.3198,5.3973,5.3613,5.3866,5.4572,5.4199,5.3857,5.3345,5.0496,4.8668,4.7542,4.6177,4.584,4.609,4.5698,4.6129,4.6915,0.0,0.0,0.0,0.0,0.0,0.0,0.0,1.5293,1.5673,1.6697,1.858,2.1106,2.4385,2.7108,2.9348,3.1005,3.0748,2.9172,2.6024,2.3959,2.1715,1.9121,1.998,2.2681,2.7286,3.1333,3.4418,3.6492,3.9431,4.1155,4.1699,4.2357,4.2934,4.3375,4.2887,4.2596,4.2219,3.8413,3.4639,3.097,2.802,2.5875,2.4034,0.0,0.0,0.0,0.0,0.0,0.0,0.0,0.0,0.0,0.0,0.0,0.0,0.0,0.0,0.0,0.0,0.0,0.0,0.0,0.0,0.0,0.0,0.0,0.0,0.0,0.0,0.0,0.0,0.0,0.0,0.0,0.0,0.0,0.0,3.033,3.3554,3.5125,3.8089,3.9805,3.9247,4.0148,4.1355,4.2797,4.6269,4.8569,4.9098,5.0739,5.1903,5.2382,5.2056,5.2136,5.2675,5.3406,5.3781,5.3781,5.4068,5.4633,5.5347,5.4821,5.4839,5.528,5.5011,5.4741,5.4462,5.3882,5.2996,5.1859,5.0614,5.0259,5.0373,5.0109,5.0259,5.0518,0.0,0.0,0.0,0.0,0.0,0.0,1.5293,1.5308,1.582,1.7271,2.0191,2.3324,2.6459,2.9826,3.2497,3.4083,3.1464,2.8354,2.5179,2.2581,1.9837,1.6816,2.1235,2.6214,3.1487,3.4855,3.7956,4.0837,4.2533,4.3393,4.3412,4.3421,4.3445,4.3465,4.3445,4.3385,4.3227,4.2468,3.978,3.565,3.115,2.9578,2.9317,0.0,0.0,0.0,0.0,0.0,0.0,0.0,0.0,0.0,0.0,0.0,0.0,0.0,0.0,0.0,0.0,0.0,0.0,0.0,0.0,0.0,0.0,0.0,0.0,0.0,0.0,0.0,0.0,0.0,0.0,0.0,0.0,0.0,2.8806,3.4765,3.8786,3.8109,4.3322,4.6336,4.4701,4.7015,4.8967,4.9853,5.1689,5.2712,5.26,5.3357,5.3735,5.3609,5.3609,5.359,5.359,5.448,5.4928,5.4942,5.5793,5.6097,5.5912,5.5912,5.5408,5.4599,5.5388,5.5273,5.4619,5.5388,5.5716,5.5437,5.2611,5.1767,5.2103,5.2096,5.2323,5.2429,0.0,0.0,0.0,0.0,0.0,0.0,1.5305,1.5294,1.5619,1.6502,2.0332,2.395,2.6516,3.0667,3.3657,3.4694,3.1893,2.9015,2.6501,2.2981,2.0899,2.0706,2.3646,2.7926,3.3542,3.6397,3.9077,4.1672,4.2392,4.3057,4.37,4.4033,4.4521,4.5128,4.4584,4.4642,4.506,4.3637,4.2376,4.0935,3.6622,3.3786,3.1781,0.0,0.0,0.0,0.0,0.0,0.0,0.0,0.0,0.0,0.0,0.0,0.0,0.0,0.0,0.0,0.0,0.0,0.0,0.0,0.0,0.0,0.0,0.0,0.0,0.0,0.0,0.0,0.0,0.0,0.0,0.0,3.2773,3.5873,3.6111,3.8337,4.1266,4.4824,4.7302,4.9009,4.9731,5.0608,5.147,5.2336,5.3575,5.432,5.4379,5.3925,5.3681,5.3744,5.3565,5.3448,5.3448,5.4797,5.5535,5.5636,5.5867,5.6026,5.6128,5.6128,5.5987,5.5734,5.596,5.5941,5.5754,5.596,5.6057,5.5923,5.46,5.4329,5.4647,5.4362,5.3735,5.2886,0.0,0.0,0.0,0.0,0.0,0.0,1.5302,1.5297,1.5785,1.7132,2.0791,2.4315,2.7017,3.0291,3.2614,3.3408,3.0546,2.7598,2.4993,2.1846,2.1154,2.3543,2.6449,3.0238,3.5026,3.8128,4.0453,4.2033,4.2939,4.3639,4.4144,4.4556,4.5029,4.55,4.5214,4.535,4.5705,4.4794,4.4408,4.4161,4.1402,3.8817,3.6281,3.3338,3.1311,2.977,2.7729,2.7129,2.6847,2.3831,0.0,0.0,0.0,0.0,0.0,0.0,0.0,0.0,0.0,0.0,0.0,0.0,0.0,0.0,0.0,0.0,0.0,0.0,0.0,0.0,0.0,0.0,0.0,0.0,3.6933,4.1052,4.3556,4.4014,4.5495,4.9259,5.0779,5.2049,5.3356,5.3604,5.4192,5.5451,5.5476,5.5638,5.6036,5.5184,5.4412,5.3828,5.4294,5.4254,5.3574,5.5121,5.5954,5.6032,5.6032,5.6034,5.6066,5.6066,5.5858,5.5516,5.5847,5.5828,5.5595,5.5942,5.6125,0.0,0.0,0.0,0.0,0.0,5.463,5.3293,0.0,0.0,0.0,0.0,0.0,0.0,1.5302,1.5297,1.6083,1.8265,2.1248,2.4288,2.7256,2.9064,3.0393,3.1195,2.8246,2.5045,2.2005,2.0185,2.1211,2.5683,2.9193,3.2641,3.6047,3.9634,4.1633,4.2025,4.3715,4.4527,4.454,4.4884,4.5052,4.5063,4.5352,4.5504,4.5549,4.5661,4.5729,4.5725,4.5062,4.359,4.1397,3.759,3.6179,3.5844,3.2865,3.0904,2.9493,2.798,0.0,0.0,0.0,0.0,0.0,0.0,0.0,0.0,0.0,0.0,0.0,0.0,0.0,0.0,0.0,0.0,0.0,0.0,0.0,0.0,0.0,0.0,0.0,0.0,4.0353,4.4689,5.0346,5.05,5.0643,5.2288,5.3664,5.4857,5.5761,5.5952,5.6676,5.8215,5.7157,5.671,5.7344,5.6506,0.0,0.0,0.0,5.5224,5.3888,5.5341,5.6122,5.6238,5.6103,5.5939,5.5782,5.5831,5.5401,5.466,5.5426,5.5429,5.4922,5.5642,5.6038,5.6167,5.5734,5.5831,5.6191,5.6094,5.5005,5.3584,0.0,0.0,0.0,0.0,0.0,0.0,1.5203,1.5297,1.5851,1.7363,2.0351,2.3005,2.4735,2.7504,2.9555,3.0356,2.6906,2.3699,2.1399,2.0851,2.2867,2.7947,3.0649,3.3576,3.6898,3.9317,4.0903,4.1609,4.3293,4.4117,4.4117,4.4508,4.4714,4.4695,4.4757,4.4943,4.5201,4.5214,4.5381,4.5624,4.5483,4.4465,4.2874,4.1315,3.9955,3.8678,3.7292,3.752,3.7877,3.4087,3.3528,3.3907,3.0907,2.7859,0.0,0.0,0.0,0.0,0.0,0.0,0.0,0.0,0.0,0.0,0.0,0.0,0.0,0.0,0.0,0.0,0.0,0.0,0.0,4.1782,4.5773,4.9658,5.3259,5.3855,5.4446,5.5855,5.5126,5.5088,5.6599,5.6776,5.6923,5.7251,5.7658,5.7699,5.7261,5.5709,5.4412,5.3517,5.3663,5.3969,5.4361,5.4998,5.5714,5.6512,0.0,0.0,5.511,5.542,5.5475,5.5333,5.5872,5.6024,5.5923,5.6083,5.6152,5.6196,5.6101,5.6131,5.6114,5.5418,5.4484,5.3506,0.0,0.0,0.0,0.0,0.0,0.0,1.4639,1.5036,1.568,1.675,1.8946,2.1108,2.2986,2.4624,2.6031,2.71,2.4109,2.2287,2.2633,2.3147,2.5403,2.9799,3.2437,3.4749,3.6768,3.8851,4.0233,4.0908,4.2538,4.3507,4.3775,4.4136,4.429,4.4304,4.4514,4.4682,4.4849,4.4849,4.4943,4.5107,4.5107,4.4661,4.3978,4.3932,4.3133,4.1989,4.1513,4.1347,4.0956,3.8376,3.7478,3.7005,3.4485,3.184,2.9115,0.0,0.0,0.0,0.0,0.0,0.0,0.0,0.0,0.0,0.0,0.0,0.0,0.0,0.0,3.3152,3.3613,0.0,4.0821,4.4719,4.7627,5.0589,5.4007,5.4985,5.5755,5.687,5.6452,5.6635,5.8115,5.7896,5.7992,5.885,5.8531,5.8143,5.7757,5.6896,5.5482,5.3458,5.4318,5.4419,5.3608,5.4403,5.5042,5.5546,5.5313,5.5009,5.4726,5.5332,5.5387,5.5009,5.5459,5.5687,5.5765,5.607,5.6191,5.6203,5.6196,5.6191,5.6152,5.5703,5.5,5.4121,0.0,0.0,0.0,0.0,0.0,0.0,0.0,1.4655,1.5456,1.6553,1.7727,1.9301,2.1485,2.1709,2.2081,2.2986,2.1398,2.1435,2.4005,2.5532,2.7913,3.1481,3.4168,3.5915,3.6624,3.8561,3.9884,4.0528,4.199,4.2976,4.3515,4.3772,4.3893,4.3927,4.4237,4.4419,4.4487,4.4487,4.4527,4.4593,4.4593,4.4593,4.4663,4.5331,4.515,4.4538,4.444,4.3265,4.1714,4.1347,4.0097,3.8494,3.736,3.5687,3.3267,2.8837,2.8295,0.0,0.0,0.0,0.0,0.0,0.0,0.0,0.0,3.0423,3.2023,3.1943,3.4679,3.7264,3.7899,4.0036,4.294,4.6746,4.8613,5.0685,5.3841,5.5032,5.587,5.6663,5.7164,5.7877,5.8892,5.8633,5.8899,6.009,5.9304,5.8593,5.8189,5.8323,5.6997,5.3938,5.5568,5.5546,5.3532,5.4231,5.4675,5.4844,5.51,5.4878,5.4259,5.5001,5.4995,5.4387,5.4804,5.5026,5.5174,5.5675,5.5877,5.5877,5.5877,5.5877,5.5899,5.6113,5.5641,5.4799,0.0,0.0,0.0,0.0,0.0,0.0,0.0,0.0,1.4994,1.7118,1.7524,1.824,1.9807,1.9982,1.97,1.9014,2.038,2.2062,2.399,2.6458,2.9447,3.3,3.5384,3.6886,3.7446,3.8981,4.0275,4.136,4.2261,4.2976,4.3515,4.3548,4.3565,4.3565,4.3597,4.3791,4.4076,4.4076,4.4261,4.4593,4.4593,4.4593,4.4606,4.4701,4.4703,4.4614,4.4207,4.3001,4.1776,4.2751,4.191,4.0524,4.1121,3.9534,3.6736,3.3065,3.0545,2.8141,2.452,2.3952,2.4815,2.664,2.8987,3.1594,0.0,3.6881,3.8405,3.7581,4.0609,4.3108,4.2221,4.516,4.8012,4.8904,5.0904,5.2636,5.3404,5.441,5.5264,5.5785,5.6528,5.7024,5.7181,5.8128,5.8524,5.8009,5.9536,5.9701,5.7775,5.8353,5.773,5.5522,5.6358,5.6703,5.6447,5.543,5.5324,5.6089,5.432,5.3429,5.3357,5.3813,5.3962,5.3887,5.4371,5.4579,5.4587,5.4659,5.4684,5.4684,5.4684,5.4684,5.4805,5.5827,5.5641,5.4897,0.0,0.0,0.0,0.0,0.0,0.0,0.0,0.0,1.5203,1.6153,1.6242,1.6788,1.8255,1.8766,1.8679,1.7893,1.8807,2.077,2.395,2.5906,2.9007,3.3662,3.4887,3.6098,3.7507,3.8299,3.945,4.1026,4.179,4.2619,4.3515,4.3515,4.3515,4.3515,4.3515,4.358,4.371,4.371,4.3823,4.3962,4.3962,4.3962,4.385,4.2921,4.1996,4.1121,4.046,3.9774,0.0,3.8227,3.8069,3.8388,3.9189,3.81,3.589,3.2574,3.0838,2.9656,2.8099,2.8407,2.9388,3.0246,3.3365,3.6419,3.7211,3.9501,4.1474,4.1531,4.4039,4.6063,4.5564,4.6613,4.7998,4.9429,4.9829,5.0438,5.1855,5.2834,5.314,5.2326,5.3099,5.426,5.5708,5.743,5.7814,5.6262,5.8539,5.9178,5.7289,5.8445,5.8308,5.647,5.6512,5.6312,5.5806,5.4572,5.4147,5.45,5.4105,5.3904,5.3904,5.4062,5.403,5.3833,5.45,5.467,5.4503,5.4503,5.4503,5.4503,5.4503,5.4503,5.4544,5.5027,5.5122,5.4949,0.0,0.0,0.0,0.0,0.0,0.0,0.0,0.0,0.0,0.0,1.5332,1.5707,1.6752,1.7305,1.7477,1.7161,1.7674,1.9654,2.3482,2.5305,2.8359,3.3171,3.4123,3.5511,3.7574,3.7858,3.9012,4.1141,4.1517,4.2308,4.3515,4.3515,4.3515,4.3515,4.3515,4.3515,4.3515,4.3515,4.3515,4.3515,4.3515,4.3222,4.2653,4.1056,3.9035,3.7007,3.6529,3.5752,3.4731,3.316,3.3422,3.4558,3.5631,3.5394,3.4192,3.169,3.0269,2.9537,2.965,3.0707,3.209,3.3356,3.6731,3.978,3.9954,4.1618,4.3378,4.4206,4.5783,4.7003,4.7003,4.7036,4.7548,4.91,4.8849,4.8933,5.0303,5.099,5.0734,4.9053,4.9385,5.0398,5.1996,5.4962,5.6304,5.5163,5.7354,5.813,5.677,5.8085,5.8257,5.6911,5.6812,5.6262,5.5164,5.4296,5.3867,5.3867,5.4014,5.4308,5.473,5.473,5.4446,5.3995,5.457,5.4689,5.4474,5.4231,5.4137,5.4137,5.4137,5.4137,5.4137,5.4137,5.4484,5.4843,0.0,0.0,0.0,0.0,0.0,0.0,0.0,0.0,0.0,0.0,0.0,1.5299,1.5265,1.528,1.5542,1.6172,1.7371,1.9357,2.2365,2.5069,2.7993,3.1151,3.3424,3.5634,3.7842,3.8084,3.9526,4.2235,4.1687,4.2141,4.3515,4.3515,4.3515,4.3515,4.3515,4.3515,4.3515,4.3515,4.3515,4.3515,4.3515,4.2561,4.1003,3.9405,3.6352,3.3019,3.3323,3.1336,2.8644,2.9092,2.9154,2.9371,3.1277,3.2249,3.25,3.1557,2.8891,2.6453,2.7426,2.8287,3.0048,3.4731,3.7774,4.0397,4.3339,4.4137,4.4509,4.5433,4.571,4.5744,4.5744,4.6912,4.7877,4.7962,4.9073,4.9715,4.9066,4.8976,4.8424,4.6875,4.6101,4.5416,4.48,4.9905,5.375,5.4914,5.6281,5.6822,5.6254,5.7055,5.7338,5.6834,5.7542,5.7175,5.56,5.5559,5.5519,5.55,5.3977,5.4051,5.5556,5.5556,5.5137,5.4384,5.4402,5.4424,5.4332,5.3561,5.3248,5.3248,5.3248,5.3248,5.3248,5.3248,5.3777,5.45,0.0,0.0,0.0,0.0,0.0,0.0,0.0,0.0,0.0,0.0,0.0,0.0,0.0,0.0,0.0,0.0,1.5984,1.7406,2.0136,2.2089,2.4793,2.8452,3.0495,3.3027,3.617,3.654,3.8056,4.0907,4.0691,4.1053,4.1919,4.1919,4.2194,4.269,4.269,4.3002,4.3515,4.3515,4.3185,4.2598,4.1534,4.0781,3.9787,3.5013,3.2028,2.9876,0.0,2.4379,2.4174,2.328,2.3276,2.4002,2.6178,2.6684,2.6455,2.6251,2.6484,2.7163,2.8651,3.1369,3.441,3.7066,4.0356,4.3062,4.3558,4.4858,4.5784,4.5117,4.4378,4.368,4.3201,4.2706,4.2839,4.4186,4.466,4.5473,4.708,4.6426,4.5603,4.5147,4.4428,4.4251,4.493,4.8212,5.0487,5.0923,5.373,5.5299,5.5076,5.5858,5.6233,5.6088,5.6328,5.5952,5.49,5.4842,5.4546,5.4014,5.4014,5.4014,5.4051,5.5097,5.5152,5.4399,5.4399,5.4399,5.4344,5.3537,5.3185,5.3185,5.3185,5.3185,5.3185,5.3185,5.3398,5.3681,0.0,0.0,0.0,0.0,0.0,0.0,0.0,0.0,0.0,0.0,0.0,0.0,0.0,0.0,0.0,0.0,0.0,1.6246,1.8442,1.9746,2.1924,2.5307,2.6826,2.8966,3.1879,3.2676,3.4261,3.6692,3.7225,3.7972,3.8912,3.8912,3.9352,4.0175,4.0451,4.0871,4.1366,4.1366,4.0891,3.9992,3.8107,3.6849,3.5501,3.028,2.7297,0.0,2.0659,1.949,2.0001,1.928,1.9292,1.9969,2.2084,2.2944,2.3411,2.4679,2.6531,2.8729,3.1303,3.4652,3.7883,3.9829,4.2475,4.4519,4.4299,4.4942,4.5314,4.4367,4.2966,4.1637,4.0738,3.9806,3.9672,4.1238,4.1587,4.2657,4.5392,4.4704,4.4021,4.4341,4.3721,4.3699,4.48,4.6619,4.8034,4.8741,5.113,5.2865,5.3566,5.393,5.4601,5.5671,5.5446,5.5053,5.4499,5.4176,5.3745,5.3203,5.4601,5.4546,5.3259,5.517,5.528,5.3995,5.4289,5.4234,5.394,5.3427,5.3185,5.3185,5.3185,5.3185,5.3185,5.3185,5.3185,5.3248,0.0,0.0,0.0,0.0,0.0,0.0,0.0,0.0,0.0,0.0,0.0,0.0,0.0,0.0,0.0,0.0,0.0,0.0,1.7308,1.817,1.9599,2.1763,2.2705,2.3926,2.5543,2.7063,2.8603,3.0224,3.1618,3.3086,3.4578,3.4578,3.5073,3.5968,3.6721,3.7107,3.7199,3.7195,3.6717,3.5744,3.3419,3.109,2.8661,2.5435,2.2398,1.9682,1.7947,1.685,1.6331,1.7242,1.7524,1.7808,1.957,2.1456,2.3622,2.6863,2.8989,3.1132,3.5002,3.7815,4.0266,4.2831,4.4045,4.4784,4.5432,4.4434,4.3328,4.3064,4.1298,3.9384,3.8109,3.7922,3.8225,3.9093,3.9897,4.1354,4.4001,4.3789,4.3664,4.4404,4.3943,4.3775,4.4325,4.5251,4.6597,4.8475,4.8853,4.9913,5.1975,5.1574,5.2625,5.5504,5.4942,5.4554,5.4453,5.3694,5.323,5.3161,5.5497,5.5427,5.3277,5.5574,5.539,5.3316,5.4032,5.3919,5.3198,5.3203,5.3185,5.3143,5.3185,5.3185,5.3185,5.3185,5.3185,5.3185,0.0,0.0,0.0,0.0,0.0,0.0,0.0,0.0,0.0,0.0,0.0,0.0,0.0,0.0,0.0,0.0,0.0,0.0,1.5833,1.7087,1.8077,1.8659,2.0502,2.2275,2.387,2.4893,2.6181,2.7791,2.8179,2.8557,2.8965,2.8907,2.9647,3.102,3.1121,3.1825,3.297,3.3129,3.2336,3.0859,2.9155,2.7717,2.6115,2.1812,2.007,1.9606,1.7311,1.634,1.6352,1.7871,2.0367,2.3045,2.4254,2.5742,2.7329,2.8829,3.2123,3.549,3.6612,4.0019,4.3444,4.4124,4.4462,4.4496,4.4096,4.3557,4.2165,3.8617,3.6672,3.4641,3.1391,3.1361,3.2616,3.5011,3.6862,3.9056,4.2119,4.2799,4.3362,4.4443,4.5206,4.5994,4.6882,4.8155,4.8867,4.8704,4.9873,5.1346,5.3029,5.3006,5.3271,5.4042,5.4416,5.4306,5.3702,5.3383,5.2936,5.2381,5.3559,5.3791,5.3203,5.3827,5.4124,5.4069,5.3683,5.3427,5.3261,5.3215,5.2893,5.2445,5.2999,5.3185,5.3185,5.3185,5.3185,5.3185,0.0,0.0,0.0,0.0,0.0,0.0,0.0,0.0,0.0,0.0,0.0,0.0,0.0,0.0,0.0,0.0,0.0,0.0,0.0,1.6128,1.6573,1.6546,1.776,1.8864,1.9763,2.0834,2.183,2.2729,2.3412,2.3916,2.4273,2.4615,2.5392,2.6559,2.72,2.7974,2.8764,2.8883,2.8178,0.0,0.0,2.3618,2.2199,1.8963,1.775,1.7563,1.6172,1.6739,1.8578,2.1555,2.3951,2.6129,2.8734,2.992,3.0989,3.4304,3.7011,3.9197,4.0574,4.3192,4.5512,4.5145,4.457,4.3548,4.1579,4.051,3.8694,3.4174,3.2424,3.0797,2.7714,2.8488,3.0393,3.2789,3.531,3.8162,4.1601,4.2647,4.3817,4.5797,4.6652,4.7663,4.9187,5.0101,5.0512,5.0304,5.0238,5.0871,5.233,5.2141,5.2469,5.3467,5.3572,5.3387,5.2918,5.312,5.2881,5.2137,5.2925,5.2929,5.2302,5.2645,5.2682,5.2428,5.232,5.209,5.1835,5.2161,5.2219,5.2136,5.2554,5.2915,5.3243,5.361,5.35,5.3316,0.0,0.0,0.0,0.0,0.0,0.0,0.0,0.0,0.0,0.0,1.3672,0.0,0.0,0.0,0.0,0.0,0.0,0.0,0.0,0.0,1.5367,1.5324,1.5301,1.5291,1.5291,1.6504,1.7117,1.7117,1.8458,1.9468,2.0158,2.1016,2.1761,2.2418,2.3987,2.4662,2.4653,2.4681,2.422,2.3315,2.1335,1.9605,1.8071,0.0,1.5746,1.5007,1.5087,1.7434,2.1265,2.6118,2.7783,2.8585,3.3012,3.4267,3.5207,4.0671,4.2134,4.2472,4.4908,4.616,4.6599,4.5754,4.4333,4.2238,3.8921,3.6867,3.443,3.0158,2.8741,2.7695,2.5863,2.7579,2.9926,3.1946,3.4806,3.7997,4.1443,4.2986,4.4764,4.744,4.7996,4.906,5.1302,5.1298,5.1534,5.2384,5.0676,5.0096,5.1275,5.0839,5.1454,5.345,5.2824,5.242,5.2283,5.2978,5.2903,5.2084,5.2846,5.2484,5.1104,5.182,5.1422,5.0238,5.0856,5.0716,5.0126,5.0804,5.1393,5.1856,5.215,5.2581,5.3191,5.4194,5.4051,5.3573,0.0,0.0,0.0,0.0,0.0,0.0,0.0,0.0,0.0,0.0,1.4004,1.4375,0.0,0.0,0.0,0.0,0.0,0.0,0.0,0.0,0.0,1.5389,1.5324,1.5305,1.5305,1.5549,1.5661,1.5661,1.5882,1.6042,1.6207,1.6973,1.7733,1.8505,1.9401,2.017,2.079,2.0883,2.0475,1.966,1.8607,1.7584,1.6571,1.5613,0.0,0.0,1.5535,1.738,2.0523,2.691,3.0891,3.3751,3.7058,3.9664,4.1628,4.2161,4.3978,4.5669,4.4987,4.5754,4.6464,4.5139,4.3166,4.0933,3.8512,3.5824,3.2564,2.8062,2.653,2.5572,2.4306,2.5972,2.8777,3.2559,3.5215,3.7569,3.9773,4.3288,4.5958,4.6874,4.8514,5.0484,5.2857,5.1862,5.1665,5.3179,5.2942,5.2807,5.3057,5.2975,5.3095,5.3501,5.3365,5.2975,5.2325,5.2998,5.2728,5.1367,5.2089,5.1945,5.1086,5.1228,5.1493,5.1777,5.1316,0.0,5.0989,5.1079,5.0823,5.0552,5.2366,5.2761,5.2521,5.4627,5.4876,5.4326,0.0,0.0,0.0,0.0,0.0,0.0,0.0,1.3965,1.4609,1.416,1.4492,1.4941,1.5348,1.5361,1.5356,0.0,0.0,0.0,0.0,0.0,0.0,1.5406,1.5372,1.5359,1.5359,1.5326,1.529,1.53,0.0,1.5232,1.5231,1.6441,1.7191,1.7555,1.8778,1.9471,1.9695,1.9836,1.9625,1.9151,1.8415,1.7596,1.6733,1.5888,0.0,0.0,1.5557,1.7037,1.9384,2.4042,2.8092,3.2335,3.9083,4.2219,4.3325,4.298,4.4739,4.6549,4.5466,4.6244,4.7022,4.5534,4.3166,3.9977,3.5266,3.2189,2.8901,2.3827,2.2827,2.2548,2.1588,2.3701,2.6756,3.0318,3.2877,3.5821,3.9859,4.2574,4.5081,4.7648,4.9158,5.0444,5.1622,5.0995,5.0853,5.1673,5.1725,5.2249,5.345,5.3501,5.3501,5.3501,5.3501,5.3315,5.2942,5.3287,5.29,5.1785,5.2119,5.1884,5.1123,5.0755,5.0997,5.166,5.091,5.0378,5.0086,5.0436,5.0126,4.9615,5.1483,5.244,5.2954,5.4929,5.5396,5.5188,0.0,0.0,0.0,0.0,0.0,0.0,0.0,1.4121,1.4746,1.4414,1.4804,1.5248,1.5625,1.5454,1.5324,0.0,0.0,0.0,0.0,0.0,0.0,0.0,0.0,0.0,1.54,0.0,0.0,1.5313,1.5311,0.0,0.0,0.0,0.0,0.0,1.9238,1.9737,1.9206,1.9509,1.9467,0.0,0.0,1.7855,1.6951,0.0,0.0,0.0,0.0,1.6371,1.8038,2.1025,2.4159,2.8362,3.7207,4.103,4.2218,4.2274,4.4258,4.6372,4.6036,4.6786,4.7327,4.5838,4.3145,3.9119,3.2477,2.9125,2.5946,2.0816,2.0008,2.0191,2.002,2.2072,2.4928,2.8353,3.0391,3.3639,3.979,4.1554,4.3844,4.8223,4.9379,5.0054,5.0775,5.0193,5.0088,5.0792,5.0828,5.1606,5.3399,5.3501,5.3501,5.3501,5.3501,5.3501,5.3501,5.3501,5.3095,5.23,5.23,5.1911,5.1168,5.0608,5.0744,5.1403,5.049,4.9763,4.9272,4.9678,4.9385,4.8883,5.0737,5.2126,5.3313,5.5256,5.5922,5.6051,0.0,0.0,0.0,0.0,0.0,0.0,0.0,1.3496,1.3652,1.5098,1.4613,1.4737,1.6319,1.5831,1.5364,0.0,0.0,0.0,0.0,0.0,0.0,0.0,0.0,0.0,0.0,0.0,0.0,1.5388,1.5326,0.0,0.0,0.0,0.0,0.0,0.0,1.9381,1.7926,1.8736,0.0,0.0,0.0,0.0,0.0,0.0,0.0,0.0,0.0,1.5178,1.6536,2.0496,2.2197,2.3454,2.8109,3.3635,3.8438,3.8608,4.1833,4.5524,4.6457,4.6786,4.6549,4.5089,4.2211,3.8315,3.2788,2.9199,2.5936,2.2015,2.0252,1.9983,2.1853,2.2357,2.4117,2.9153,2.9594,3.1528,3.7945,4.0664,4.3494,4.7539,4.8504,4.9992,5.2907,5.0526,5.0031,5.2959,5.3196,5.3281,5.3501,5.3501,5.3501,5.3501,5.3501,5.3501,5.3501,5.3501,5.3095,5.23,5.23,5.1911,5.1185,5.1117,5.1505,5.2131,5.071,5.005,0.0,4.9357,4.866,4.8286,5.1149,5.2341,5.2749,5.569,5.6734,5.6822,0.0,0.0,0.0,0.0,0.0,0.0,1.3476,1.3965,1.4453,1.4609,1.4743,1.508,1.5752,1.5524,1.5311,1.525,0.0,0.0,0.0,0.0,0.0,0.0,0.0,0.0,0.0,0.0,1.5404,1.5394,1.5375,0.0,0.0,0.0,0.0,0.0,0.0,1.8294,1.7619,1.8033,0.0,0.0,0.0,0.0,0.0,0.0,0.0,0.0,0.0,0.0,1.5233,1.6867,1.8091,1.9171,2.0327,2.4143,2.8948,3.2754,3.759,4.202,4.3459,4.5297,4.653,4.5374,4.2309,3.81,3.2318,2.8578,2.5157,2.0987,1.9688,1.9557,2.0426,2.0427,2.1514,2.5226,2.547,2.7768,3.5099,3.7695,4.0748,4.5807,4.8264,4.9636,4.9909,4.9714,5.0059,5.1368,5.1454,5.2046,5.3433,5.3501,5.3501,5.3501,5.3501,5.3501,5.3501,5.3501,5.3348,5.3027,5.3027,5.2875,5.2553,5.164,5.1877,5.2942,5.142,5.0016,0.0,4.9915,4.8849,4.6917,5.0322,5.2218,5.3282,5.5382,5.6754,5.7574,0.0,0.0,0.0,0.0,0.0,1.4533,1.3414,1.4043,1.4531,1.4141,1.4627,1.5065,1.5282,1.5273,1.5244,1.5201,1.5242,0.0,0.0,0.0,0.0,0.0,0.0,0.0,0.0,0.0,1.5527,1.5778,1.5771,1.5759,0.0,0.0,1.665,1.6184,0.0,0.0,0.0,0.0,0.0,0.0,0.0,0.0,0.0,0.0,0.0,0.0,0.0,0.0,0.0,0.0,0.0,1.6083,1.5527,1.7498,2.1151,2.7012,3.3079,3.8315,4.0012,4.3089,4.5637,4.4923,4.1386,3.6699,3.1433,2.7363,2.3596,1.9737,1.8948,1.9022,1.926,1.9134,1.9891,2.2547,2.3189,2.5817,3.2855,3.5351,3.8453,4.383,4.6229,4.7625,4.7964,4.9465,5.0422,5.0422,5.0625,5.1454,5.3061,5.3365,5.3501,5.3501,5.3501,5.3501,5.3501,5.3501,5.3501,5.3501,5.3501,5.3264,5.2807,5.1928,5.2012,5.2773,5.1658,5.0306,0.0,5.0338,4.9221,4.6989,5.0033,5.2006,5.3379,5.5083,5.6536,5.7703,0.0,0.0,0.0,0.0,0.0,0.0,1.4081,1.3434,1.3203,1.4004,1.4042,1.4337,1.5218,1.5243,1.5192,1.5192,1.5192,0.0,0.0,0.0,0.0,0.0,0.0,0.0,0.0,0.0,1.5825,1.6685,1.6698,1.6684,1.6704,1.7509,1.6961,1.5397,0.0,0.0,0.0,0.0,0.0,0.0,0.0,0.0,1.7659,0.0,0.0,0.0,0.0,0.0,0.0,0.0,0.0,0.0,0.0,1.5086,1.6778,2.1878,2.8639,3.4855,3.6668,4.0245,4.3386,4.3268,3.8855,3.3652,3.0193,2.5491,2.1125,1.8629,1.8108,1.8353,1.915,1.9134,1.9891,2.2547,2.4062,2.6609,3.1616,3.4213,3.7273,4.1796,4.1722,4.3311,4.847,5.0306,5.12,5.12,5.186,5.2283,5.2317,5.3078,5.3501,5.3501,5.3501,5.3501,5.3501,5.3501,5.3501,5.3501,5.3501,5.2706,5.1236,5.1961,5.1911,5.1202,5.1217,5.12,0.0,5.0388,4.9661,4.912,5.0625,5.1688,5.2688,5.4902,5.6214,5.7033,0.0,0.0,0.0,0.0,0.0,0.0,0.0,1.4694,1.4621,1.4895,1.4899,1.4991,1.5272,1.5274,1.525,1.5195,1.5192,0.0,0.0,0.0,0.0,0.0,0.0,0.0,0.0,1.5951,1.6411,1.6704,1.7304,1.7596,1.7596,1.7797,1.7606,1.7091,1.7588,1.7483,0.0,0.0,0.0,0.0,0.0,1.8562,1.8581,0.0,0.0,0.0,0.0,0.0,0.0,0.0,0.0,0.0,0.0,0.0,0.0,1.7482,2.2203,2.7355,3.0127,3.2763,3.48,3.518,3.268,2.9357,2.6505,2.3297,2.0382,1.8493,1.8089,1.8353,1.915,1.899,2.0015,2.3932,2.5025,2.7164,3.2326,3.5444,3.8204,4.1001,4.4747,4.7982,5.0276,5.0473,5.0862,5.1894,5.0777,5.071,5.2215,5.2063,5.2164,5.2655,5.3213,5.3247,5.2689,5.323,5.3501,5.3501,5.2942,5.2164,5.1217,5.1454,5.115,5.0473,5.0997,5.0642,4.9729,4.9982,4.9373,4.846,5.0439,5.1688,5.2688,5.4884,5.6214,5.6989,0.0,0.0,0.0,0.0,0.0,0.0,0.0,1.5307,1.5296,1.5296,1.5302,1.5299,1.5304,1.5277,1.5245,1.5195,1.5192,0.0,0.0,0.0,0.0,0.0,0.0,0.0,1.529,1.5877,1.6345,1.6704,1.7577,1.8008,1.8008,1.8298,1.8234,1.7896,1.7859,1.7847,0.0,0.0,0.0,0.0,1.8663,1.897,1.8969,0.0,0.0,0.0,0.0,0.0,0.0,0.0,0.0,0.0,0.0,0.0,0.0,0.0,1.7457,2.0781,2.4704,2.7549,2.9633,3.0549,2.8499,2.5923,2.4521,2.1822,1.9318,1.8309,1.8476,1.8879,1.9146,1.9458,2.0514,2.3027,2.5137,2.7665,3.124,3.5048,3.8254,4.0358,4.5135,4.8675,4.9803,4.9774,5.0304,5.1775,5.0355,5.0016,5.1403,5.1302,5.1285,5.1454,5.2503,5.2807,5.23,5.3112,5.3348,5.3044,5.2858,5.1928,5.0405,5.0963,5.0659,4.9729,5.0456,5.0422,0.0,5.0016,4.9729,4.9241,5.0371,5.1432,5.2601,5.4541,5.5782,5.6598,0.0,0.0,0.0,0.0,0.0,0.0,0.0,1.5299,1.5287,1.5287,1.5288,1.5293,1.5293,1.5237,1.5192,1.5192,0.0,0.0,0.0,0.0,0.0,0.0,0.0,0.0,1.5298,1.5352,1.584,1.6782,1.7596,1.8027,1.8105,1.8867,1.8788,1.7996,1.7995,1.8021,1.8068,0.0,0.0,0.0,1.8773,1.8957,0.0,0.0,0.0,0.0,0.0,0.0,0.0,0.0,0.0,0.0,0.0,0.0,0.0,0.0,0.0,0.0,0.0,2.3962,2.6781,2.8102,2.5564,2.2926,2.3544,2.0703,0.0,1.8218,1.9196,1.9892,1.9489,2.0613,2.148,2.1091,2.4936,2.8311,2.9257,3.3883,3.7976,4.0073,4.3714,4.6417,4.755,4.856,4.9712,5.1031,5.049,5.0084,5.0084,5.071,5.0744,5.0033,5.1403,5.2164,5.2232,5.3027,5.2993,5.2147,5.2909,5.1708,4.89,5.0439,5.0338,0.0,4.9813,5.0541,5.1082,5.0371,5.0507,5.1065,5.0371,5.093,5.2359,5.3993,5.5026,5.5832,0.0,0.0,0.0,0.0,0.0,0.0,0.0,0.0,0.0,0.0,1.5212,1.5221,1.5221,1.5204,1.5192,0.0,0.0,0.0,0.0,0.0,0.0,0.0,0.0,0.0,1.5298,1.5942,1.6722,1.7623,1.787,1.834,1.8984,1.8516,1.8535,1.8964,1.8915,1.9205,1.972,1.9721,0.0,0.0,1.9754,1.9376,0.0,0.0,0.0,0.0,1.821,1.7485,0.0,0.0,0.0,0.0,0.0,0.0,0.0,0.0,1.4493,1.4763,1.5951,0.0,1.8504,1.8845,1.8196,1.7683,0.0,1.7392,1.6958,1.9428,1.9965,2.0697,2.2941,2.2929,2.3583,2.6693,2.8626,3.0543,3.2877,3.7707,4.14,4.2522,4.6444,4.8314,4.6363,4.8925,5.0591,5.0371,5.0185,5.0084,5.0084,4.9729,4.9441,4.9255,5.0135,5.0896,5.1471,5.2215,5.1911,5.0608,5.0811,4.9644,4.7378,4.9424,4.956,4.8244,5.0135,5.0727,5.0338,5.0168,5.0185,5.0338,5.0152,5.0304,5.0932,5.3607,5.4717,5.5158,0.0,0.0,0.0,0.0,0.0,0.0,0.0,0.0,0.0,0.0,0.0,1.5192,1.5192,1.5192,0.0,0.0,0.0,0.0,0.0,0.0,0.0,0.0,0.0,1.5226,1.5297,1.6148,1.6846,1.7359,1.8183,1.8633,1.8711,1.9043,1.9238,1.9316,1.9684,1.982,1.9762,1.9372,1.9414,1.9692,1.9154,0.0,0.0,0.0,0.0,0.0,1.8392,1.7671,0.0,1.5967,1.5178,1.4493,0.0,0.0,0.0,0.0,1.4493,1.4585,1.4958,1.5637,1.6511,1.7638,1.7619,1.7766,1.9337,1.8482,1.8067,2.0574,2.0986,2.1523,2.3625,2.4085,2.4909,2.7208,2.9343,3.196,3.5523,3.8743,4.1397,4.3191,4.5883,4.7462,4.7242,4.9035,5.0168,5.0101,4.9779,4.9593,4.9593,4.9221,4.9001,4.9001,4.9712,5.0287,5.0693,5.1437,5.1065,4.9593,5.0287,4.9458,4.7378,4.9238,4.9475,4.8443,4.8968,4.934,4.9543,4.8849,4.9171,5.005,4.9729,5.0016,5.0898,5.3232,5.4319,5.4936,0.0,0.0,0.0,0.0,0.0,0.0,0.0,0.0,0.0,0.0,0.0,0.0,0.0,0.0,0.0,0.0,0.0,0.0,0.0,0.0,0.0,0.0,1.521,1.5294,1.5491,1.6222,1.6777,1.7109,1.8301,1.8594,1.8027,1.9238,1.9551,1.9141,2.0,2.0015,1.9335,1.8585,1.8667,1.9206,1.8386,0.0,0.0,0.0,0.0,0.0,0.0,0.0,0.0,1.5931,1.5178,1.4493,1.4493,0.0,0.0,0.0,0.0,0.0,1.5637,1.6691,1.7983,1.9788,1.9732,1.9857,2.2191,2.1002,1.9949,2.1871,2.2357,2.2746,2.3799,2.5272,2.6345,2.6442,2.9573,3.3523,3.7863,3.9194,4.0677,4.3276,4.4582,4.6109,4.8291,4.8798,4.9255,4.9881,4.9357,4.9001,4.9001,4.8861,4.8861,4.9001,4.9325,4.9628,4.9915,5.0659,5.0304,4.8849,5.0219,4.9748,4.78,4.9255,4.9593,4.8934,0.0,0.0,4.8917,4.7767,4.8325,4.9864,4.9238,4.9763,5.1053,5.2599,5.3608,5.4581,0.0,0.0,0.0,0.0,0.0,0.0,0.0,0.0,0.0,0.0,0.0,0.0,0.0,0.0,0.0,0.0,0.0,0.0,0.0,0.0,0.0,1.5282,1.5284,1.5633,1.6374,1.6593,1.7414,1.8906,1.7695,1.7402,1.7969,1.6758,1.6914,1.8242,1.9055,1.9717,2.0204,2.0012,1.9993,2.0092,1.9775,0.0,0.0,0.0,0.0,0.0,0.0,0.0,0.0,1.5735,1.5178,1.4493,1.4493,0.0,0.0,0.0,0.0,0.0,1.6303,1.8542,2.0233,1.9291,1.9012,1.9407,2.1101,2.0696,2.0805,2.3747,2.4616,2.5413,2.7259,2.8633,2.967,3.0235,3.3354,3.7042,4.0971,4.2604,4.3635,4.4327,4.6727,4.7767,4.6346,4.7902,4.9052,4.9171,4.9069,4.9001,4.9001,4.8257,4.8193,4.897,4.7588,4.7571,4.9171,4.9898,4.9526,4.8075,4.8934,4.8511,4.7022,4.8494,4.912,4.9018,0.0,4.9357,4.9035,4.9424,4.9424,4.9171,4.9035,4.9137,4.9531,5.1072,5.2074,5.2971,0.0,0.0,0.0,0.0,0.0,0.0,0.0,0.0,0.0,0.0,0.0,0.0,0.0,0.0,0.0,0.0,0.0,0.0,0.0,0.0,1.5053,1.4629,1.5042,1.5487,1.5887,1.6382,1.7031,1.7838,1.7505,1.731,1.7232,1.6914,1.7452,1.873,1.9507,1.9807,1.9729,1.9187,1.8936,1.8885,0.0,0.0,0.0,0.0,0.0,0.0,0.0,0.0,0.0,0.0,1.5454,1.5141,1.5141,0.0,0.0,0.0,0.0,0.0,1.7049,1.8911,2.0807,2.1838,2.2259,2.2923,2.4915,2.3443,2.2662,2.6229,2.5977,2.6028,2.9037,3.0544,3.2354,3.5504,3.8031,4.0216,4.2005,4.2776,4.3519,4.4449,4.6111,4.7141,4.6921,4.8173,4.9001,4.9001,4.9001,4.9001,4.9001,4.8207,4.7888,4.824,4.7012,4.6963,4.8225,4.8591,4.8463,4.7889,4.8663,4.8443,4.7445,4.8511,4.9001,4.8968,0.0,4.8578,4.8968,4.8511,4.8578,4.9001,4.9001,4.9001,4.9178,5.0718,5.2008,5.3087,0.0,0.0,0.0,0.0,0.0,0.0,0.0,0.0,0.0,0.0,0.0,0.0,0.0,0.0,0.0,0.0,0.0,0.0,0.0,1.5278,1.5087,1.4631,1.5053,1.5292,1.5293,1.6151,1.6707,1.6904,1.7374,1.7161,1.6346,1.7184,1.8091,1.9002,1.977,1.9865,1.94,1.8472,1.8058,1.7988,0.0,0.0,0.0,0.0,0.0,0.0,0.0,0.0,0.0,0.0,0.0,0.0,0.0,0.0,0.0,1.6908,1.6908,1.7062,1.7806,1.9219,2.1164,2.3956,2.4732,2.5606,2.8831,2.6541,2.4873,2.8911,2.8132,2.7664,3.0693,3.2412,3.4773,3.9099,4.1271,4.2611,4.3221,4.3429,4.4048,4.5388,4.6089,4.6921,4.8041,4.868,4.9001,4.9001,4.9001,4.8934,4.8748,4.7992,4.7498,4.7419,4.6421,4.6405,4.7387,4.7193,4.7432,4.8173,4.8731,4.8714,4.8189,4.8748,4.9001,4.8934,4.78,4.7953,4.8917,4.7784,4.7986,4.9001,4.9001,4.9001,4.9145,5.0511,5.1693,5.2694,0.0,0.0,0.0,0.0,0.0,0.0,0.0,0.0,0.0,0.0,0.0,0.0,0.0,0.0,0.0,0.0,0.0,0.0,0.0,1.53,1.5635,1.6387,1.5697,1.5306,1.5293,1.6152,1.7005,1.7804,1.7059,1.6271,1.5509,1.6312,1.7155,1.8045,1.8848,1.9571,2.0158,1.9291,1.8903,1.8838,1.8026,0.0,0.0,0.0,0.0,0.0,0.0,0.0,0.0,0.0,0.0,0.0,0.0,0.0,1.6908,1.6908,1.6908,1.719,1.8537,2.0261,2.2048,2.3592,2.3423,2.441,3.0179,2.8591,2.7139,3.1592,3.2366,3.2439,3.307,3.4984,3.7,3.8621,4.1214,4.3793,4.5989,4.6814,4.7585,4.8577,4.8734,4.8798,4.8917,4.8968,4.9001,4.9001,4.9001,4.8714,4.8007,4.708,4.6684,4.6836,4.5098,4.5033,4.6849,4.5989,4.6684,4.8934,4.8984,4.8968,4.8934,4.8984,4.9001,4.9001,4.8883,4.89,4.9001,4.8883,4.89,4.9001,4.9001,4.9001,4.9094,4.9803,5.0165,5.0341,0.0,0.0,0.0,0.0,0.0,0.0,0.0,0.0,0.0,0.0,0.0,0.0,0.0,0.0,0.0,0.0,0.0,0.0,0.0,1.6314,1.6582,1.5819,1.6477,1.6608,1.6057,1.5889,1.5924,1.6222,1.5889,1.5876,1.6154,1.6924,1.7784,1.8745,1.9502,1.9735,1.9494,1.8587,1.7891,1.7411,1.7083,1.6948,0.0,0.0,0.0,0.0,0.0,0.0,0.0,0.0,1.6988,1.7649,1.7649,1.7979,1.839,1.839,1.839,1.8444,1.8699,2.0608,2.2943,2.4553,2.4724,2.5833,3.0929,3.0604,3.0553,3.5061,3.484,3.4032,3.4663,3.7009,3.9328,4.0751,4.3089,4.5353,4.7141,4.7627,4.7922,4.8264,4.8342,4.8342,4.8342,4.7902,4.7817,4.8291,4.7902,4.7513,4.7225,4.6455,4.5982,4.5932,4.4814,4.4766,4.5901,4.5573,4.6153,4.7631,4.8105,4.8578,4.8984,4.8545,4.8578,4.8984,4.8528,4.8342,4.8342,4.8342,4.8342,4.8376,4.8832,4.9001,4.9032,4.9286,4.9389,4.9419,0.0,0.0,0.0,0.0,0.0,0.0,0.0,0.0,0.0,0.0,0.0,0.0,0.0,0.0,0.0,0.0,0.0,0.0,1.5779,1.7109,1.7487,1.6547,1.731,1.7624,1.7301,1.6223,1.565,1.5615,1.5327,1.5804,1.6986,1.7476,1.807,1.8791,1.9841,1.9848,1.9017,1.8092,1.7372,1.6833,1.6292,1.6068,0.0,0.0,0.0,0.0,0.0,0.0,0.0,0.0,1.7814,1.8482,1.8482,1.8856,1.9297,1.9297,1.9269,1.9115,1.8707,2.035,2.262,2.4445,2.5439,2.7317,3.253,3.2577,3.2949,3.7922,3.7889,3.6891,3.6721,3.8734,4.0764,4.1779,4.3859,4.5872,4.7361,4.7564,4.7564,4.7564,4.7564,4.7564,4.7564,4.7107,4.7005,4.7513,4.709,4.6684,4.6464,4.5754,4.5173,4.4793,4.4298,4.4251,4.4763,4.5025,4.5581,4.6447,4.6972,4.7597,4.8291,4.7784,4.7834,4.8274,4.7784,4.7564,4.7564,4.7564,4.7669,4.7939,4.8477,4.8798,4.9001,4.9001,4.9001,4.9001,0.0,0.0,0.0,0.0,0.0,0.0,0.0,0.0,0.0,0.0,0.0,0.0,0.0,0.0,0.0,0.0,0.0,0.0,1.6704,1.7465,1.8265,1.9076,1.8227,1.8126,1.8995,1.7375,1.6526,1.6506,1.5635,1.6094,1.7794,1.7732,1.7735,1.7888,1.9552,1.9812,1.8934,1.8084,1.7699,1.7545,1.5868,1.5127,1.5014,0.0,0.0,0.0,0.0,0.0,0.0,0.0,1.8647,1.9297,1.9297,1.9315,1.9315,1.9315,1.9158,1.894,1.8678,1.9489,2.0892,2.2923,2.5067,2.8484,3.5238,3.4472,3.4027,3.9961,4.1779,4.161,3.9394,4.0206,4.1204,4.1204,4.3081,4.5106,4.6566,4.6769,4.6769,4.6786,4.6786,4.6786,4.6786,4.6769,4.6769,4.6786,4.6769,4.6447,4.572,4.4976,4.4198,4.3409,4.3375,4.3375,4.3392,4.4181,4.4942,4.5703,4.5703,4.6075,4.6786,4.6786,4.6786,4.6786,4.6786,4.6786,4.6786,4.6786,4.7225,4.7872,4.7889,4.8359,4.8984,4.9001,4.9001,4.8984,0.0,0.0,0.0,0.0,0.0,0.0,0.0,0.0,0.0,0.0,0.0,0.0,0.0,0.0,0.0,0.0,0.0,0.0,1.7616,1.8311,1.8844,1.9095,1.9378,1.9661,1.9909,1.8868,1.7724,1.6506,1.6234,1.6686,1.7801,1.7722,1.8053,1.8756,1.9829,1.9827,1.8981,1.8712,1.7923,1.6756,1.5654,1.5545,1.6038,0.0,0.0,0.0,0.0,0.0,0.0,0.0,0.0,0.0,1.9297,1.9693,2.0144,2.0144,1.9628,1.9126,1.9383,1.9913,2.1132,2.4181,2.664,2.9517,3.4138,3.4883,3.5735,3.9621,4.1023,4.1018,3.9309,4.0206,4.1204,4.1204,4.1779,4.3098,4.5669,4.5568,4.5432,4.5957,4.6024,4.6024,4.6024,4.5551,4.5449,4.5991,4.5026,4.4316,4.4085,4.3386,4.2861,4.2625,4.2625,4.2878,4.3375,4.3656,4.4147,4.4925,4.4925,4.5568,4.6769,4.6261,4.6312,4.6752,4.6244,4.6024,4.6024,4.6024,4.616,4.6464,4.7483,4.7733,4.7581,4.8612,4.868,4.8308,0.0,0.0,0.0,0.0,0.0,0.0,0.0,0.0,0.0,0.0,1.7507,1.8313,0.0,0.0,0.0,0.0,0.0,0.0,0.0,1.9205,1.9634,1.9653,2.0061,2.0147,1.9783,1.93,1.8542,1.7481,1.7157,1.7424,1.8266,1.7883,1.7825,1.8103,1.8913,1.8984,1.8462,1.8135,1.7619,1.691,1.6061,1.6022,1.6516,0.0,0.0,0.0,0.0,0.0,0.0,0.0,0.0,0.0,1.932,1.9858,2.0374,1.974,1.9261,1.9058,1.9582,2.0419,2.216,2.6335,2.8636,3.0844,3.4527,3.6636,3.8593,4.1338,4.2236,4.2083,4.0578,4.1035,4.1542,4.1255,4.1457,4.2269,4.4096,4.3961,4.3842,4.4299,4.435,4.435,4.435,4.3944,4.3859,4.4316,4.3487,4.2963,4.2963,4.2252,4.1863,4.1863,4.1863,4.2083,4.2513,4.3105,4.3504,4.3701,4.3978,4.4434,4.501,4.5179,4.5162,4.4993,4.4857,4.4807,4.4823,4.5128,4.5432,4.5788,4.6701,4.6938,4.6904,4.78,4.8037,4.7939,0.0,0.0,0.0,0.0,0.0,0.0,0.0,0.0,0.0,0.0,1.8122,1.8837,0.0,0.0,0.0,0.0,0.0,0.0,0.0,1.9968,2.0331,2.0483,2.036,1.9923,1.9141,1.9121,1.9111,1.9112,1.8254,1.8219,1.8972,1.8103,1.7353,1.6756,1.7487,1.7853,1.7891,1.716,1.7218,1.7757,1.6949,1.666,1.6804,1.7474,0.0,0.0,0.0,0.0,0.0,0.0,0.0,0.0,1.9269,1.9764,2.0089,1.8548,1.8384,1.8846,1.96,2.1027,2.353,2.8721,3.0818,3.2563,3.6266,3.9174,4.1702,4.3855,4.4288,4.3887,4.254,4.2236,4.1999,4.1407,4.1745,4.2134,4.2269,4.2236,4.2219,4.2286,4.2286,4.2286,4.2286,4.2286,4.2286,4.2286,4.2236,4.2202,4.2202,4.1508,4.1102,4.1102,4.1102,4.1136,4.1204,4.2513,4.2912,4.2303,4.298,4.2912,4.2236,4.3735,4.3633,4.2337,4.3014,4.3325,4.3443,4.4181,4.4925,4.5618,4.5669,4.6075,4.6629,4.6806,4.7234,4.7733,0.0,0.0,0.0,0.0,0.0,0.0,0.0,0.0,0.0,0.0,0.0,0.0,0.0,0.0,0.0,0.0,0.0,0.0,0.0,1.9734,1.9688,2.0386,2.0344,2.0208,2.0015,2.0015,2.0021,2.0019,1.9142,1.8815,1.8981,1.81,1.7968,1.8472,1.8635,1.9096,1.9731,1.9558,1.9196,1.8645,1.7795,1.7853,1.8488,1.8647,1.8801,0.0,0.0,0.0,0.0,0.0,0.0,0.0,1.8595,1.9035,1.9363,1.839,1.8341,1.9037,2.0892,2.1832,2.3412,2.8061,3.1968,3.5645,3.9362,4.029,4.0652,4.1721,4.1925,4.2016,4.2252,4.183,4.1576,4.1999,4.1247,4.0993,4.2134,4.1796,4.1644,4.2219,4.2286,4.2286,4.2286,4.2286,4.2286,4.2286,4.1762,4.1441,4.1441,4.073,4.035,4.035,4.035,4.0595,4.1204,4.1525,4.188,4.2286,4.2455,4.2151,4.1474,4.2371,4.2608,4.2303,4.2472,4.2878,4.3409,4.3606,4.4113,4.4874,4.5466,4.5432,4.5264,4.6889,4.6937,4.6331,0.0,0.0,0.0,0.0,0.0,0.0,0.0,0.0,0.0,0.0,0.0,0.0,0.0,0.0,0.0,0.0,0.0,0.0,0.0,0.0,1.9914,2.0338,2.0313,2.0292,2.0308,2.0308,2.0303,2.0308,1.9831,1.9381,1.8903,1.8497,1.8302,1.8279,1.8344,1.8869,1.9642,1.9234,1.9023,1.8965,1.8507,1.8588,1.9049,1.9469,1.9619,1.9665,2.0016,0.0,0.0,0.0,0.0,0.0,0.0,0.0,1.8482,1.7307,1.773,1.8831,1.9928,2.2276,2.5659,3.0869,3.4979,3.8176,3.9783,4.0104,4.0315,4.1057,4.149,4.1728,4.1762,4.1457,4.1221,4.1221,4.0603,4.0367,4.1145,4.0916,4.0815,4.1213,4.1264,4.1264,4.1264,4.1264,4.1264,4.1264,4.0882,4.0663,4.0663,4.0316,4.0096,4.0096,4.0096,4.0282,4.0663,4.1018,4.1221,4.1264,4.1593,4.139,4.0679,4.1077,4.1424,4.1762,4.1762,4.1999,4.2388,4.2743,4.3335,4.4028,4.4062,4.447,4.5113,4.5839,4.6334,4.6644,0.0,0.0,0.0,0.0,0.0,0.0,0.0,0.0,0.0,0.0,0.0,0.0,0.0,0.0,0.0,0.0,0.0,0.0,0.0,0.0,0.0,2.0296,2.0308,2.0295,2.0292,2.0308,2.0308,2.0308,2.0308,1.9988,1.9377,1.9235,1.8737,1.7936,1.8198,1.8562,1.8969,1.8546,1.8696,1.9227,1.9219,1.9223,1.93,2.0023,2.0308,2.0308,2.0308,2.0192,1.995,1.9126,0.0,0.0,0.0,0.0,1.7426,1.5919,1.6859,1.8406,1.8553,2.2743,2.8433,3.4011,3.7381,3.9249,3.8886,3.9377,4.0096,4.0696,4.1407,4.1728,4.1119,4.0916,4.0612,4.0011,3.9808,3.9723,3.9723,3.9842,3.991,3.991,4.0028,4.0096,4.0096,4.0096,4.0096,4.0096,4.0096,4.0096,4.0096,4.0096,4.0096,4.0096,4.0096,4.0096,4.0096,4.0696,4.0696,4.0113,4.0713,4.0679,4.0096,4.0096,4.0434,4.1018,4.1018,4.1085,4.1255,4.1863,4.254,4.3166,4.254,4.3535,4.526,4.4752,4.5768,4.73,0.0,0.0,0.0,0.0,0.0,0.0,0.0,0.0,0.0,0.0,2.0231,2.0254,0.0,0.0,0.0,0.0,0.0,0.0,2.0605,0.0,0.0,2.0296,2.03,2.0304,2.0308,2.0308,2.0308,2.0308,2.0308,2.081,2.1727,2.0462,1.9797,1.9701,2.0416,2.0097,1.9092,2.0423,2.0654,2.0135,2.0135,2.0139,2.0135,2.025,2.0308,2.0308,2.0308,1.9812,1.9142,1.9024,1.8384,0.0,0.0,0.0,1.5996,1.4956,1.5994,1.7749,1.9013,2.3927,2.9653,3.3643,3.5436,3.6512,3.777,3.8616,3.9157,3.9259,3.9893,4.0367,4.0282,3.9715,3.9259,3.9157,3.8616,3.8193,3.8193,3.8734,3.914,3.914,3.9723,4.0096,4.0096,4.0096,4.0096,4.0096,4.0096,4.0096,4.0096,4.0096,4.0096,4.0096,4.0096,4.0096,4.0096,4.0197,4.0197,4.0096,4.0197,4.0197,4.0096,4.0096,4.0146,4.0248,4.0248,4.0595,4.1221,4.1322,4.1779,4.2439,4.2337,4.3236,4.459,4.5017,4.5782,4.6542,0.0,0.0,0.0,0.0,0.0,0.0,0.0,0.0,0.0,0.0,0.0,2.0308,0.0,0.0,0.0,2.0406,2.0483,2.0546,2.0541,2.0446,2.0371,2.0299,2.03,2.0308,2.0308,2.0308,2.0308,2.0308,2.0308,2.1172,2.2865,2.2217,2.1922,2.1979,2.2288,2.1942,2.1131,2.1263,2.1144,2.0833,2.0457,2.0237,2.0133,2.0269,2.0308,2.0231,1.9754,1.9642,1.9581,1.86,1.7957,1.7405,1.6506,0.0,0.0,0.0,1.5655,1.7621,2.1449,2.4233,2.7436,3.3076,3.4117,3.4472,3.728,3.7821,3.7872,3.8294,3.8633,3.9106,3.996,3.9503,3.8988,3.8988,3.8379,3.7905,3.7905,3.8176,3.8379,3.8379,3.9022,3.9486,3.9486,3.9859,4.0096,4.0096,4.0096,4.0096,4.0096,4.0096,4.0096,4.0096,3.9706,3.969,4.0096,3.9706,3.9706,4.0096,4.0096,4.0096,4.0096,4.0096,4.0096,4.0096,4.0096,4.0282,4.0578,4.0578,4.1018,4.1644,4.1247,4.2368,4.4255,4.4579,4.5569,4.681,0.0,0.0,0.0,0.0,0.0,0.0,0.0,0.0,0.0,0.0,0.0,0.0,0.0,0.0,0.0,0.0,2.0477,2.0526,2.0491,2.0435,2.0363,2.0294,2.0303,2.0308,2.0308,2.0308,2.0308,2.0308,2.05,2.1497,2.3191,2.3764,2.4094,2.4171,2.3868,2.3385,2.275,2.1889,2.1471,2.1297,2.0709,2.0413,2.0289,2.0202,2.0314,2.0408,1.9528,1.9502,1.968,1.816,1.7635,1.7411,1.6311,1.5556,0.0,0.0,0.0,1.7728,2.2252,2.3505,2.4901,3.0617,3.1588,3.1935,3.4945,3.5791,3.6146,3.6891,3.7499,3.8244,3.9351,3.8945,3.8497,3.8684,3.7939,3.733,3.733,3.7499,3.7618,3.7618,3.8261,3.8785,3.8971,3.9503,3.9825,3.9825,3.9825,3.974,3.9554,3.9529,3.9529,3.9529,3.9174,3.9157,3.9554,3.9174,3.9276,3.9825,4.0011,4.0096,4.0096,4.0096,4.0096,4.0096,4.0096,4.0096,4.0096,4.0096,4.0409,4.0865,4.0316,4.1609,4.3846,4.4108,4.5425,4.7129,0.0,0.0,0.0,0.0,0.0,0.0,0.0,0.0,0.0,0.0,0.0,0.0,2.0308,2.0369,2.0406,2.0408,2.0515,2.0565,2.051,2.0435,2.0363,2.0294,2.0303,0.0,2.0308,2.0308,2.0308,2.0308,2.1058,2.1819,2.2587,2.4763,2.5876,2.6027,2.5052,2.3948,2.2788,2.2543,2.2062,2.1455,2.1107,2.1024,2.1037,2.0161,2.0378,2.1029,2.0085,1.9385,1.8741,1.7829,1.7543,1.7296,1.5605,1.5516,1.6008,0.0,0.0,0.0,1.9462,2.1283,2.3191,2.4962,2.6736,2.828,2.9247,3.1596,3.3795,3.4523,3.64,3.7922,3.8007,3.7398,3.7151,3.7838,3.6698,3.5718,3.5718,3.6383,3.6863,3.6863,3.7499,3.8227,3.892,3.9022,3.9056,3.9056,3.9056,3.8751,3.8058,3.8024,3.8024,3.8024,3.865,3.8684,3.8024,3.8667,3.9005,3.9056,3.9774,4.0096,4.0096,4.0096,4.0096,4.0096,4.0096,4.0096,4.0096,4.0096,4.013,4.0146,4.0113,4.1322,4.315,4.3913,4.5425,4.7129,0.0,0.0,0.0,0.0,0.0,0.0,0.0,0.0,0.0,0.0,0.0,0.0,0.0,2.0416,2.0451,2.0451,2.0541,2.0586,2.0564,2.047,2.0381,2.0378,2.0314,2.0308,2.0308,2.0308,2.0308,2.0308,2.0596,2.1593,2.3282,2.3525,2.4568,2.6218,2.654,2.6142,2.5178,2.416,2.3435,2.2918,2.2104,2.1519,2.1081,2.0714,2.0789,2.0895,1.9464,1.9492,2.0012,1.8759,1.8256,1.8008,1.703,1.6746,1.6618,1.5967,1.6798,1.811,1.8878,1.928,2.0255,2.34,2.359,2.3536,2.564,2.8434,3.0226,2.9042,3.2121,3.4726,3.3778,3.5357,3.6897,3.7168,3.6299,3.56,3.56,3.5859,3.6028,3.6028,3.6721,3.7297,3.7574,3.8007,3.8294,3.8294,3.7855,3.7669,3.7889,3.7449,3.7398,3.7889,3.7686,3.7472,3.7218,3.7922,3.8294,3.8311,3.9039,3.9402,3.9402,3.9402,3.9656,4.0079,3.9605,3.9673,4.0096,4.0096,4.0096,4.0096,4.0096,4.097,4.2381,4.3718,4.5101,4.6489,0.0,0.0,0.0,0.0,0.0,0.0,0.0,0.0,2.0314,2.0338,0.0,0.0,0.0,0.0,2.0511,2.0538,2.0565,2.0605,2.0605,2.0506,2.0291,2.0004,1.9936,1.9883,1.985,1.985,2.0004,2.0308,2.0577,2.1333,2.2566,2.2753,2.3641,2.5099,2.6241,2.6631,2.6378,2.4986,2.4271,2.4031,2.3191,2.26,2.2161,2.1814,2.1878,2.1988,2.0826,2.0816,2.1215,2.0489,1.9806,1.9174,1.8564,1.7993,1.734,1.6185,1.7151,1.8496,1.7972,1.797,1.8726,2.1148,2.0657,2.0158,2.2265,2.5212,2.7131,2.5862,2.9381,3.2357,3.1376,3.3241,3.517,3.5915,3.5368,3.494,3.5194,3.5008,3.5042,3.5532,3.5639,3.5966,3.6728,3.6992,3.7246,3.7499,3.7083,3.6891,3.7127,3.6654,3.6738,3.7499,3.6789,3.6541,3.6795,3.728,3.7533,3.7533,3.8278,3.8633,3.8633,3.8633,3.9022,3.9706,3.9208,3.9436,4.0096,4.0096,4.0096,4.0096,4.0096,4.0791,4.1987,4.3611,4.4921,4.6122,0.0,0.0,0.0,0.0,0.0,0.0,0.0,0.0,2.0302,2.0385,0.0,0.0,0.0,0.0,0.0,2.0566,2.0547,2.0527,2.0527,2.0461,2.0048,1.9195,1.9117,1.9064,1.8999,1.9034,1.9453,2.0308,2.1077,2.1077,2.0381,2.2585,2.3294,2.2818,2.3971,2.508,2.6007,2.4907,2.4551,2.4678,2.4394,2.4312,2.4269,2.34,2.3611,2.4345,2.4247,2.3279,2.2179,2.2899,2.2107,2.0695,1.9938,1.9156,1.8224,1.6626,1.7789,1.9061,0.0,0.0,0.0,1.7884,1.7886,1.8322,1.9057,2.1875,2.4557,2.5303,2.8434,3.1041,3.1038,3.1089,3.1833,3.3981,3.3795,3.3626,3.4353,3.3846,3.3931,3.5363,3.4286,3.4269,3.6491,3.5994,3.5876,3.6677,3.6694,3.6349,3.5633,3.5583,3.5943,3.6745,3.5994,3.5943,3.6728,3.6761,3.6761,3.6745,3.7499,3.7872,3.7872,3.7872,3.8278,3.8954,3.8937,3.9368,4.0045,4.0079,4.0096,4.0096,4.0096,4.0791,4.1987,4.3611,4.4921,4.6122,0.0,0.0,0.0,0.0,0.0,2.0366,2.0363,1.9837,1.9681,0.0,0.0,0.0,2.0462,1.9997,1.9648,1.9668,1.9082,1.8711,1.8711,1.8663,1.8511,1.8268,1.8794,1.9085,1.9066,1.9635,2.0053,2.0308,2.0519,2.0827,2.1173,2.1227,2.1416,2.1718,2.1909,2.2438,2.3248,2.4664,2.5074,2.484,2.5615,2.5004,2.368,2.445,2.4173,2.3456,2.4007,2.3934,2.363,2.3948,2.2922,2.1279,1.9852,1.9309,1.9005,1.788,1.8412,1.9114,1.7847,0.0,0.0,0.0,0.0,0.0,1.7029,1.9119,2.107,2.1772,2.4829,2.7317,2.7182,2.8501,2.9822,3.0431,3.1701,3.2848,3.3592,3.3541,3.3558,3.3964,3.366,3.366,3.4286,3.415,3.432,3.5064,3.4155,3.4155,3.5515,3.5098,3.5148,3.591,3.5199,3.4912,3.5115,3.5673,3.5673,3.5131,3.6451,3.7117,3.7117,3.7117,3.7499,3.8176,3.7635,3.7821,3.8582,3.9673,4.0096,4.0096,4.0096,4.0791,4.1987,4.3611,4.4921,4.6122,0.0,0.0,0.0,1.9859,1.9837,1.9731,1.9417,1.8931,1.8946,0.0,0.0,0.0,1.9959,1.9236,1.8727,1.8723,1.8257,1.7966,1.7966,1.8295,1.831,1.7912,1.8695,1.914,1.9101,1.9552,1.9961,2.0308,2.0308,2.0538,2.0981,2.0519,2.0461,2.0746,2.0638,2.0929,2.1644,2.3721,2.4767,2.5144,2.6184,2.6033,2.5273,2.6086,2.5833,2.5107,2.5915,2.5988,2.577,2.6175,2.4745,2.2638,2.173,2.08,1.9957,1.9453,1.9608,1.9527,1.7678,1.7293,1.7199,1.6415,0.0,0.0,1.6394,1.8606,2.0695,2.1084,2.4138,2.6499,2.5712,2.6649,2.7599,2.7725,2.8833,3.0224,3.1799,3.1765,3.1782,3.2408,3.2222,3.2273,3.2882,3.2933,3.3254,3.3981,3.3237,3.3322,3.4602,3.4269,3.4252,3.467,3.4269,3.4032,3.4032,3.4472,3.4624,3.4506,3.5424,3.5994,3.6299,3.6299,3.6721,3.7415,3.6998,3.7212,3.7973,3.8819,3.9343,3.9673,3.9977,4.0791,4.1952,4.3217,4.4633,4.6085,0.0,0.0,2.006,1.9253,1.9128,1.8853,1.8045,1.7834,1.8095,0.0,1.916,1.912,1.9073,1.8288,1.7772,1.7772,1.767,1.766,1.776,1.8552,1.867,1.7939,1.8737,1.9178,1.9109,1.9195,1.9574,2.0308,2.0277,2.0273,2.0273,2.0241,2.0196,2.0096,2.0096,2.0406,2.1005,2.2524,2.3988,2.5356,2.6277,2.7035,2.7614,2.7798,2.7783,2.7769,2.8675,2.8484,2.7915,2.862,2.7024,2.4678,2.4458,2.2969,2.128,2.1141,2.0998,2.028,1.7343,1.7389,1.7913,1.6573,1.6422,0.0,1.7102,1.9362,2.1533,2.2027,2.4601,2.6393,2.5169,2.4962,2.5076,2.5466,2.5527,2.6539,2.9451,2.9347,2.945,3.0666,3.0328,3.0497,3.1802,3.1938,3.2276,3.3102,3.3322,3.3372,3.3288,3.3288,3.3322,3.3406,3.3322,3.3288,3.3288,3.3372,3.3694,3.4252,3.4404,3.4844,3.5481,3.5566,3.5994,3.6677,3.6677,3.7026,3.7652,3.7736,3.8261,3.9056,3.9723,4.0675,4.1813,4.2617,4.4101,4.5792,2.0307,2.0398,2.0198,1.9324,1.9227,1.8962,1.8104,1.7382,1.7246,1.8144,1.8242,1.8242,1.8242,1.7454,1.6937,1.6934,1.6236,1.6138,1.6879,1.7118,1.7436,1.7968,1.876,1.9162,1.9103,1.9735,2.0134,2.0308,2.0148,2.0064,2.006,1.9952,2.0167,2.0642,2.0642,2.1001,2.167,2.2628,2.3584,2.4592,2.6375,2.6796,2.6494,2.7803,2.7687,2.7016,2.8473,2.8484,2.7824,2.797,2.8062,2.7622,2.5046,2.4367,2.4137,2.2219,2.1639,2.1467,2.0815,1.9871,1.915,1.9483,1.8188,0.0,2.0185,1.8794,1.7978,2.1606,2.0878,2.0018,2.133,2.1563,2.1785,2.2499,2.2608,2.394,2.7724,2.867,2.8874,2.85,2.8907,2.9331,2.9619,2.9636,3.0211,3.1529,3.273,3.3136,3.2564,3.2513,3.278,3.3389,3.2814,3.2513,3.2513,3.3102,3.3169,3.275,3.3935,3.4573,3.4726,3.5329,3.5684,3.5819,3.5819,3.5904,3.609,3.6738,3.7787,3.9005,3.9157,3.9983,4.1192,4.2039,4.3172,4.4405,2.0385,2.0446,2.0101,1.8821,1.8594,1.8161,1.6891,1.63,1.6338,1.7222,1.7734,1.7988,1.7946,1.7559,1.7281,1.7245,1.6423,1.6277,1.7191,1.7274,1.7662,1.8513,1.9358,1.9777,1.9697,2.0092,2.0308,2.0308,2.0604,2.0493,2.0007,2.0375,2.0205,1.964,2.0446,2.0493,2.0079,2.2125,2.3343,2.405,2.5863,2.6723,2.6986,2.7828,2.7869,2.7579,2.8218,2.8425,2.8366,2.8136,2.833,2.8367,2.6745,2.5859,2.5081,2.3465,2.2703,2.2226,2.1382,2.0244,1.9297,1.93,1.8695,0.0,0.0,1.9638,1.9865,2.1707,2.1143,2.0481,2.1077,2.0841,2.0628,2.0856,2.1235,2.2013,2.3454,2.5554,2.7027,2.7233,2.7943,2.8399,2.8399,2.8773,2.9314,3.0059,3.1123,3.1596,3.1207,3.1565,3.1918,3.229,3.1935,3.1752,3.1752,3.2121,3.229,3.231,3.3055,3.3613,3.3964,3.4336,3.4687,3.5064,3.5064,3.5267,3.5633,3.6045,3.6874,3.798,3.87,3.9792,4.0955,4.1394,4.2555,4.396,2.0485,2.0511,2.0032,1.8496,1.8041,1.7387,1.5856,1.5448,1.564,1.6584,1.7302,1.783,1.8063,1.7822,1.774,1.7979,1.7175,1.7073,1.799,1.8055,1.8397,1.9097,1.9929,2.0272,2.0081,2.0372,2.051,2.0463,2.1098,2.1044,2.0392,2.1091,2.0646,1.9332,2.0489,2.0472,1.9772,2.2282,2.3653,2.4294,2.5672,2.6916,2.7939,2.8122,2.8389,2.8607,2.8401,2.87,2.9169,2.8887,2.8671,2.8545,2.8545,2.7307,2.5695,2.4789,2.3912,2.2896,2.1391,2.0391,1.9627,1.8977,1.9289,1.9609,0.0,0.0,0.0,2.1445,2.1584,2.1575,2.0766,2.0042,1.9551,1.9416,1.9822,2.0007,1.9646,2.1986,2.4215,2.5517,2.6302,2.6843,2.7131,2.801,2.862,2.8773,2.96,3.0108,3.0108,3.0801,3.119,3.119,3.119,3.119,3.119,3.119,3.1515,3.209,3.2226,3.2615,3.3186,3.3339,3.3728,3.4286,3.4286,3.4709,3.538,3.538,3.5943,3.6931,3.8115,3.9395,4.0549,4.0649,4.1886,4.3512,2.0511,2.0541,2.0273,1.9245,1.8422,1.7575,1.6619,1.5799,1.564,1.6584,1.6794,1.7336,1.8636,1.7563,1.7273,1.8563,1.7835,1.7773,1.8888,1.8786,1.8837,1.9165,1.9913,1.997,1.9248,2.0638,2.128,2.1093,2.1074,2.1299,2.1772,2.1755,2.2,2.2454,2.192,2.2938,2.4984,2.4637,2.5194,2.6306,2.6847,2.7579,2.8399,2.9059,2.9387,2.9498,2.9763,2.9894,3.0026,3.0388,3.0044,2.9449,2.9449,2.8567,2.7292,2.6067,2.4921,2.3878,2.2951,2.2134,2.1482,2.139,2.1445,2.1482,2.139,0.0,1.9701,1.9609,0.0,1.7355,1.6536,0.0,0.0,1.7135,1.6739,1.7169,1.9604,1.9687,2.0128,2.1807,2.2558,2.3444,2.4745,2.6149,2.7232,2.7891,2.9277,3.0108,3.0108,3.0801,3.119,3.119,3.119,3.119,3.119,3.119,3.1241,3.1326,3.1989,3.2344,3.2446,3.3102,3.3457,3.3525,3.3525,3.3947,3.4624,3.4624,3.547,3.6829,3.6981,3.7943,3.9268,3.9767,4.081,4.2121,2.0466,2.0175,1.9706,1.928,1.8059,1.7005,1.6596,1.6251,1.6384,1.7288,1.8289,1.9457,2.0898,2.0898,2.1224,2.2307,2.1045,2.0643,2.1708,2.035,1.9981,2.1073,2.06,2.014,1.9792,2.0466,2.0932,2.12,2.165,2.1903,2.2009,2.2463,2.2271,2.1557,2.1739,2.2308,2.3239,2.4275,2.544,2.6687,2.7749,2.8684,2.9313,2.8729,2.8818,2.9219,2.9113,2.952,3.0058,2.9799,3.0214,3.0691,2.9562,2.8367,2.7248,2.6506,2.4644,2.2997,2.3824,2.3425,2.2839,2.3116,2.333,2.3311,2.2658,2.1951,2.1308,2.0858,0.0,0.0,0.0,0.0,0.0,0.0,1.7007,1.7021,1.6849,1.7183,1.8501,2.1301,2.1861,2.2728,2.4558,2.5326,2.5949,2.6471,2.752,2.8315,2.8737,2.9922,3.0768,3.119,3.119,3.119,3.119,3.119,3.119,3.119,3.1495,3.1667,3.1684,3.1985,3.2357,3.278,3.322,3.3829,3.4523,3.4962,3.552,3.6096,3.6096,3.7478,3.9548,4.0062,4.1155,4.2362,2.082,2.0254,1.9627,1.9545,1.8295,1.7214,1.69,1.7101,1.766,1.8695,2.001,2.1332,2.2697,2.284,2.3304,2.4465,2.3321,2.2938,2.3878,2.1851,2.1238,2.2672,2.1129,2.0304,2.048,2.0548,2.0733,2.1088,2.1766,2.2041,2.1956,2.2582,2.2286,2.1208,2.184,2.2381,2.2945,2.4754,2.6251,2.7504,2.8741,2.9645,3.0145,2.9008,2.8999,2.9571,2.9229,2.9668,3.0306,2.9602,3.0157,3.0924,2.975,2.8541,2.7571,2.7414,2.5486,2.3691,2.4921,2.4807,2.4277,2.406,2.4523,2.4683,2.3306,2.2822,2.2575,2.2189,2.1272,0.0,0.0,0.0,1.8856,1.744,0.0,1.7154,1.5405,1.6005,1.7622,2.0354,2.1289,2.2171,2.3323,2.3936,2.4313,2.4447,2.5658,2.6725,2.7452,2.9142,3.0446,3.1173,3.119,3.119,3.119,3.119,3.119,3.119,3.119,3.119,3.119,3.119,3.1478,3.2039,3.256,3.322,3.3947,3.4692,3.5109,3.5357,3.5839,3.7573,3.9774,4.0176,4.1163,4.2406,2.1855,2.1152,2.0524,2.039,1.9675,1.8807,1.79,1.849,1.9548,2.0994,2.1463,2.2117,2.3337,2.1641,2.1227,2.3279,2.3411,2.3716,2.452,2.3036,2.2504,2.3322,2.1204,2.0307,2.096,2.117,2.1125,2.0814,2.0966,2.1314,2.1803,2.1848,2.2235,2.2914,2.2951,2.4418,2.6943,2.7402,2.8301,2.9437,2.9888,3.0307,3.0664,3.056,3.0771,3.1142,3.1108,3.1142,3.1099,3.0676,3.0058,0.0,0.0,0.0,2.8888,2.921,2.8469,2.7338,2.663,2.6423,2.5944,2.4004,2.471,2.536,2.3434,2.2391,2.2051,2.2804,2.1648,2.0254,1.9481,1.9315,1.904,1.8207,1.7422,0.0,0.0,1.6865,1.7115,1.7764,2.0022,2.1044,1.9879,2.137,2.2153,2.158,2.4088,2.5964,2.6691,2.8873,3.0446,3.1173,3.119,3.119,3.119,3.119,3.119,3.119,3.119,3.119,3.119,3.119,3.1207,3.1241,3.1258,3.1701,3.2429,3.3169,3.3897,3.472,3.6449,3.8166,3.9625,3.9645,4.0402,4.1649,2.1742,2.1982,2.1995,2.1364,2.008,1.9402,2.018,1.9613,2.0618,2.4841,2.5442,2.6766,3.0152,2.987,2.9353,2.9165,2.9036,2.8427,2.7196,2.6602,2.6107,2.5668,2.5037,2.3785,2.185,2.2387,2.2063,2.0792,2.0856,2.1191,2.1794,2.1794,2.1941,2.2226,2.2749,2.3656,2.4913,2.6875,2.8078,2.8799,2.997,3.0505,3.0681,3.12,3.149,3.1603,3.1603,3.143,0.0,3.0745,3.0587,3.059,3.0592,2.9608,2.8624,2.9569,2.8075,2.6349,0.0,0.0,2.76,2.7549,0.0,0.0,2.6326,2.4722,2.3309,2.3043,2.2547,2.174,2.0346,2.0089,1.9649,1.8309,1.7869,1.752,0.0,1.6908,1.7149,1.788,1.9668,2.0573,1.9937,2.0951,2.1433,2.0964,2.2151,0.0,2.4712,2.674,2.8416,2.9704,3.0683,3.119,3.119,3.119,3.119,3.119,3.119,3.119,3.119,3.119,3.119,3.1224,3.1718,3.2361,3.3085,3.3812,3.4556,3.5316,3.6291,3.7554,3.8938,4.0149,4.1522,4.2848,2.261,2.3042,2.3148,2.2272,2.0859,2.052,2.2516,2.2157,2.3434,2.8351,2.9105,3.044,3.3746,3.3625,3.3056,3.2427,3.1832,3.1036,2.9968,2.8757,2.8187,2.8426,2.7045,2.5633,2.4213,2.3333,2.2753,2.244,2.1053,2.1011,2.2208,2.1923,2.1959,2.2263,2.3364,2.4155,2.4817,2.7138,2.8275,2.8649,3.0041,3.0767,3.1062,3.1481,3.1618,3.1584,0.0,3.1411,3.1164,3.0905,3.0999,3.1147,3.0888,3.0085,2.9431,3.0249,2.9005,2.7678,2.899,2.9403,0.0,2.9716,2.929,0.0,2.8675,0.0,2.5493,2.5538,2.5107,2.4208,2.2556,2.2015,2.119,1.9263,1.8951,1.8768,0.0,1.744,1.7202,1.7997,1.893,1.9471,1.9334,1.9659,1.9814,1.9638,2.0363,2.1586,2.3315,2.5588,2.7505,2.8942,3.0429,3.119,3.119,3.119,3.119,3.119,3.119,3.119,3.119,3.119,3.119,3.1241,3.1989,3.2581,3.3085,3.4083,3.4776,3.5299,3.6312,3.7396,3.8583,4.0237,4.1949,4.3515,2.4383,2.4257,2.3992,2.3162,2.2153,2.2274,2.4744,2.5881,2.7759,3.1422,3.2355,3.3128,3.4334,3.3238,3.2605,3.3054,3.1936,3.1616,3.258,2.9626,2.8944,3.1403,2.7541,2.611,2.7816,2.4275,2.3386,2.5393,2.1663,2.0933,2.3043,2.2253,2.2263,2.3061,2.4732,2.587,2.6651,2.8285,2.8966,2.9079,3.0142,3.1045,3.1722,3.1386,3.1254,3.121,3.123,3.121,3.119,3.119,3.119,3.119,3.119,3.119,3.119,3.119,3.119,3.119,3.119,3.147,3.1514,3.047,3.0481,0.0,0.0,0.0,2.8319,0.0,0.0,2.7376,2.576,2.475,2.3364,2.1006,2.0529,2.0456,2.0484,1.8467,1.7257,1.8052,1.7861,1.7762,1.8012,1.7651,1.7489,1.7696,1.8882,2.0514,2.2604,2.5392,2.757,2.896,3.033,3.1089,3.119,3.1157,3.1157,3.119,3.119,3.119,3.119,3.119,3.119,3.1241,3.1938,3.2293,3.2462,3.3884,3.4489,3.4737,3.6505,3.7726,3.8621,3.9932,4.1722,4.3515,2.5022,2.5026,2.4951,2.4715,2.4812,2.5355,2.6669,2.7899,3.0142,3.4202,3.568,3.7192,3.9421,3.9649,3.8641,3.615,3.5627,3.4811,3.3288,3.2928,3.2906,3.3185,3.2674,3.1212,2.876,2.8309,2.7216,2.5393,2.3805,2.3327,2.3878,2.307,2.2804,2.3098,2.5309,2.6062,2.5892,2.8624,2.9951,3.0177,3.0202,3.0504,3.0906,3.0803,3.0951,3.1249,3.1545,3.1468,3.119,3.119,3.119,3.119,3.119,3.119,3.119,3.119,3.119,3.119,3.119,3.1271,3.144,3.179,3.1082,3.0433,0.0,0.0,0.0,0.0,0.0,0.0,0.0,0.0,2.3098,2.2456,2.0813,1.9822,2.0419,1.8933,1.8089,1.8911,1.7885,1.7132,1.7195,1.8169,1.8575,1.8045,1.9039,2.0635,2.2805,0.0,2.5774,2.8891,2.8789,2.9499,3.1173,3.0666,3.0666,3.119,3.119,3.119,3.119,3.119,3.119,3.1207,3.1393,3.2087,3.3152,3.3525,3.4336,3.5445,3.6716,3.8151,3.97,4.1223,4.2513,4.3515,2.5805,2.6077,2.6142,2.5759,2.7896,2.9605,2.9492,3.0359,3.2485,3.6547,3.7787,3.9095,4.1163,4.1922,4.1496,3.95,3.7461,3.6284,3.6249,3.4531,3.4083,3.5372,3.4589,3.2686,2.9592,2.9274,2.8448,2.6961,2.4759,2.4575,2.6282,2.4759,2.4245,2.4639,2.6355,2.6869,2.6599,2.8677,2.9974,3.0577,3.0383,3.0543,0.0,3.0679,3.0858,3.123,3.1468,3.1391,3.119,3.119,3.119,3.119,3.119,3.119,3.123,3.1411,3.1451,3.1507,3.1695,3.1932,3.2144,3.2434,3.2117,3.1802,3.212,3.1978,3.1513,0.0,3.0779,3.0613,0.0,0.0,2.3997,2.2199,2.0731,1.9987,2.0437,1.9722,1.9062,1.8812,1.8603,1.8192,1.7495,1.7924,1.8353,1.861,1.9186,2.032,0.0,2.3859,2.5678,2.7674,2.8903,2.9844,3.0458,3.0917,3.1072,3.0953,3.1297,3.137,3.119,3.119,3.1376,3.1701,3.2264,3.3166,3.4257,3.4582,3.5345,3.6378,3.7174,3.8486,4.0047,4.1313,4.2286,4.302,2.6762,2.7345,2.7535,2.678,3.0863,3.3942,3.3047,3.3657,3.5347,3.8501,3.9361,4.0104,4.1209,4.2007,4.2395,4.2206,3.8413,3.7141,3.9774,3.5497,3.4325,3.7669,3.4997,3.2618,3.087,2.9255,2.8778,2.9464,2.5648,2.5629,2.9115,2.6778,2.609,2.6796,2.7603,2.8017,2.8147,2.8741,2.962,3.0594,3.0594,3.0809,3.1089,3.0793,3.0905,3.119,3.119,3.119,3.119,3.119,3.119,3.119,3.119,3.119,3.1271,3.1678,3.1807,3.1897,3.2366,3.2793,3.3029,3.2681,3.3166,3.3671,3.3491,3.3715,3.3972,3.3972,3.3972,3.3495,0.0,0.0,2.5519,2.1758,2.0786,2.0584,2.0804,2.0841,2.0236,1.8603,1.985,0.0,1.8566,1.777,1.7961,1.9352,1.9615,2.0277,0.0,0.0,2.6211,2.6301,2.9453,3.0749,2.9955,3.1494,3.1881,3.1126,3.1738,3.1848,3.1478,3.1557,3.1896,3.25,3.3596,3.454,3.5344,3.6,3.6676,3.7323,3.7737,3.8651,3.9845,4.0763,4.1535,4.2268,2.8061,2.8697,2.9171,2.9039,3.2384,3.5706,3.7495,3.9427,4.0511,4.008,4.1606,4.2668,4.2514,4.2963,4.2826,4.1742,4.0247,3.9597,4.0195,3.8069,3.759,3.9399,3.7077,3.5239,3.4179,3.2583,3.183,3.1977,2.9262,2.8656,2.9941,2.8191,2.7449,2.7622,2.8418,2.9121,2.968,2.9543,2.99,3.0594,3.0594,3.0628,3.0728,3.0997,3.115,3.119,3.119,3.119,3.119,3.119,3.119,3.119,3.119,3.119,3.1271,3.1678,3.1807,3.1897,3.2366,3.2567,3.2697,3.2999,3.3199,3.3542,3.4479,3.4742,3.4784,3.4784,3.4784,3.4509,3.355,0.0,0.0,2.4879,2.2281,2.0988,2.2364,2.2566,2.1942,2.0291,2.1557,2.1905,2.0236,1.9953,1.9997,2.0272,2.1316,2.2293,0.0,0.0,2.53,0.0,2.753,0.0,0.0,0.0,3.1956,3.3803,3.3504,3.3239,3.3038,3.347,3.3499,3.322,3.3443,3.4196,3.5292,3.5431,3.64,3.779,3.7859,3.8307,3.9093,4.0545,4.1187,4.1517,2.9998,2.9994,3.0372,3.1181,3.4215,3.7342,3.9728,4.1886,4.2775,4.1507,4.1869,4.2169,4.1939,4.2862,4.3252,4.2588,4.1018,4.0594,4.1883,3.9634,3.8932,4.0451,3.8212,3.5936,3.3793,3.3005,3.2179,3.1366,2.9365,2.9219,3.076,2.8319,2.7622,2.8455,2.9053,2.9516,2.984,3.0041,3.0289,3.0628,3.0825,3.0904,3.0936,3.1116,3.119,3.119,3.119,3.1464,3.1718,3.1326,3.119,3.119,3.119,3.1464,3.191,3.2596,3.3073,3.3512,3.4269,3.4475,3.4475,3.4442,3.4631,3.4798,3.4714,3.4844,3.4876,3.4454,3.438,3.388,3.2228,3.0687,0.0,0.0,0.0,2.3474,2.4694,2.4143,2.3474,2.3088,2.4116,2.4052,2.1997,2.2556,2.252,2.1272,2.2164,2.2907,0.0,0.0,2.6326,0.0,0.0,0.0,3.3083,0.0,3.3889,3.4439,3.4602,3.4517,3.4173,3.4015,3.424,3.4745,3.4611,3.5345,3.668,3.6952,3.7379,3.7929,3.82,3.8481,3.8891,4.0508,4.1095,4.1334,3.2753,3.2381,3.2689,3.4206,3.6714,3.9301,4.1596,4.3146,4.3729,4.2776,4.1827,4.1265,4.1265,4.2376,4.305,4.281,4.14,4.0994,4.2139,4.0322,3.9551,4.0304,3.8521,3.6207,3.3445,3.3041,3.2228,3.098,2.9512,2.9714,3.1342,2.8815,2.8164,2.915,2.9636,2.9853,2.9836,0.0,3.0645,3.0761,3.1244,3.1326,3.1207,3.136,3.1427,3.1427,3.1427,3.1921,3.2462,3.185,3.1664,3.1664,3.1664,3.2073,3.2695,3.3526,3.4199,3.4871,3.5869,3.6117,3.6072,3.582,3.6042,3.6084,3.5257,3.5024,3.4876,3.4412,3.4045,3.3275,3.1537,3.1458,0.0,0.0,0.0,0.0,2.6062,2.5144,2.4695,2.5319,2.5827,2.5441,2.3676,2.4053,2.3842,2.2418,2.2905,2.3318,2.3511,0.0,0.0,0.0,0.0,3.2691,3.3482,0.0,3.5502,3.524,3.5754,3.5791,3.5368,3.4656,3.4941,3.597,3.5769,3.651,3.7946,3.8481,3.8449,3.8099,3.8546,3.8707,3.8891,4.0508,4.1095,4.1334,3.6944,3.7255,3.7856,3.935,4.0517,4.2025,4.4359,4.4314,4.3948,4.3778,4.2573,4.1727,4.1727,4.1869,4.1556,4.0582,4.1703,4.1197,3.8251,3.9827,3.9974,3.7933,3.7621,3.7015,3.5973,3.4468,3.3605,3.3458,3.2583,3.1898,0.0,3.1103,3.044,2.9575,3.0346,0.0,0.0,3.0577,3.0809,3.1218,3.1924,3.1802,3.1258,3.1938,3.2192,3.2192,3.2192,3.2662,3.3288,3.322,3.3203,3.3203,3.3203,3.3237,3.3392,3.3906,3.4114,3.4378,3.5317,3.558,3.5677,3.6117,3.6256,3.6468,3.7081,3.6054,3.5206,3.5917,3.4853,3.3954,3.4454,3.3426,3.194,0.0,0.0,0.0,0.0,2.4915,2.5319,2.5393,2.4931,2.4764,2.5137,2.2785,2.1985,2.3841,2.4043,2.442,0.0,0.0,0.0,2.7816,2.886,3.0912,3.4072,3.3689,3.4991,3.7937,3.7515,3.7192,3.6962,3.6575,3.6236,3.5896,3.588,3.6631,3.7946,3.8481,3.8658,3.8627,3.8692,3.8707,3.8891,4.0508,4.1095,4.1334,3.955,3.874,3.8676,4.0703,4.1071,4.198,4.4729,4.4279,4.3754,4.4161,4.3174,4.2285,4.1864,4.181,4.1772,4.1697,4.2295,4.225,4.1168,4.1992,4.168,3.9735,3.9203,3.8102,3.634,3.5133,3.4174,3.3451,3.2381,3.1581,3.1043,3.0789,0.0,0.0,0.0,3.1751,3.2172,3.2074,3.2405,3.3009,3.2975,3.278,3.256,3.2848,3.2949,3.2949,3.2949,3.3423,3.4066,3.4066,3.3778,3.3406,3.3406,3.3711,3.4156,3.468,3.5131,3.5618,3.6326,3.6734,3.6988,3.7223,3.7497,3.7698,3.7547,3.6978,3.645,3.6321,3.5349,3.4619,3.4949,3.4472,3.383,3.3188,0.0,0.0,0.0,2.8686,2.8631,2.9604,2.8323,2.7598,2.8213,2.5958,2.4782,2.5576,2.43,2.4043,0.0,0.0,0.0,2.9898,0.0,3.3281,3.6149,3.5918,3.67,3.8538,3.8316,3.7932,3.7357,3.6739,3.6342,3.6186,3.7161,3.7893,3.8399,3.8611,3.8707,3.8707,3.8707,3.9001,3.9551,4.0673,4.1407,4.1992,4.1823,4.0631,4.0261,4.2421,4.2268,4.2546,4.4598,4.4242,4.3593,4.3065,4.2649,4.2212,4.1683,4.1426,4.1419,4.1697,4.2171,4.2245,4.1757,4.2616,4.2213,4.0139,3.9955,3.8872,3.6703,3.5674,3.4753,3.3869,3.2675,3.1811,0.0,0.0,0.0,0.0,3.2578,3.2993,3.3476,3.3385,3.3585,3.3945,3.3794,3.3457,3.3119,3.3558,3.3592,3.344,3.3643,3.4201,3.4827,3.4827,3.4489,3.4066,3.4066,3.4404,3.4897,3.5286,3.5752,3.627,3.6823,3.721,3.7524,3.7825,3.8183,3.835,3.7958,3.7676,3.7272,3.6468,3.5807,3.5445,3.5683,3.5738,3.5573,3.5078,0.0,0.0,0.0,3.1072,3.0632,3.1757,2.9706,2.8643,2.9726,2.7613,2.6292,2.6586,2.4795,2.441,0.0,0.0,0.0,0.0,0.0,0.0,3.6725,3.6762,3.7422,3.8707,3.8707,3.8395,3.7841,3.7033,3.6505,3.6376,3.7753,3.8487,3.8707,3.8707,3.8707,3.8707,3.8707,3.9184,3.9992,4.0802,4.1625,4.2415,4.4009,4.3774,4.3826,4.5365,4.5038,4.447,4.4242,4.4412,4.3436,4.0172,4.0627,4.1217,4.1202,4.0553,3.9939,3.9488,4.0887,4.0601,3.7763,4.0543,4.0891,3.7676,3.9071,3.9145,3.7529,3.6251,3.5562,3.5479,3.4259,0.0,3.2364,0.0,3.2823,3.4354,3.4372,3.4299,3.4187,3.4185,3.3888,3.3474,3.4201,3.3613,3.2462,3.3935,3.4032,3.3508,3.4218,3.4962,3.5583,3.5583,3.5583,3.5566,3.5566,3.5583,3.5583,3.5583,3.5583,3.5717,3.6249,3.6416,3.6664,3.7649,3.7893,3.8048,3.8578,3.8065,3.7272,3.6468,3.6285,3.6523,3.7327,3.7474,3.6927,3.5279,0.0,0.0,0.0,3.0705,3.021,3.0228,2.7516,2.6521,2.8808,2.6224,2.5032,2.6494,2.5852,0.0,0.0,0.0,0.0,3.0136,2.9464,0.0,3.5004,3.5041,3.627,3.8707,3.8707,3.8689,3.867,3.786,3.7052,3.634,3.7162,3.797,3.8707,3.8707,3.8707,3.8707,3.8707,3.9184,3.9992,4.0802,4.1625,4.2415,4.2498,4.3408,4.4166,4.3973,4.3861,4.3745,4.3681,4.3291,4.2479,4.0939,4.0986,4.1,4.049,3.9737,3.9598,4.0346,4.0756,4.0996,4.1035,4.1313,4.1022,4.001,3.8872,3.7477,3.583,3.5066,3.4275,3.3395,0.0,0.0,0.0,3.2583,3.2751,3.3578,3.3578,3.4352,3.5584,3.4836,3.5088,3.5896,3.4916,3.4223,3.3795,3.3761,3.3914,3.4184,3.4404,3.4979,3.56,3.56,3.56,3.56,3.56,3.56,3.56,3.56,3.56,3.5644,3.5827,3.6118,3.6563,3.7248,3.7667,3.8048,3.8578,3.8214,3.7649,3.7213,3.683,3.676,3.7378,3.7492,3.7144,3.6064,3.6817,0.0,3.3458,0.0,3.2247,3.1146,2.9292,2.8791,3.0472,2.8878,2.8106,2.8991,2.7805,0.0,0.0,0.0,0.0,0.0,3.2931,0.0,3.667,3.6688,3.7386,3.8689,3.8138,3.7588,3.7055,3.6798,3.685,3.7162,3.7955,3.8469,3.8707,3.8707,3.8707,3.8762,3.9294,4.001,4.0836,4.1625,4.2433,4.3149,4.2861,4.3724,4.4319,4.3373,4.3323,4.3186,4.2559,4.2377,4.1789,4.0411,4.0552,4.0508,3.9732,3.9188,0.0,4.0769,4.0787,4.1191,4.2286,4.1941,4.1428,4.079,3.9347,3.7778,3.6125,3.5157,0.0,3.3895,3.4392,3.4481,3.4213,3.3405,3.3634,3.4693,3.4567,3.5047,3.5902,3.5723,3.5692,3.5712,3.484,3.4172,3.3664,3.3474,3.3803,3.4396,3.4474,3.5094,3.5876,3.5672,3.56,3.565,3.596,3.5836,3.56,3.56,3.56,3.56,3.56,3.5832,3.627,3.7018,3.7415,3.7825,3.853,3.8283,3.792,3.7934,3.7521,3.7306,3.7842,3.7936,3.7804,3.7276,3.779,3.7533,3.5491,0.0,3.3091,3.2375,3.045,0.0,0.0,3.0775,3.0226,0.0,2.9439,0.0,0.0,0.0,0.0,3.2797,3.3683,0.0,3.6541,3.7199,3.7603,3.7808,3.7603,3.7088,3.6321,3.6927,3.7312,3.7547,3.834,3.8707,3.8707,3.8707,3.8891,3.9203,3.9698,4.0579,4.1625,4.2121,4.28,4.3515,4.4353,4.4433,4.4242,4.3389,4.3234,4.2726,4.1168,4.1613,4.1296,3.8924,3.9468,3.9809,3.899,3.8935,3.9501,4.0739,0.0,0.0,4.1686,4.2195,4.1824,4.0347,4.0095,3.9301,3.7857,3.6098,3.5581,3.6333,3.5155,3.4802,3.5235,3.4483,3.514,3.6959,3.6682,3.6114,3.5427,3.6594,3.5737,3.3567,3.4189,3.358,3.2361,3.3,3.3638,3.4231,3.4406,3.5326,3.6374,3.5849,3.5667,3.5785,3.6491,3.6197,3.5616,3.5718,3.5684,3.5616,3.5667,3.5633,3.5854,3.6923,3.7248,3.7542,3.8433,3.8267,3.8048,3.8546,3.8251,3.8065,3.8611,3.8707,3.8689,3.8634,3.7988,3.7419,3.7199,3.4523,3.2839,3.3476,0.0,0.0,3.2381,3.2027,3.158,0.0,0.0,0.0,0.0,0.0,2.92,3.158,3.2394,3.3518,3.5078,3.6633,3.7052,3.6303,3.707,3.7052,3.6431,3.7936,3.823,3.7621,3.8432,3.8781,3.8799,3.8836,3.9313,3.9992,4.0029,4.0983,4.2304,4.2359,4.2855,4.3515,0.0,0.0,4.3216,4.1761,4.1631,4.1594,4.118,4.0832,4.0196,3.8987,3.9575,3.9785,3.8995,3.9463,3.9935,4.0262,4.0092,4.0297,4.1058,4.0528,4.0449,4.1104,3.8435,3.6934,3.6976,3.5232,3.4778,3.5805,3.5503,3.5113,3.4687,3.4495,3.4566,3.4842,3.5136,3.5438,3.5783,3.6071,3.5682,3.4777,3.3985,3.3102,3.2259,3.1867,3.2752,3.42,3.4236,3.5451,3.6941,3.6395,3.6224,3.6174,3.596,3.5752,3.5819,3.7003,3.6512,3.5718,3.6349,3.6079,3.5854,3.6923,3.7773,3.8302,3.8133,3.798,3.7946,3.8065,3.798,3.8065,3.8611,3.8707,3.8505,3.7878,3.7621,3.6629,3.4119,3.3078,3.2197,0.0,3.1463,3.1977,3.2546,3.3537,3.3371,0.0,0.0,3.1213,3.1397,3.1439,3.2289,3.4087,3.4325,3.4931,3.5973,3.6376,3.6486,3.6303,3.6486,3.6813,3.7235,3.7621,3.8025,3.8469,3.9258,3.9625,3.9662,4.0286,4.0636,4.0891,4.1497,4.1956,4.2378,4.2983,4.3332,4.3515,4.165,4.2433,4.2891,4.1313,4.1146,4.1085,4.0747,4.0367,3.9952,3.9516,3.9833,3.9927,3.9489,3.9833,4.0096,4.0096,3.9961,4.0069,4.0511,4.0254,4.0102,4.0116,3.8224,3.713,3.7066,3.5893,3.556,3.6146,3.5769,3.5397,3.5013,3.5241,3.5294,3.5186,3.5899,3.6007,3.5631,3.5858,3.5345,3.437,3.3684,3.2949,3.2293,3.2222,3.3043,3.4198,3.4286,3.5553,3.7133,3.658,3.6563,3.6716,3.6535,3.6237,3.6227,3.7519,3.7077,3.6315,3.7077,3.6888,3.6638,3.7338,3.8117,3.8627,3.8316,3.7894,3.7702,3.8167,3.7894,3.7808,3.8562,3.8707,3.8432,3.7621,3.6868,3.5734,3.3959,3.2761,3.2284,3.2908,3.3091,3.3458,3.4229,3.4729,3.4307,3.2614,3.2155,0.0,3.3018,3.3109,3.355,3.4417,3.555,3.6009,3.5701,3.6101,3.6468,3.685,3.685,3.7088,3.7529,3.8264,3.8615,3.8744,3.9551,3.968,3.9405,4.023,4.0781,4.1168,4.1992,4.2525,4.2892,4.3332,4.3515,4.3515,4.2743,4.298,4.2919,4.1457,4.1204,4.095,4.0214,4.0096,4.0045,3.9927,3.9927,3.9927,3.9927,3.9927,3.9969,4.007,4.0096,4.0096,4.0096,4.0546,4.0233,3.8987,3.8827,3.8464,3.7867,3.716,3.6795,3.6795,3.6084,3.5717,3.5739,3.627,3.6519,3.6563,3.7488,3.6986,3.5506,3.5978,3.5157,3.3575,3.3575,3.3119,3.253,3.3169,3.3792,3.4387,3.4554,3.572,3.7133,3.6664,3.6823,3.7239,3.7393,3.696,3.6585,3.7558,3.735,3.6948,3.7567,3.7591,3.749,3.7648,3.8183,3.8643,3.8401,3.7808,3.7524,3.8302,3.7843,3.7596,3.853,3.8707,3.8303,3.7125,3.5862,3.4839,3.4344,0.0,3.2847,3.5752,3.5073,3.4908,3.634,3.5807,3.5041,3.4247,3.355,3.3757,3.5114,3.4669,3.4302,3.4174,3.6225,3.6633,3.5206,3.5936,3.6703,3.7492,3.7492,3.7566,3.7731,3.9237,3.9533,3.8927,3.9863,3.9863,3.9313,4.0102,4.0855,4.1534,4.2213,4.2892,4.3515,4.3515,4.3515,4.3515,4.342,4.3308,4.2919,4.1457,4.1204,4.095,4.0214,4.0096,3.9876,3.9166,3.9086,3.9086,3.9086,3.9086,3.9342,4.0045,4.0096,4.0096,4.0096,4.0179,4.0322,4.0533,3.9532,3.9108,3.9448,3.7712,3.6795,3.6795,3.6448,3.6287,3.6287,3.6805,3.7095,3.7097,3.7649,3.7271,3.6263,3.6786,3.5958,3.432,3.432,3.388,3.3237,3.3372,3.4138,3.5136,3.516,3.604,3.719,3.7097,3.7133,3.7208,3.7238,3.6851,3.6547,3.7344,3.7194,3.6829,3.6948,3.7111,3.7159,3.6739,3.7667,3.8368,3.7039,3.7286,3.772,3.7487,3.7614,3.7981,3.8596,3.8707,3.7753,3.4853,3.4729,3.405,3.1329,0.0,3.3862,3.5059,3.6211,3.7033,3.729,3.7199,3.6795,3.5973,3.5789,3.5826,3.6083,3.6629,3.6611,3.5936,3.6285,3.6358,3.6101,3.6229,3.6703,3.7492,3.7492,3.786,3.8542,3.9478,3.9827,3.979,4.1277,4.1864,4.1809,4.2598,4.3002,4.313,4.3259,4.3404,4.3515,4.3515,4.3515,4.3515,4.3047,4.3149,4.2919,4.1457,4.1204,4.095,4.0214,4.0096,3.9969,3.9584,3.9166,3.8908,3.8908,3.8908,3.9059,3.9437,3.9833,4.0096,4.0096,4.0096,4.0017,3.9867,3.9312,3.9117,3.9354,3.8071,3.7381,3.7381,3.6741,3.6395,3.6416,3.721,3.7578,3.7596,3.8117,3.7894,3.7194,3.675,3.6151,3.5429,3.4347,3.3711,3.344,3.3846,3.4117,3.4381,3.5185,3.6022,3.6764,3.6764,3.696,3.7152,3.6862,3.66,3.6402,3.6465,3.6911,3.735,3.7211,3.7278,3.7271,3.6928,3.7377,3.7721,3.6981,3.6962,3.7239,3.7702,3.8,3.8313,3.8785,3.9136,3.856,3.6189,3.5734,0.0,0.0,3.4431,3.544,3.6248,3.7404,3.7988,3.7547,3.7492,3.718,3.6358,3.6303,3.6486,3.6923,3.7309,3.7529,3.7588,3.7165,3.7147,3.7588,3.7588,3.7771,3.8138,3.8594,3.8982,3.9386,4.0634,4.0965,4.0616,4.1791,4.2047,4.1735,4.2525,4.2837,4.2892,4.3331,4.3515,4.3515,4.3515,4.3515,4.3515,4.3075,4.3284,4.3217,4.1728,4.1457,4.1153,4.0248,4.0096,4.002,3.985,3.9113,3.8635,3.8635,3.8635,3.8718,3.8881,3.9636,4.0096,4.0096,4.0096,3.9859,3.9276,3.9242,3.9242,3.9242,3.8531,3.8214,3.834,3.7331,3.6923,3.7048,3.7757,3.8082,3.8099,3.853,3.8399,3.784,3.6845,3.6418,3.6267,3.4736,3.402,3.396,3.4539,3.4404,3.4044,3.5194,3.5854,3.6228,3.6354,3.6664,3.6962,3.6684,3.6498,3.6346,3.6103,3.6915,3.778,3.7212,3.7275,3.7446,3.7166,3.7406,3.7644,3.7426,3.7143,3.7175,3.8164,3.8525,3.8781,3.9211,3.9627,3.931,3.7511,0.0,0.0,0.0,3.645,3.7033,3.8208,3.8872,3.8946,3.8135,3.8062,3.7731,3.6909,3.6853,3.7129,3.7749,3.7786,3.8046,3.8689,3.8102,3.8065,3.8689,3.8707,3.8707,3.8707,3.9515,3.99,3.9937,4.157,4.1974,4.1407,4.2231,4.2231,4.1717,4.2323,4.258,4.2635,4.3259,4.3515,4.3515,4.3515,4.3515,4.3515,4.4462,4.4479,4.4039,4.2472,4.2219,4.1728,4.0316,4.0096,3.9833,3.9086,3.833,3.7892,3.7892,3.7892,3.8177,3.8854,3.9636,4.0096,4.0096,4.0096,4.0079,4.0028,4.0028,4.0028,4.0028,3.9317,3.9143,3.9657,3.8649,3.8408,3.8905,3.8729,3.8643,3.8643,3.8692,3.8399,3.7893,3.7805,3.7233,3.6395,3.625,3.5878,3.543,3.5498,3.5481,3.5447,3.5566,3.5622,3.5739,3.6228,3.6416,3.6539,3.6999,3.6803,3.6534,3.7162,3.7609,3.7584,3.6141,3.6593,3.7374,3.6945,3.8035,3.9006,3.806,3.8145,3.8473,3.8547,3.9035,3.9562,4.0039,4.0009,3.9129,3.6762,0.0,0.0,3.6303,3.6942,3.8264,4.0545,4.0893,4.0616,3.979,3.9732,3.9386,3.8579,3.8524,3.856,3.8615,3.8615,3.8634,3.8707,3.8652,3.8652,3.8707,3.8707,3.8707,3.8707,3.9515,3.99,3.9937,4.157,4.2268,4.2268,4.3057,4.3386,4.3331,4.3404,4.3423,4.3423,4.3478,4.3515,4.3515,4.3515,4.3515,4.3515,4.3176,4.3176,4.2828,4.1796,4.1627,4.1271,4.0265,4.0096,3.9995,3.9688,3.8951,3.8469,3.8469,3.8469,3.8608,3.8881,3.9636,4.0096,4.0096,4.0096,4.0096,4.0096,4.0096,4.0254,4.0601,3.9862,3.9789,4.0352,3.98,3.9391,3.9119,3.9341,3.9184,3.8707,3.8707,3.8596,3.8382,3.8048,3.7685,3.7232,3.616,3.56,3.5372,3.5026,3.4928,3.4979,3.543,3.581,3.6075,3.5941,3.6118,3.6461,3.6835,3.6796,3.6879,3.7923,3.8311,3.8253,3.7691,3.762,3.7712,3.7536,3.7979,3.8357,3.7984,3.8037,3.8303,3.8747,3.9289,3.9845,4.0342,4.0652,4.0502,3.9449,0.0,3.9294,3.9294,3.9551,4.0084,4.0985,4.1095,4.0765,3.9974,4.0359,4.0102,3.8799,3.9609,3.9974,3.946,3.9918,3.9974,3.946,3.9937,3.9701,3.8707,3.9184,3.9441,3.946,4.0763,4.1387,4.1423,4.2543,4.3039,4.3057,4.3369,4.3515,4.3515,4.3515,4.3515,4.3515,4.3515,4.3515,4.3515,4.3515,4.3515,4.3515,4.2286,4.2286,4.2066,4.1339,4.1204,4.101,4.0438,4.0343,4.0343,4.0343,3.9672,3.9116,3.8935,3.8908,3.8908,3.8908,3.9636,4.0096,4.0096,4.0033,4.0097,4.0343,4.0343,4.0601,4.1178,4.0695,4.0721,4.1321,4.0865,4.0329,3.9726,3.9845,3.946,3.8707,3.8707,3.8707,3.8692,3.83,3.8047,3.7806,3.6589,3.6036,3.5859,3.5476,3.5349,3.5397,3.5732,3.6203,3.6615,3.6328,3.659,3.7108,3.7547,3.7828,3.821,3.906,3.9481,3.9674,3.9674,3.9418,3.8985,3.8391,3.8413,3.8582,3.8582,3.8582,3.8734,3.9225,3.9774,4.0321,4.0867,4.1207,4.1415,4.1469,4.126,4.1187,4.1425,4.148,4.1572,4.1827,4.1864,4.1552,4.0726,4.0928,4.0636,3.9551,4.0249,4.0598,4.0286,4.0802,4.0855,4.0286,4.0802,4.0563,3.9444,4.001,4.0286,4.0286,4.1644,4.2304,4.2323,4.313,4.3515,4.3515,4.3515,4.3515,4.3515,4.3515,4.3515,4.3515,4.3515,4.3515,4.3515,4.3515,4.3515,4.3515,4.2269,4.2269,4.2049,4.1322,4.1187,4.1129,4.0907,4.0903,4.0903,4.0903,4.027,3.958,3.8972,3.8908,3.8908,3.8908,3.9636,4.0096,4.0096,3.9866,4.0055,4.0851,4.0886,4.1183,4.1793,4.1793,4.2101,4.2711,4.1845,4.1306,4.1077,4.0267,3.946,3.8692,3.8692,3.8692,3.8707,3.8707,3.8399,3.7911,3.7893,3.7614,3.7209,3.7209,3.7209,3.7133,3.66,3.6744,3.7239,3.7515,3.7945,3.8541,3.9323,4.0101,4.0719,4.0722,4.1233,4.181,4.181,4.1793,4.1336,3.9481,3.9571,4.0121,4.0121,4.0121,4.0121,4.0121,4.0546,4.1087,4.1703,4.1584,4.1615,4.2201,4.1644,4.1389,4.2194,4.2304,4.2598,4.3423,4.3515,4.3167,4.2378,4.1572,4.1113,4.1095,4.0377,4.0267,4.1077,4.1113,4.1113,4.1113,4.1113,4.1113,4.1113,4.1113,4.1113,4.1113,4.1919,4.2304,4.2341,4.313,4.3515,4.3515,4.3515,4.3515,4.3515,4.3515,4.3515,4.3515,4.3515,4.3515,4.3515,4.3515,4.3515,4.3515,4.0815,4.0773,4.0705,4.0485,4.0434,4.04,4.0345,4.0655,4.0903,4.0903,4.0722,4.0497,4.0322,3.9986,3.9756,3.9756,3.9952,3.9893,3.9343,3.9575,3.9768,3.9912,4.0401,4.0958,4.1523,4.2135,4.2694,4.325,4.2446,4.152,4.0526,3.9709,3.8911,3.815,3.815,3.835,3.8707,3.8707,3.8611,3.8433,3.8048,3.7807,3.7649,3.7323,3.7209,3.7173,3.7018,3.7285,3.765,3.74,3.7641,3.8223,3.9222,4.0695,4.2101,4.2101,4.2243,4.244,4.244,4.2121,4.1672,4.1095,4.1128,4.1286,4.1286,4.1286,4.1286,4.1286,4.1402,4.1725,4.2322,4.2361,4.2502,4.3043,4.2928,4.2873,4.3112,4.313,4.3222,4.3478,4.3515,4.3167,4.2378,4.2598,4.2323,4.1168,4.1405,4.1937,4.2745,4.2782,4.2525,4.1974,4.2488,4.2506,4.1956,4.1937,4.1937,4.1956,4.2763,4.313,4.3149,4.3404,4.3515,4.3515,4.3515,4.3515,4.3515,4.3515,4.3515,4.3515,4.3515,4.3515,4.3515,4.3515,4.3515,4.3515,4.0524,4.0492,4.0426,4.0146,4.0096,4.0154,4.0392,4.0897,4.1268,4.1268,4.1268,4.1178,4.0926,4.0417,4.0096,4.0096,4.0096,3.991,3.9469,3.9526,3.955,3.9469,4.031,4.1103,4.1742,4.2577,4.3178,4.3515,4.2793,4.1705,4.0275,3.9606,3.8671,3.7649,3.8149,3.8372,3.8417,3.8957,3.9001,3.8658,3.835,3.8216,3.8183,3.7895,3.8006,3.824,3.8025,3.8474,3.913,3.8958,3.9446,4.0162,4.0509,4.1722,4.3014,4.3014,4.3014,4.3014,4.3014,4.2752,4.2483,4.2483,4.2126,4.181,4.181,4.181,4.181,4.181,4.181,4.1979,4.2596,4.2711,4.2883,4.341,4.3515,4.3515,4.3515,4.3515,4.3515,4.3515,4.3515,4.3296,4.2818,4.2928,4.2616,4.1662,4.2323,4.2983,4.3478,4.3515,4.3277,4.2782,4.324,4.3276,4.2782,4.2763,4.2763,4.2782,4.3276,4.3515,4.3515,4.3515,4.3515,4.3515,4.3515,4.3515,4.3515,4.3515,4.3515,4.3515,4.3515,4.3515,4.3515,4.3515,4.3515,4.3515,4.1145,4.1064,4.0882,4.0231,4.0096,4.0262,4.0756,4.1335,4.1707,4.1707,4.1707,4.1512,4.0972,4.0417,4.0096,4.0096,4.0096,4.0079,4.0011,3.9646,3.942,3.9411,4.051,4.1467,4.22,4.3058,4.348,4.3427,4.2867,4.1789,4.0237,3.9669,3.8671,3.7382,3.8582,3.876,3.8198,3.9467,3.9533,3.8817,3.8817,3.8762,3.8707,3.8707,3.9203,3.9832,3.9273,3.9938,4.1137,4.1379,4.2322,4.3259,4.2525,4.2837,4.3515,4.3515,4.3515,4.3515,4.3515,4.3515,4.3515,4.3515,4.2734,4.194,4.194,4.194,4.194,4.194,4.194,4.2124,4.2674,4.2769,4.2939,4.3427,4.3515,4.3515,4.3515,4.3515,4.3515,4.3515,4.3515,4.3515,4.3515,4.2837,4.2415,4.2415,4.3075,4.3515,4.3515,4.3515,4.3515,4.3515,4.3515,4.3515,4.3515,4.3515,4.3515,4.3515,4.3515,4.3515,4.3515,4.3515,4.3515,4.3515,4.3515,4.3515,4.3515,4.3515,4.3515,4.3515,4.3515,4.3515,4.3515,4.3515,4.3515,4.3515,4.1911,4.1062,4.0299,4.013,4.0096,4.0146,4.0254,4.075,4.111,4.111,4.111,4.1041,4.0903,4.0417,4.0096,4.0096,4.0096,3.9859,3.9276,3.9502,3.9582,3.9469,4.0685,4.1433,4.1596,4.2865,4.3286,4.2883,4.2063,4.106,3.9874,3.9129,3.8612,3.832,3.9095,3.9526,3.9752,4.0529,4.0377,3.9643,3.9643,3.9258,3.8707,3.8707,3.9203,3.9808,3.9038,3.9784,4.1097,4.1161,4.1799,4.2525,4.2359,4.2837,4.3515,4.3515,4.3515,4.3515,4.3515,4.3515,4.3515,4.3515,4.3321,4.3123,4.3123,4.3123,4.3123,4.3123,4.3123,4.3178,4.3303,4.3339,4.3356,4.3479,4.3515,4.3515,4.3515,4.3515,4.3515,4.3515,4.3515,4.3515,4.3515,4.3332,4.3239,4.3239,4.3387,4.3515,4.3515,4.3515,4.3515,4.3515,4.3515,4.3515,4.3515,4.3515,4.3515,4.3515,4.3515,4.3515,4.3515,4.3515,4.3515,4.3515,4.3515,4.3515,4.3515,4.3515,4.3515,4.3515,4.3515,4.3515,4.3515,4.3515,4.3515,4.3515,4.2101,4.1497,4.0853,4.0214,4.0096,4.0096,4.0096,4.0552,4.0903,4.0903,4.0903,4.0903,4.0938,4.0441,4.0096,4.0096,4.0096,3.9943,3.9554,3.9643,3.9688,3.9598,4.0514,4.1026,4.1026,4.2109,4.2542,4.2282,4.1514,4.0686,3.9794,3.9112,3.874,3.8695,3.9658,4.0146,4.0312,4.1259,4.1222,4.0469,4.0469,3.9992,3.9313,3.9698,4.012,4.0469,4.0432,4.1203,4.2194,4.1809,4.2213,4.28,4.2415,4.2837,4.3515,4.3515,4.3515,4.3515,4.3515,4.3515,4.3515,4.3515,4.3515,4.3515,4.3515,4.3515,4.3515,4.3515,4.3515,4.3515,4.3515,4.3515,4.3515,4.3515,4.3515,4.3515,4.3515,4.3515,4.3515,4.3515,4.3515,4.3515,4.3515,4.3515,4.3515,4.3515,4.3515,4.3515,4.3515,4.3515,4.3515,4.3515,4.3515,4.3515,4.3515,4.3515,4.3515,4.3515,4.3515,4.3515,4.3515,4.3515,4.3515,4.3515,4.3515,4.3515,4.3515,4.3515,4.3515,4.3515,4.3515,4.3515,4.3515,4.3515,4.3515,4.3515,4.2218,4.196,4.1519,4.0298,4.0096,4.0096,4.0096,4.0473,4.0756,4.0756,4.0756,4.0774,4.0849,4.0402,4.0096,4.0096,4.0096,4.0096,4.0096,3.9891,3.9819,3.9893,4.0368,4.0708,4.0792,4.1453,4.175,4.1643,4.1155,4.0545,3.9842,3.9471,3.9247,3.9138,4.0453,4.0905,4.0781,4.1989,4.2047,4.1297,4.1297,4.0818,4.0175,4.0855,4.1187,4.137,4.1901,4.2598,4.3221,4.2671,4.2947,4.3386,4.2708,4.2947,4.3515,4.3515,4.3515,4.3515,4.3515,4.3515,4.3515,4.3515,4.3515,4.3515,4.3515,4.3515,4.3515,4.3515,4.3515,4.3515,4.3515,4.3515,4.3515,4.3515,4.3515,4.3515,4.3515,4.3515,4.3515,4.3515,4.3515,4.3515,4.3515,4.3515,4.3515,4.3515,4.3515,4.3515,4.3515,4.3515,4.3515,4.3515,4.3515,4.3515,4.3515,4.3515,4.3515,4.3515,4.3515,4.3515,4.3515,4.3515,4.3515,4.3515,4.3515,4.3515,4.3515,4.3515,4.3515,4.3515,4.3515,4.3515,4.3515,4.3515,4.3515,4.3515,4.2829,4.1883,4.0847,4.0196,4.0096,4.0096,4.0096,4.0171,4.0204,4.0204,4.0204,4.0204,4.0221,4.0146,4.0096,4.0096,4.0096,4.0096,4.0096,4.0069,4.0239,4.0718,4.0816,4.1111,4.163,4.174,4.1534,4.1018,4.0949,4.0603,4.0051,4.047,4.0643,4.0654,4.1887,4.2419,4.2425,4.3067,4.2873,4.2139,4.2139,4.1662,4.0948,4.1058,4.1534,4.2066,4.1462,4.1791,4.2543,4.313,4.3423,4.3478,4.3369,4.3423,4.3515,4.3515,4.3515,4.3515,4.3515,4.3515,4.3515,4.3515,4.3515,4.3515,4.3515,4.3515,4.3515,4.3515,4.3515,4.3515,4.3515,4.3515,4.3515,4.3515,4.3515,4.3515,4.3515,4.3515,4.3515,4.3515,4.3515,4.3515,4.3515,4.3515,4.3515,4.3515,4.3515,4.3515,4.3515,4.3515,4.3515,4.3515,4.3515,4.3515,4.3515,4.3515,4.3515,4.3515,4.3515,4.3515,4.3515,4.3515,4.3515,4.3515,4.3515,4.3515,4.3515,4.3515,4.3515,4.3515,4.3515,4.3515,4.3515,4.3515,4.3515,4.3515,4.2871,4.2332,4.1617,4.072,4.0552,4.0449,4.0146,4.0096,4.0096,4.0096,4.0096,4.0096,4.0096,4.0096,4.0096,4.0096,4.0096,4.0096,4.0096,4.0096,4.0204,4.0424,4.0449,4.0703,4.1273,4.1291,4.1335,4.1402,4.1402,4.1268,4.1053,4.1291,4.1578,4.1937,4.246,4.2864,4.3123,4.2916,4.2873,4.2928,4.2488,4.2084,4.1827,4.2268,4.2378,4.2304,4.2415,4.2671,4.302,4.3386,4.3515,4.3515,4.3515,4.3515,4.3515,4.3515,4.3515,4.3515,4.3515,4.3515,4.3515,4.3515,4.3515,4.3515,4.3515,4.3515,4.3515,4.3515,4.3515,4.3515,4.3515,4.3515,4.3515,4.3515,4.3515,4.3515,4.3515,4.3515,4.3515,4.3515,4.3515,4.3515,4.3515,4.3515,4.3515,4.3515,4.3515,4.3515,4.3515,4.3515,4.3515,4.3515,4.3515,4.3515,4.3515,4.3515,4.3515,4.3515,4.3515,4.3515,4.3515,4.3515,4.3515,4.3515,4.3515,4.3515,4.3515,4.3515,4.3515,4.3515,4.3515,4.3515,4.3515,4.3515,4.3515,4.3515]}]]